[[{"header":{"parameterUnit":"m.s-1","parameterCategory":1,"la1":30.6,"la2":29.2853,"lo1":-89.7004,"lo2":-87.6739,"dy":0.0162,"dx":0.0183,"nx":112,"ny":82,"refTime":"2026-02-25T12:00:00:Z","depth":0,"parameterNumber":2,"parameterNumberName":"U-component_of_WINDS"},"data":[0.0,0.0,0.0,0.0,0.0,0.0,0.0,0.0,0.0,0.0,0.0,0.0,0.0,0.0,0.0,0.0,0.0,0.0,0.0,0.0,0.0,0.0,0.0,0.0,0.0,0.0,0.0,0.0,0.0,0.0,0.0,0.0,0.0,0.0,0.0,0.0,0.0,0.0,0.0,0.0,0.0,0.0,0.0,0.0,0.0,0.0,0.0,0.0,0.0,0.0,0.0,0.0,0.0,0.0,0.0,0.0,0.0,0.0,0.0,0.0,0.0,0.0,0.0,0.0,0.0,0.0,0.0,0.0,0.0,0.0,0.0,0.0,0.0,0.0,0.0,0.0,0.0,0.0,0.0,0.0,0.0,0.0,0.0,0.0,0.0,0.0,0.0,0.0,0.0,0.0,-0.8642,-1.0027,-1.1336,-1.1949,-1.156,-1.0973,-1.0238,-0.9359,0.0,0.0,0.0,0.0,0.0,0.0,0.0,0.0,0.0,0.0,0.0,0.0,0.0,0.0,0.0,0.0,0.0,0.0,0.0,0.0,0.0,0.0,0.0,0.0,0.0,0.0,0.0,0.0,0.0,0.0,0.0,0.0,0.0,0.0,0.0,0.0,0.0,0.0,0.0,0.0,0.0,0.0,0.0,0.0,0.0,0.0,0.0,0.0,0.0,0.0,0.0,0.0,0.0,0.0,0.0,0.0,0.0,0.0,0.0,0.0,0.0,0.0,0.0,0.0,0.0,0.0,0.0,0.0,0.0,0.0,0.0,0.0,0.0,0.0,0.0,0.0,0.0,0.0,0.0,0.0,0.0,0.0,0.0,0.0,0.0,0.0,0.0,0.0,0.0,0.0,0.0,0.0,0.0,0.0,0.0,0.0,0.0,0.0,0.0,0.0,0.0,0.0,0.0,0.0,-0.872,-1.0347,-1.1211,-1.1549,-1.1213,-1.0622,-0.9988,-0.934,0.0,0.0,0.0,0.0,0.0,0.0,0.0,0.0,0.0,0.0,0.0,0.0,0.0,0.0,0.0,0.0,0.0,0.0,0.0,0.0,0.0,0.0,0.0,0.0,0.0,0.0,0.0,0.0,0.0,0.0,0.0,0.0,0.0,0.0,0.0,0.0,0.0,0.0,0.0,0.0,0.0,0.0,0.0,0.0,0.0,0.0,0.0,0.0,0.0,0.0,0.0,0.0,0.0,0.0,0.0,0.0,0.0,0.0,0.0,0.0,0.0,0.0,0.0,0.0,0.0,0.0,0.0,0.0,0.0,0.0,0.0,0.0,0.0,0.0,0.0,0.0,0.0,0.0,0.0,0.0,0.0,0.0,0.0,0.0,0.0,0.0,0.0,0.0,0.0,0.0,0.0,0.0,0.0,0.0,0.0,0.0,0.0,0.0,0.0,0.0,0.0,0.0,0.0,-0.8804,-0.9769,-1.1303,-1.1731,-1.1772,-1.1404,-1.0814,-1.0142,-0.935,-0.78,0.0,0.0,0.0,0.0,0.0,0.0,0.0,0.0,0.0,0.0,0.0,0.0,0.0,0.0,0.0,0.0,0.0,0.0,0.0,0.0,0.0,0.0,0.0,0.0,0.0,0.0,0.0,0.0,0.0,0.0,0.0,0.0,0.0,0.0,0.0,0.0,0.0,0.0,0.0,0.0,0.0,0.0,0.0,0.0,0.0,0.0,0.0,0.0,0.0,0.0,0.0,0.0,0.0,0.0,0.0,0.0,0.0,0.0,0.0,0.0,0.0,0.0,0.0,0.0,0.0,0.0,0.0,0.0,0.0,0.0,0.0,0.0,0.0,0.0,0.0,0.0,0.0,0.0,0.0,0.0,0.0,0.0,0.0,0.0,0.0,0.0,0.0,0.0,0.0,0.0,0.0,0.0,0.0,0.0,0.0,0.0,0.0,0.0,0.0,0.0,0.0,0.0,-1.0103,-1.0617,-1.1979,-1.2133,-1.197,-1.1582,-1.0959,-1.0228,-0.934,-0.7493,0.0,0.0,0.0,0.0,0.0,0.0,0.0,0.0,0.0,0.0,0.0,0.0,0.0,0.0,0.0,0.0,0.0,0.0,0.0,0.0,0.0,0.0,0.0,0.0,0.0,0.0,0.0,0.0,0.0,0.0,0.0,0.0,0.0,0.0,0.0,0.0,0.0,0.0,0.0,0.0,0.0,0.0,0.0,0.0,0.0,0.0,0.0,0.0,0.0,0.0,0.0,0.0,0.0,0.0,0.0,0.0,0.0,0.0,0.0,0.0,0.0,0.0,0.0,0.0,0.0,0.0,0.0,0.0,0.0,0.0,0.0,0.0,0.0,0.0,0.0,0.0,0.0,0.0,0.0,0.0,0.0,0.0,0.0,0.0,0.0,0.0,0.0,0.0,0.0,0.0,0.0,0.0,0.0,0.0,0.0,0.0,0.0,0.0,0.0,0.0,0.0,0.0,-1.0103,-1.0571,-1.1787,-1.1912,-1.1772,-1.1444,-1.075,-1.0011,-0.9262,-0.7391,0.0,0.0,0.0,0.0,0.0,0.0,0.0,0.0,0.0,0.0,0.0,0.0,0.0,0.0,0.0,0.0,0.0,0.0,0.0,0.0,0.0,0.0,0.0,0.0,0.0,0.0,0.0,0.0,0.0,0.0,0.0,0.0,0.0,0.0,0.0,0.0,0.0,0.0,0.0,0.0,0.0,0.0,0.0,0.0,0.0,0.0,0.0,0.0,0.0,0.0,0.0,0.0,0.0,0.0,0.0,0.0,0.0,0.0,0.0,0.0,0.0,0.0,0.0,0.0,0.0,0.0,0.0,0.0,0.0,0.0,0.0,0.0,0.0,0.0,0.0,0.0,0.0,0.0,0.0,0.0,0.0,0.0,0.0,0.0,0.0,0.0,0.0,0.0,0.0,0.0,0.0,0.0,0.0,0.0,0.0,0.0,0.0,0.0,0.0,0.0,0.0,0.0,-1.04,-1.0998,-1.1864,-1.197,-1.182,-1.1433,-1.0803,-1.0032,-0.9143,0.0,0.0,0.0,0.0,0.0,0.0,0.0,0.0,0.0,0.0,0.0,0.0,0.0,0.0,0.0,0.0,0.0,0.0,0.0,0.0,0.0,0.0,0.0,0.0,0.0,0.0,0.0,0.0,0.0,0.0,0.0,0.0,0.0,0.0,0.0,0.0,0.0,0.0,0.0,0.0,0.0,0.0,0.0,0.0,0.0,0.0,0.0,0.0,0.0,0.0,0.0,0.0,0.0,0.0,0.0,0.0,0.0,0.0,0.0,0.0,0.0,0.0,0.0,0.0,0.0,0.0,0.0,0.0,0.0,0.0,0.0,0.0,0.0,0.0,0.0,0.0,0.0,0.0,0.0,0.0,0.0,0.0,0.0,0.0,0.0,0.0,0.0,0.0,0.0,0.0,0.0,0.0,0.0,0.0,0.0,0.0,0.0,0.0,0.0,0.0,0.0,0.0,-0.9742,-1.0592,-1.1181,-1.1637,-1.1683,-1.1473,-1.0939,-1.0103,-0.9375,-0.8844,0.0,0.0,0.0,0.0,0.0,0.0,0.0,0.0,0.0,0.0,0.0,0.0,0.0,0.0,0.0,0.0,0.0,0.0,0.0,0.0,0.0,0.0,0.0,0.0,0.0,0.0,0.0,0.0,0.0,0.0,0.0,0.0,0.0,0.0,0.0,0.0,0.0,0.0,0.0,0.0,0.0,0.0,0.0,0.0,0.0,0.0,0.0,0.0,0.0,0.0,0.0,0.0,0.0,0.0,0.0,0.0,0.0,0.0,0.0,0.0,0.0,0.0,0.0,0.0,0.0,0.0,0.0,0.0,0.0,0.0,0.0,0.0,0.0,0.0,0.0,0.0,0.0,0.0,0.0,0.0,0.0,0.0,0.0,0.0,0.0,0.0,0.0,0.0,0.0,0.0,0.0,0.0,0.0,0.0,0.0,0.0,0.0,0.0,0.0,0.0,0.0,0.0,-0.9727,-1.0568,-1.0989,-1.0989,-1.0989,-1.065,-0.9861,-0.8512,-0.7895,0.0,0.0,0.0,0.0,0.0,0.0,0.0,0.0,0.0,0.0,0.0,0.0,0.0,0.0,0.0,0.0,0.0,0.0,0.0,0.0,0.0,0.0,0.0,0.0,0.0,0.0,0.0,0.0,0.0,0.0,0.0,0.0,0.0,0.0,0.0,0.0,0.0,0.0,0.0,0.0,0.0,0.0,0.0,0.0,0.0,0.0,0.0,0.0,0.0,0.0,0.0,0.0,0.0,0.0,0.0,0.0,0.0,0.0,0.0,0.0,0.0,0.0,0.0,0.0,0.0,0.0,0.0,0.0,0.0,0.0,0.0,0.0,0.0,0.0,0.0,0.0,0.0,0.0,0.0,0.0,0.0,0.0,0.0,0.0,0.0,0.0,0.0,0.0,0.0,0.0,0.0,0.0,0.0,0.0,0.0,0.0,0.0,0.0,0.0,0.0,0.0,0.0,0.0,-0.9161,-0.9844,-1.022,-1.022,-1.022,-1.0047,-0.9622,-0.8375,-0.7793,-0.8171,0.0,0.0,0.0,0.0,0.0,0.0,0.0,0.0,0.0,0.0,0.0,0.0,0.0,0.0,0.0,0.0,0.0,0.0,0.0,0.0,0.0,0.0,0.0,0.0,0.0,0.0,0.0,0.0,0.0,0.0,0.0,0.0,0.0,0.0,0.0,0.0,0.0,0.0,0.0,0.0,0.0,0.0,0.0,0.0,0.0,0.0,0.0,0.0,0.0,0.0,0.0,0.0,0.0,0.0,0.0,0.0,0.0,0.0,0.0,0.0,0.0,0.0,0.0,0.0,0.0,0.0,0.0,0.0,0.0,0.0,0.0,0.0,0.0,0.0,0.0,0.0,0.0,0.0,0.0,0.0,0.0,0.0,0.0,0.0,0.0,0.0,0.0,0.0,0.0,0.0,0.0,0.0,0.0,0.0,0.0,0.0,0.0,0.0,0.0,0.0,0.0,0.0,-0.8917,-0.9523,-0.9794,-0.9533,-0.9503,-0.921,-0.8512,-0.7519,-0.6984,-0.7139,0.0,0.0,0.0,0.0,0.0,0.0,0.0,0.0,0.0,0.0,0.0,0.0,0.0,0.0,0.0,0.0,0.0,0.0,0.0,0.0,0.0,0.0,0.0,0.0,0.0,0.0,0.0,0.0,0.0,0.0,0.0,0.0,0.0,0.0,0.0,0.0,0.0,0.0,0.0,0.0,0.0,0.0,0.0,0.0,0.0,0.0,0.0,0.0,0.0,0.0,0.0,0.0,0.0,0.0,0.0,0.0,0.0,0.0,0.0,0.0,0.0,0.0,0.0,0.0,0.0,0.0,0.0,0.0,0.0,0.0,0.0,0.0,0.0,0.0,0.0,0.0,0.0,0.0,0.0,0.0,0.0,0.0,0.0,0.0,0.0,0.0,0.0,0.0,0.0,0.0,0.0,0.0,0.0,0.0,0.0,0.0,0.0,0.0,0.0,0.0,0.0,0.0,-0.8826,-0.9372,-0.9479,-0.8875,-0.8815,-0.8297,-0.7017,-0.6341,-0.5907,-0.5705,0.0,0.0,0.0,0.0,0.0,0.0,0.0,0.0,0.0,0.0,0.0,0.0,0.0,0.0,0.0,0.0,0.0,0.0,0.0,0.0,0.0,0.0,0.0,0.0,0.0,0.0,0.0,0.0,0.0,0.0,0.0,0.0,0.0,0.0,0.0,0.0,0.0,0.0,0.0,0.0,0.0,0.0,0.0,0.0,0.0,0.0,0.0,0.0,0.0,0.0,0.0,0.0,0.0,0.0,0.0,0.0,0.0,0.0,0.0,0.0,-0.8022,-0.8361,0.0,0.0,0.0,0.0,0.0,0.0,0.0,0.0,0.0,0.0,0.0,0.0,0.0,0.0,0.0,0.0,0.0,0.0,0.0,0.0,0.0,0.0,0.0,0.0,0.0,0.0,0.0,0.0,0.0,0.0,0.0,0.0,0.0,0.0,0.0,0.0,0.0,0.0,0.0,0.0,-0.8182,-0.8281,-0.8274,-0.8124,-0.8109,-0.7779,-0.6966,-0.6771,-0.6398,-0.574,-0.5211,0.0,0.0,0.0,0.0,0.0,0.0,0.0,0.0,0.0,0.0,0.0,0.0,0.0,0.0,0.0,0.0,0.0,0.0,0.0,0.0,0.0,0.0,0.0,0.0,0.0,0.0,0.0,0.0,0.0,0.0,0.0,0.0,0.0,0.0,0.0,0.0,0.0,0.0,0.0,0.0,0.0,0.0,0.0,0.0,0.0,0.0,0.0,0.0,0.0,0.0,0.0,0.0,0.0,0.0,0.0,0.0,0.0,0.0,0.0,-0.9227,-0.9011,0.0,0.0,0.0,0.0,0.0,0.0,0.0,0.0,0.0,0.0,0.0,0.0,0.0,0.0,0.0,0.0,0.0,0.0,0.0,0.0,0.0,0.0,0.0,0.0,0.0,0.0,0.0,0.0,0.0,0.0,0.0,0.0,0.0,0.0,0.0,0.0,0.0,0.0,0.0,0.0,-0.7956,-0.7928,-0.7899,-0.7899,-0.7899,-0.7623,-0.6951,-0.6906,-0.6564,-0.5799,-0.5423,0.0,0.0,0.0,0.0,0.0,0.0,0.0,0.0,0.0,0.0,0.0,0.0,0.0,0.0,0.0,0.0,0.0,0.0,0.0,0.0,0.0,0.0,0.0,0.0,0.0,0.0,0.0,0.0,0.0,0.0,0.0,0.0,0.0,0.0,0.0,0.0,0.0,0.0,0.0,0.0,0.0,0.0,0.0,0.0,0.0,0.0,0.0,0.0,0.0,0.0,0.0,0.0,0.0,-1.1061,-1.1737,-1.2582,-1.2009,-1.2342,-1.3211,-1.0813,-1.0151,-1.0708,-0.9888,0.0,0.0,0.0,0.0,0.0,0.0,0.0,0.0,0.0,0.0,0.0,0.0,0.0,0.0,0.0,0.0,0.0,0.0,0.0,0.0,0.0,0.0,-0.9881,-0.921,-0.9494,-0.9441,-0.778,0.0,0.0,0.0,0.0,0.0,0.0,0.0,0.0,0.0,0.0,0.0,-0.8063,-0.8071,-0.8064,-0.8064,-0.8064,-0.7764,-0.6966,-0.7017,-0.6717,-0.5876,-0.5923,-0.5579,0.0,0.0,0.0,0.0,0.0,0.0,0.0,0.0,0.0,0.0,0.0,0.0,0.0,0.0,0.0,0.0,0.0,0.0,0.0,0.0,0.0,0.0,0.0,0.0,0.0,0.0,0.0,0.0,0.0,0.0,0.0,0.0,-0.691,-0.797,0.0,0.0,0.0,0.0,0.0,0.0,0.0,0.0,0.0,0.0,0.0,0.0,0.0,-1.0387,-1.0386,-1.1612,-1.2211,-1.2211,-1.2334,-1.2458,-1.2609,-1.2742,-1.2771,-1.2678,-1.1962,0.0,-1.2923,-1.0972,0.0,0.0,0.0,0.0,0.0,0.0,0.0,0.0,0.0,0.0,0.0,0.0,0.0,0.0,0.0,0.0,0.0,0.0,0.0,0.0,0.0,0.0,-1.0446,-0.9832,-0.9794,-0.983,-0.9561,-0.8596,-0.7944,-0.8522,-0.7697,-0.709,0.0,0.0,0.0,0.0,0.0,0.0,-0.8702,-0.877,-0.877,-0.877,-0.877,-0.8267,-0.7002,-0.7443,-0.7227,-0.5967,-0.6371,-0.6094,-0.4824,-0.467,0.0,0.0,0.0,0.0,0.0,0.0,0.0,0.0,0.0,0.0,0.0,0.0,0.0,0.0,0.0,0.0,0.0,0.0,0.0,0.0,0.0,0.0,0.0,0.0,0.0,0.0,0.0,0.0,0.0,-0.7305,-0.7722,-0.8587,-0.8234,-0.8205,0.0,0.0,0.0,0.0,0.0,0.0,0.0,0.0,0.0,-1.1076,-1.15,-1.1629,-1.1442,-1.27,-1.3503,-1.3848,-1.4181,-1.4442,-1.4623,-1.4743,-1.4728,-1.4623,-1.4842,-1.4963,-1.4834,-1.2336,-1.1956,-1.283,0.0,0.0,0.0,0.0,-1.2095,-1.1829,-1.2381,-1.242,-1.2083,-1.1168,0.0,0.0,0.0,0.0,0.0,0.0,0.0,-1.1674,-1.1263,-1.1759,-1.2226,-1.1577,-1.1478,-1.1531,-1.1531,-1.0483,-0.9516,-0.9473,-0.9261,-0.8842,-0.8034,-0.8214,0.0,0.0,0.0,-0.8567,-0.886,-0.9227,-0.9458,-0.9458,-0.9122,-0.8664,-0.8064,-0.7944,-0.7652,-0.7062,-0.6878,-0.6539,-0.5947,-0.5075,-0.4655,0.0,0.0,0.0,0.0,0.0,0.0,0.0,0.0,0.0,0.0,0.0,0.0,0.0,0.0,0.0,0.0,0.0,0.0,0.0,0.0,0.0,0.0,0.0,0.0,0.0,0.0,0.0,0.0,-0.848,-0.8601,-0.9357,-0.9327,-0.9358,0.0,0.0,0.0,0.0,0.0,0.0,-1.2155,-1.2121,-1.2305,-1.2842,-1.2983,-1.3011,-1.2921,-1.377,-1.4509,-1.5101,-1.5428,-1.5729,-1.5965,-1.5965,-1.6037,-1.6227,-1.6559,-1.6634,-1.6269,-1.3898,-1.3357,-1.3956,-1.3143,-1.2844,-1.293,-1.3565,-1.3493,-1.3176,-1.3895,-1.3965,-1.3508,-1.2308,-1.2069,-1.2048,-1.0992,0.0,0.0,0.0,0.0,-1.2746,-1.2375,-1.2844,-1.3272,-1.2784,-1.2591,-1.2512,-1.2534,-1.1895,-1.1077,-1.0279,-1.0374,-1.0105,-0.8656,-0.8829,0.0,-0.7825,-0.8514,-0.9152,-0.9152,-0.9584,-0.989,-0.989,-0.9458,-0.9077,-0.892,-0.8447,-0.8079,-0.7914,-0.7387,-0.7005,-0.6842,-0.576,-0.5262,-0.5465,0.0,0.0,0.0,0.0,0.0,0.0,0.0,0.0,0.0,0.0,0.0,0.0,0.0,0.0,0.0,0.0,0.0,0.0,0.0,0.0,0.0,0.0,0.0,0.0,0.0,0.0,0.0,0.0,0.0,-1.0494,-1.0717,0.0,0.0,0.0,0.0,-1.218,-1.1643,-1.1763,-1.2801,-1.2609,-1.2884,-1.3798,-1.4311,-1.4767,-1.5127,-1.507,-1.525,-1.5672,-1.5433,-1.5326,-1.5341,-1.5341,-1.566,-1.6169,-1.5617,-1.6052,-1.7055,-1.5689,-1.4848,-1.4309,-1.3692,-1.348,-1.362,-1.4159,-1.4337,-1.4322,-1.4282,-1.4283,-1.4253,-1.4181,-1.4194,-1.4133,-1.35,-1.3376,0.0,0.0,-1.3867,-1.356,-1.4035,-1.3364,-1.2565,-1.2597,-1.2166,-1.1759,-1.1839,-1.2295,-1.231,-1.1017,-1.0314,-0.9905,-0.9815,0.0,-0.9824,-0.9755,-0.98,-0.9854,-0.9854,-0.9875,-0.989,-0.989,-0.986,-0.9584,-0.895,-0.8875,-0.8574,-0.7944,-0.7862,-0.7556,-0.6921,-0.6762,-0.6109,-0.4872,-0.5146,0.0,0.0,0.0,0.0,0.0,0.0,0.0,0.0,0.0,0.0,0.0,0.0,0.0,0.0,0.0,0.0,0.0,0.0,0.0,0.0,0.0,0.0,0.0,0.0,0.0,0.0,0.0,0.0,-1.2025,-1.1842,0.0,-1.2058,-1.2279,-1.2545,-1.2923,-1.3186,-1.363,-1.4342,-1.4899,-1.5364,-1.5689,-1.525,-1.5404,-1.6197,-1.5933,-1.609,-1.6654,-1.6568,-1.63,-1.5879,-1.5879,-1.601,-1.6213,-1.6429,-1.6547,-1.6532,-1.6082,-1.601,-1.6186,-1.5984,-1.5897,-1.5942,-1.6128,-1.5939,-1.5546,-1.5531,-1.5269,-1.4877,-1.4442,-1.4049,-1.3799,-1.396,-1.4032,-1.4192,-1.4805,-1.4819,-1.4703,-1.4892,-1.4659,-1.4365,-1.4392,-1.3638,-1.2932,-1.3019,-1.2525,-1.2089,-1.2089,-1.1905,-1.1486,-1.0628,-1.0479,-1.0344,-0.995,-1.0224,-1.0479,-1.0479,-1.0479,-1.0643,-1.1072,-1.0383,-0.9965,-1.0114,-0.9368,-0.88,-0.8552,-0.8147,-0.7794,-0.7548,-0.665,-0.5932,-0.5456,-0.4742,-0.4132,0.0,0.0,0.0,0.0,0.0,0.0,0.0,0.0,0.0,0.0,0.0,0.0,0.0,0.0,0.0,0.0,0.0,0.0,0.0,0.0,0.0,0.0,0.0,0.0,0.0,-1.1613,-1.2047,-1.3008,-1.3097,-1.3142,-1.3296,-1.3576,-1.3832,-1.4035,-1.4493,-1.4985,-1.5434,-1.6328,-1.6926,-1.7203,-1.6627,-1.6693,-1.7505,-1.6934,-1.6926,-1.7534,-1.7316,-1.6982,-1.6547,-1.6547,-1.6663,-1.6909,-1.7345,-1.7403,-1.7185,-1.7185,-1.733,-1.749,-1.7038,-1.6849,-1.6895,-1.7127,-1.6924,-1.6518,-1.6285,-1.5936,-1.5502,-1.4848,-1.4369,-1.4122,-1.4529,-1.4631,-1.4732,-1.5167,-1.5298,-1.5298,-1.5298,-1.5169,-1.5038,-1.5052,-1.4289,-1.3519,-1.3361,-1.2633,-1.2093,-1.2369,-1.2628,-1.2594,-1.1929,-1.1615,-1.1416,-1.1236,-1.1166,-1.1136,-1.1136,-1.0932,-1.0962,-1.1431,-1.0713,-1.0374,-1.0768,-1.0024,-0.9353,-0.892,-0.8477,-0.8147,-0.7914,-0.7008,-0.6407,-0.6173,-0.5184,-0.4651,-0.4607,0.0,0.0,0.0,0.0,0.0,0.0,0.0,0.0,0.0,0.0,0.0,0.0,0.0,0.0,0.0,0.0,0.0,0.0,0.0,0.0,0.0,0.0,0.0,-1.1573,-1.2493,-1.3289,-1.3448,-1.448,-1.4917,-1.4229,-1.5383,-1.601,-1.5588,-1.5567,-1.5716,-1.6046,-1.6685,-1.7404,-1.8194,-1.8394,-1.8693,-1.913,-1.8072,-1.777,-1.8259,-1.7592,-1.7258,-1.7258,-1.7229,-1.7577,-1.8201,-1.8187,-1.8506,-1.9043,-1.9043,-1.8695,-1.8042,-1.6779,-1.6285,-1.6327,-1.7011,-1.7258,-1.7142,-1.6458,-1.6226,-1.6124,-1.5544,-1.5356,-1.5356,-1.5327,-1.5327,-1.5312,-1.5313,-1.5298,-1.5298,-1.5298,-1.4819,-1.434,-1.4411,-1.397,-1.3366,-1.2773,-1.2638,-1.2456,-1.1885,-1.2339,-1.3029,-1.366,-1.3253,-1.3059,-1.3692,-1.2691,0.0,-1.1835,-1.1241,-1.0842,-1.0857,-1.0842,-1.0842,-1.0857,-1.0842,-1.0294,-0.901,-0.8905,-0.8604,-0.7929,-0.7884,-0.7548,-0.6876,-0.6549,-0.6387,-0.6415,0.0,0.0,0.0,0.0,0.0,0.0,0.0,0.0,0.0,0.0,0.0,0.0,0.0,0.0,0.0,0.0,0.0,0.0,0.0,0.0,0.0,-1.2181,-1.3048,-1.3268,-1.3728,-1.4311,-1.4986,-1.4855,-1.4831,-1.5233,-1.5699,-1.6136,-1.6485,-1.6782,-1.7199,-1.7795,-1.799,-1.8318,-1.8836,-1.8204,-1.847,-1.9812,-1.8817,-1.8731,-1.958,-1.8898,-1.8579,-1.855,-1.7621,-1.7577,-1.8169,-1.7693,-1.7577,-1.7722,-1.7722,-1.7621,-1.7534,-1.8085,-1.8042,-1.7737,-1.8361,-1.8303,-1.7838,-1.7171,-1.6938,-1.6909,-1.6735,-1.6692,-1.659,-1.6111,-1.595,-1.5849,-1.5414,-1.5298,-1.5298,-1.5298,-1.5153,-1.5022,-1.5052,-1.4543,-1.4061,-1.3981,-1.3624,-1.3291,-1.3237,-1.3393,-1.3436,-1.3133,-1.3328,-1.36,-1.3767,-1.3496,-1.3077,-1.2594,-1.1939,-1.1715,-1.2205,-1.182,-1.1715,-1.222,-1.1805,-1.0982,-0.9704,-0.9167,-0.8604,-0.7929,-0.7428,-0.6861,-0.6192,-0.6076,-0.6275,0.0,0.0,0.0,0.0,0.0,0.0,0.0,0.0,0.0,0.0,0.0,0.0,0.0,0.0,0.0,0.0,0.0,0.0,0.0,0.0,0.0,0.0,-1.297,-1.3834,-1.4349,-1.4542,-1.4898,-1.5574,-1.5311,-1.5339,-1.6088,-1.6225,-1.65,-1.7029,-1.7681,-1.826,-1.8727,-1.9107,-1.9484,-1.988,-1.9334,-1.9487,-2.0465,-1.9651,-1.9516,-2.0088,-1.942,-1.9101,-1.9072,-1.8332,-1.8216,-1.8564,-1.8172,-1.7998,-1.7998,-1.7998,-1.7853,-1.7693,0.0,0.0,0.0,0.0,-1.8883,-1.8491,-1.7853,-1.7621,-1.756,-1.7301,-1.72,-1.7127,-1.675,-1.6634,-1.6503,-1.5849,-1.5675,-1.5617,-1.537,-1.5298,-1.5298,-1.5298,-1.4993,-1.466,-1.4468,-1.4145,-1.3847,-1.3701,-1.3905,0.0,-1.3257,-1.3503,-1.3902,-1.4184,-1.3989,-1.3765,-1.3658,-1.2804,-1.237,-1.2771,-1.2205,-1.1954,-1.2355,-1.2014,0.0,0.0,0.0,-0.9278,-0.8357,-0.7667,0.0,0.0,0.0,0.0,0.0,0.0,0.0,0.0,-0.5874,-0.5283,0.0,0.0,0.0,0.0,0.0,0.0,0.0,0.0,0.0,0.0,0.0,0.0,0.0,0.0,0.0,0.0,-1.3836,-1.4546,-1.5025,-1.5145,-1.5305,-1.5629,-1.5773,-1.6134,-1.6842,-1.6884,-1.7024,-1.7468,-1.8317,-1.8924,-1.9176,-1.9915,0.0,0.0,0.0,-2.1003,-2.1003,-2.0465,-2.0204,-2.019,-1.9537,-1.9246,-1.9304,-1.9174,-1.9145,-1.9217,-1.913,-1.9101,-1.9101,-1.9101,-1.8782,-1.8303,-1.823,-1.8245,-1.8375,-1.8898,-1.9101,-1.9029,-1.8491,0.0,0.0,-1.7621,-1.7417,-1.7403,-1.7345,-1.7316,-1.7168,-1.6503,-1.6314,-1.6198,-1.5646,-1.5457,-1.5399,-1.5399,-1.5341,-1.5138,-1.4544,-1.4413,-1.4252,-1.372,-1.4099,-1.4318,-1.3694,-1.3753,-1.4068,-1.4589,-1.4217,-1.4083,-1.4604,-1.3692,-1.299,-1.299,-1.2455,0.0,-1.2007,-1.2018,-1.1649,-1.0832,-1.0738,-1.0189,-0.907,-0.8439,-0.8409,-0.901,-0.8779,-0.8979,-0.9629,-0.9574,-0.9224,-0.8605,-0.7883,-0.6892,0.0,0.0,0.0,0.0,0.0,0.0,0.0,0.0,0.0,0.0,0.0,0.0,0.0,0.0,0.0,-1.3876,-1.4518,-1.5037,-1.5564,-1.603,-1.6262,-1.617,-1.6198,-1.6585,-1.7578,-1.7437,-1.7661,-1.8586,-1.8843,-1.9186,-1.9712,-1.9966,-2.0302,-2.0822,-2.0926,-2.1003,-2.1003,-2.0886,-2.0828,-2.0814,-2.0204,0.0,-2.0596,-1.9566,-1.9406,-1.9885,-1.9333,-1.9101,-1.9101,-1.9101,-1.9029,-1.8883,-1.839,-1.8506,-1.8941,-1.9058,-1.9101,-1.9087,-1.897,-1.8927,-1.8912,-1.8782,-1.8738,-1.8637,-1.8158,-1.8013,0.0,-1.72,-1.7011,-1.6982,-1.6849,-1.6429,-1.6023,-1.6023,-1.5646,-1.5284,-1.5198,-1.5184,-1.5008,-1.4406,-1.4405,-1.4316,-1.3694,-1.4058,-1.4307,-1.3894,-1.4188,-1.4292,-1.3879,-1.403,-1.4166,-1.4166,-1.4062,-1.3781,-1.3289,-1.3295,-1.2591,-1.0832,-1.0301,-0.9965,-0.9719,-0.9584,-0.9569,-0.9704,-0.966,-0.9701,-0.9839,-0.9835,-0.9673,-0.9379,-0.8745,-0.7999,0.0,0.0,0.0,0.0,0.0,0.0,0.0,0.0,0.0,0.0,0.0,-1.1837,-1.2902,0.0,-1.4213,-1.5293,-1.5646,-1.5984,-1.6535,-1.6964,-1.7056,-1.6518,-1.6689,-1.705,-1.7588,-1.7739,-1.7979,-1.8423,-1.9089,-1.9733,-2.0264,-2.0747,-2.1265,-2.1831,-2.1613,-2.1496,-2.1496,-2.0857,-2.0553,-2.0538,-1.9899,-1.9754,-2.003,-1.9391,-1.9275,-1.958,-1.9246,-1.9101,-1.9101,-1.9101,-1.9101,-1.9072,-1.8767,-1.884,-1.9101,-1.9101,-1.9101,-1.9101,-1.9101,-1.9101,-1.9101,-1.9101,-1.9101,-1.9043,-1.8738,-1.8651,-1.8521,-1.7882,-1.7708,-1.7621,-1.7301,-1.6936,-1.6619,-1.6285,-1.5965,-1.5676,-1.5402,-1.5344,-1.5256,-1.495,-1.4906,-1.4702,-1.4072,-1.4232,-1.4376,-1.4175,-1.4439,-1.4541,-1.4241,-1.3873,-1.3638,-1.3638,-1.3356,-1.3164,-1.3201,-1.35,-1.3141,-1.1836,-1.1145,-1.0663,-1.0359,-1.0054,-0.989,-0.989,-0.989,-1.0021,-1.0296,-1.0325,-1.0445,-1.0643,-1.0377,-0.9649,0.0,0.0,0.0,0.0,0.0,0.0,0.0,-1.0663,-1.1099,-1.2253,-1.2842,-1.3414,-1.4289,-1.4923,-1.5588,-1.6463,-1.6691,-1.6907,-1.7327,-1.763,-1.7543,-1.6846,-1.7183,-1.7509,-1.7509,-1.8004,-1.8295,-1.8227,-1.9344,-2.0168,-2.0509,-2.1362,-2.21,-2.2684,-2.2329,-2.2077,-2.1989,-2.0973,-2.0407,-2.0262,-1.9725,-1.9464,-1.9464,-1.9464,-1.9464,-1.9464,-1.9464,-1.9464,-1.9464,-1.9464,-1.9406,-1.929,-1.929,-1.929,-1.929,-1.929,-1.9362,-1.9449,-1.9333,-1.929,-1.9275,-1.9145,-1.9101,-1.9101,-1.9101,-1.9101,-1.8999,-1.8521,-1.8357,-1.8259,-1.7722,-1.749,-1.7258,-1.6721,-1.6401,-1.6082,-1.5573,-1.537,-1.5298,-1.5298,-1.5298,-1.5124,-1.4587,-1.4486,-1.4484,-1.4442,-1.4543,-1.4646,-1.4701,-1.3763,-1.3094,-1.3094,-1.2499,-1.2275,-1.2701,-1.3084,-1.3144,-1.2772,-1.2197,-1.1715,-1.1363,-1.0882,-1.0623,-1.0633,-1.0633,-1.0842,-1.1281,-1.1349,-1.1606,-1.2067,-1.2123,-1.1391,-1.283,-1.1873,-1.1367,-1.2065,-1.1632,-1.1604,0.0,-1.3365,-1.2842,-1.4341,-1.4701,-1.4773,-1.4893,-1.5732,-1.6463,-1.6583,-1.6991,-1.7315,-1.7375,-1.7436,-1.7412,-1.7327,-1.7641,-1.787,-1.7941,-1.8424,-1.8933,-1.9367,-1.9902,-2.0105,-1.9902,-2.0781,-2.1479,-2.1926,-2.2323,-2.2355,-2.2004,-2.1859,-2.1481,-2.0901,-2.0814,-2.0785,-2.0785,-2.0785,-2.0785,-2.0785,-2.0785,-2.0785,-2.0785,-2.0785,-2.0465,-1.9986,-1.9986,-1.9986,-1.9986,-1.9986,-2.032,-2.0712,-2.0175,-1.9986,-1.9885,-1.929,-1.9101,-1.9101,-1.9101,-1.9101,-1.9087,-1.9029,-1.8999,-1.8985,-1.8912,-1.8491,-1.8071,-1.7998,-1.7069,-1.6184,-1.6111,-1.5675,-1.5298,-1.5298,-1.5298,-1.5269,-1.5196,-1.5182,-1.4805,-1.371,-1.3989,-1.4353,-1.4353,-1.4222,-1.4135,-1.4135,-1.3581,-1.3023,-1.2578,-1.2103,-1.2064,-1.2588,-1.2532,-1.2736,-1.3262,-1.3218,-1.3213,-1.3275,-1.3275,-1.3292,-1.3366,-1.3366,-1.3371,-1.3395,-1.3395,-1.2734,-1.4241,-1.3713,-1.3257,-1.2812,-1.2824,-1.318,-1.3949,-1.3872,-1.3968,-1.5214,-1.5468,-1.5648,-1.6283,-1.6511,-1.6799,-1.7423,-1.7724,-1.7977,-1.8289,-1.8061,-1.776,-1.7423,-1.7509,-1.7727,-1.808,-1.8536,-1.8919,-1.924,-1.9849,-2.0118,-1.9927,-2.0522,-2.1104,-2.1688,-2.1597,-2.1623,-2.1772,-2.1448,-2.1201,-2.1003,-2.1003,-2.1003,-2.1003,-2.1003,-2.1003,-2.1003,-2.1003,-2.1003,-2.1003,-2.1003,-2.0843,-2.0625,-2.0625,-2.0857,-2.1119,-2.0364,-2.048,-2.0959,-2.0712,-2.0625,-2.0582,-2.0291,-2.0204,-2.0132,-1.9783,-1.9682,-1.9595,-1.9217,-1.9101,-1.9101,-1.9101,-1.8912,-1.8637,-1.8288,-1.778,-1.7258,-1.688,-1.6285,-1.582,-1.582,-1.553,-1.5298,-1.5298,-1.5298,-1.5109,-1.4601,-1.4427,-1.4367,-1.4409,-1.4101,-1.3895,-1.3895,-1.366,-1.3409,-1.3157,-1.2866,-1.2675,-1.2609,-1.2922,-1.3084,-1.3018,-1.3384,-1.3616,-1.3642,-1.3642,-1.3616,-1.3578,-1.3616,-1.3616,-1.3552,-1.3578,-1.3334,-1.4986,-1.4806,-1.4565,-1.3576,-1.3932,-1.4462,-1.4377,-1.4654,-1.5148,-1.5874,-1.6151,-1.6403,-1.6871,-1.6883,-1.7063,-1.7857,-1.8109,-1.8386,-1.8915,-1.841,-1.7845,-1.746,-1.7135,-1.7159,-1.7712,-1.84,-1.8782,-1.8773,-1.9555,-1.9991,-1.9901,-2.0258,-2.0747,-2.1313,-2.1164,-2.1268,-2.1645,-2.1412,-2.1355,-2.1497,-2.1518,-2.1504,-2.1504,-2.1504,-2.1504,-2.1504,-2.1504,-2.1504,-2.1504,-2.1504,-2.1438,-2.1278,-2.1278,-2.1569,-2.1888,-2.0959,-2.1017,-2.1511,-2.1336,-2.1278,-2.1249,-2.1061,-2.1003,-2.0915,-2.048,-2.0233,-2.0001,-1.9508,-1.9246,-1.9101,-1.9101,-1.9101,-1.8985,-1.855,-1.8332,-1.8071,-1.7592,-1.6953,-1.6488,-1.6488,-1.6126,-1.5762,-1.5573,-1.5544,-1.5486,-1.5327,-1.4936,-1.4673,-1.4701,-1.4173,-1.373,-1.3567,-1.3552,-1.3552,-1.3552,-1.3498,-1.3295,-1.2851,-1.3236,-1.328,-1.2836,-1.3438,-1.3816,-1.3844,-1.4006,-1.4081,-1.4013,-1.4081,-1.4068,-1.3987,-1.385,-1.3816,-1.4602,-1.4313,-1.4434,-1.4842,-1.4965,-1.5241,-1.6271,-1.6523,-1.6547,-1.6571,-1.6991,-1.7039,-1.602,-1.6691,-1.74,-1.7436,-1.7869,-1.8386,-1.8915,-1.8097,-1.7436,-1.7387,-1.6487,-1.6066,-1.6607,-1.7958,-1.8634,-1.8243,-1.9087,-1.9617,-1.9617,-1.9991,-2.0346,-2.061,-2.1358,-2.1779,-2.1789,-2.2291,-2.2618,-2.2752,-2.2799,-2.2844,-2.2844,-2.2844,-2.2844,-2.2844,-2.2844,-2.2844,-2.2844,-2.2844,-2.2504,-2.196,-2.196,-2.1975,-2.1989,-2.196,-2.2316,-2.2765,-2.2178,-2.196,-2.1859,-2.1206,-2.1003,-2.1003,-2.0973,-2.0553,-2.0103,-2.0074,-1.9595,-1.9101,-1.9101,-1.9101,-1.9101,-1.9087,-1.8637,-1.8201,-1.8169,-1.765,-1.7171,-1.7171,-1.7139,-1.6938,-1.6269,-1.6168,-1.5965,-1.5385,-1.5269,-1.5269,-1.5284,-1.4703,-1.405,-1.348,-1.3407,-1.3407,-1.3407,-1.3394,-1.3407,-1.3378,-1.3393,-1.3393,-1.3378,-1.3962,-1.4353,-1.4466,-1.5052,-1.5345,-1.5345,-1.5345,-1.5315,-1.5225,-1.4587,-1.4353,-1.5211,-1.5307,-1.5406,-1.5934,-1.6331,-1.6595,-1.6607,-1.6871,-1.7027,-1.6667,-1.6739,-1.6763,-1.6403,-1.6631,-1.6979,-1.7327,-1.7857,-1.8386,-1.8915,-1.8386,-1.7941,-1.7941,-1.7291,-1.6787,-1.6619,-1.7037,-1.7593,-1.8145,-1.8744,-1.9104,-1.9212,-1.9578,-1.9837,-1.9939,-2.0535,-2.108,-2.1544,-2.2067,-2.2454,-2.2675,-2.2684,-2.2743,-2.2826,-2.2826,-2.2872,-2.2888,-2.2888,-2.2888,-2.2888,-2.2888,-2.2772,-2.2606,-2.2606,-2.2606,-2.2606,-2.2606,-2.2736,-2.2859,-2.2678,-2.2606,-2.2562,-2.233,-2.2258,-2.2185,-2.1786,-2.1511,-2.1264,-2.0814,-2.0524,-2.0262,-1.987,-1.9769,-1.9653,-1.9217,-1.8941,-1.8796,-1.8796,-1.8317,-1.785,-1.785,-1.7505,-1.7142,-1.6909,-1.6849,-1.6632,-1.5979,-1.5559,-1.5298,-1.5298,-1.5095,-1.4892,-1.4674,-1.4253,-1.3992,-1.3992,-1.3641,-1.3394,-1.3394,-1.3773,-1.3992,-1.3992,-1.4616,-1.4979,-1.5023,-1.5227,-1.5328,-1.5328,-1.5328,-1.5313,-1.5298,-1.5066,-1.4993,-1.5622,-1.5946,-1.6271,-1.6991,-1.7279,-1.7399,-1.746,-1.7436,-1.7243,-1.6715,-1.6607,-1.6487,-1.6102,-1.6164,-1.6559,-1.7267,-1.77,-1.8169,-1.8891,-1.853,-1.8205,-1.8205,-1.7736,-1.7255,-1.6919,-1.6883,-1.7159,-1.7869,-1.8519,-1.8962,-1.92,-1.946,-1.9617,-1.9617,-2.0207,-2.0635,-2.0833,-2.1492,-2.1983,-2.2254,-2.2301,-2.2544,-2.2973,-2.3019,-2.3112,-2.319,-2.319,-2.3082,-2.2888,-2.2888,-2.288,-2.2872,-2.2902,-2.288,-2.2872,-2.2902,-2.2888,-2.2888,-2.2888,-2.2888,-2.2888,-2.2888,-2.2888,-2.2815,-2.2432,-2.2178,-2.1902,-2.1481,-2.1177,-2.0901,-2.0524,-2.0422,-2.0262,-1.9609,-1.9464,-1.9391,-1.9159,-1.8796,-1.8521,-1.8521,-1.8172,-1.7824,-1.7592,-1.7359,-1.7038,-1.6634,-1.6024,-1.5544,-1.5327,-1.5298,-1.5298,-1.5298,-1.4906,-1.466,-1.466,-1.4297,-1.3977,-1.3744,-1.4094,-1.4196,-1.3992,-1.4602,-1.4935,-1.4935,-1.5182,-1.5298,-1.5298,-1.5298,-1.5298,-1.5283,-1.5051,-1.4935,-1.5888,-1.6307,-1.6931,-1.7989,-1.7845,-1.7712,-1.8686,-1.8097,-1.7159,-1.6631,-1.6499,-1.6163,-1.5121,-1.5372,-1.608,-1.7111,-1.7364,-1.7748,-1.8806,-1.8542,-1.8241,-1.8241,-1.7796,-1.7459,-1.7423,-1.7484,-1.7459,-1.7423,-1.8386,-1.9148,-1.9565,-1.9565,-1.9565,-1.9565,-2.0334,-2.0434,-1.9798,-2.0721,-2.1323,-2.1592,-2.1722,-2.2303,-2.3291,-2.3407,-2.3555,-2.3731,-2.3702,-2.3403,-2.2923,-2.2946,-2.29,-2.2809,-2.288,-2.2872,-2.2818,-2.288,-2.2888,-2.2888,-2.2888,-2.2888,-2.2888,-2.2888,-2.2888,-2.2888,-2.2888,-2.2504,-2.2048,-2.2048,-2.1583,-2.109,-2.1061,-2.1046,-2.0901,-2.0291,-2.0117,-1.9928,-1.929,-1.9116,-1.9101,-1.9101,-1.9101,-1.8927,-1.8346,-1.7693,-1.7241,-1.7241,-1.6692,-1.6023,-1.5414,-1.5312,-1.5298,-1.5298,-1.5298,-1.5298,-1.5298,-1.5298,-1.5022,-1.4384,-1.4355,-1.4094,-1.3525,-1.405,-1.4355,-1.4355,-1.4979,-1.5298,-1.5298,-1.5298,-1.5298,-1.5283,-1.4645,-1.4355,-1.7255,-1.77,-1.7953,-1.8626,-1.8386,-1.7965,-1.7845,-1.6979,-1.6066,-1.5516,-1.5127,-1.4666,-1.4004,-1.4602,-1.5301,-1.5564,-1.6619,-1.764,-1.8313,-1.8626,-1.8794,-1.8794,-1.8674,-1.8434,-1.8037,-1.8362,-1.8422,-1.8037,-1.8253,-1.863,-1.9121,-1.9146,-1.9146,-1.9146,-1.963,-1.9862,-1.9798,-2.0421,-2.0932,-2.1302,-2.1447,-2.2087,-2.3132,-2.281,-2.3226,-2.4204,-2.3746,-2.3469,-2.3349,-2.3457,-2.3221,-2.2809,-2.288,-2.2902,-2.288,-2.2888,-2.2888,-2.2888,-2.2888,-2.2888,-2.2888,-2.2888,-2.2888,-2.2888,-2.2888,-2.2786,-2.2678,-2.2678,-2.2562,-2.2316,-2.1859,-2.1743,-2.1569,-2.093,-2.0422,-2.0059,-1.9885,-1.9449,-1.9101,-1.9101,-1.9101,-1.9058,-1.8898,-1.8361,-1.7954,-1.7954,-1.7357,-1.6721,-1.6037,-1.5573,-1.5298,-1.5298,-1.5298,-1.5298,-1.5298,-1.5298,-1.5225,-1.5051,-1.5051,-1.4979,-1.4819,-1.495,-1.5051,-1.5051,-1.5211,-1.5298,-1.5298,-1.5298,-1.5298,-1.5298,-1.5124,-1.5051,-1.7953,-1.8374,-1.8566,-1.8626,-1.8253,-1.7772,-1.7459,-1.6571,-1.5648,-1.5121,-1.4794,-1.4389,-1.3638,-1.4313,-1.5157,-1.5624,-1.6655,-1.7676,-1.8434,-1.8806,-1.8987,-1.8987,-1.8987,-1.8867,-1.8578,-1.8819,-1.8963,-1.8903,-1.8686,-1.8782,-1.9338,-1.9336,-1.9456,-1.9696,-1.9861,-1.9991,-2.007,-2.0189,-2.0681,-2.151,-2.1445,-2.2072,-2.3298,-2.2891,-2.3263,-2.421,-2.3926,-2.3653,-2.3416,-2.356,-2.3211,-2.2629,-2.2729,-2.2729,-2.2684,-2.2752,-2.2812,-2.2849,-2.2849,-2.3068,-2.3287,-2.2989,-2.2888,-2.2888,-2.2888,-2.2888,-2.2888,-2.2888,-2.2888,-2.2815,-2.2475,-2.2388,-2.2214,-2.1583,-2.1177,-2.0843,-2.0553,-2.0204,-1.9856,-1.9595,-1.9304,-1.9101,-1.9101,-1.8825,-1.8593,-1.8593,-1.8056,-1.7505,-1.7127,-1.6271,-1.5689,-1.5689,-1.5457,-1.5298,-1.5298,-1.5298,-1.5298,-1.5298,-1.5298,-1.5298,-1.5298,-1.5298,-1.5298,-1.5298,-1.5298,-1.5298,-1.5298,-1.5298,-1.5298,-1.5298,-1.5298,-1.5298,-1.8289,-1.865,-1.8867,-1.8338,-1.7808,-1.7375,-1.7303,-1.6415,-1.5478,-1.4989,-1.4785,-1.4409,-1.345,-1.4129,-1.5142,-1.6126,-1.6847,-1.7676,-1.8734,-1.8977,-1.8987,-1.8987,-1.8987,-1.8987,-1.8987,-1.9047,-1.9314,-1.9772,-1.9447,-1.9408,-1.988,-1.9916,-2.0081,-2.049,-2.0382,-2.0316,-2.0316,-1.9961,-2.0477,-2.1788,-2.1539,-2.2125,-2.3505,-2.3134,-2.3396,-2.4109,-2.4164,-2.392,-2.3501,-2.3572,-2.3226,-2.2635,-2.2689,-2.266,-2.2568,-2.2683,-2.279,-2.2887,-2.2887,-2.336,-2.3844,-2.312,-2.2946,-2.3026,-2.2917,-2.2888,-2.2888,-2.2888,-2.2888,-2.2888,-2.2888,-2.2888,-2.2757,-2.2251,-2.2062,-2.1844,-2.1249,-2.1061,-2.0843,-2.032,-1.9754,-1.9333,-1.9246,-1.9232,-1.9203,-1.9116,-1.8651,-1.8332,-1.8332,-1.7171,-1.6327,-1.6327,-1.5849,-1.5544,-1.5544,-1.5544,-1.5501,-1.5428,-1.5414,-1.537,-1.5298,-1.5298,-1.5298,-1.5298,-1.5298,-1.5298,-1.5298,-1.5298,-1.5298,-1.5298,-1.5298,-1.5298,-1.8734,-1.8915,-1.8867,-1.8338,-1.7808,-1.7267,-1.6835,-1.5596,-1.4542,-1.4446,-1.3715,-1.2908,-1.2282,-1.3041,-1.3975,-1.4602,-1.5848,-1.7111,-1.8193,-1.871,-1.8987,-1.8987,-1.8987,-1.8987,-1.8987,-1.9411,-1.97,-1.9796,-2.0129,-2.0358,-2.0458,-2.0454,-2.0298,-1.9937,-1.9912,-1.9906,-1.9906,-1.9836,-2.0312,-2.1328,-2.1372,-2.1957,-2.3002,-2.255,-2.3155,-2.4549,-2.4203,-2.4243,-2.4511,-2.4207,-2.3985,-2.3844,-2.3478,-2.3326,-2.3302,-2.3326,-2.3364,-2.3388,-2.3388,-2.3803,-2.4157,-2.3195,-2.3273,-2.363,-2.307,-2.2888,-2.2888,-2.2888,-2.2888,-2.2888,-2.2888,-2.2888,-2.2859,-2.2757,-2.2345,-2.196,-2.1844,-2.138,-2.0959,-2.0857,-2.0741,-2.0509,-2.0016,-1.9928,-1.974,-1.9188,-1.9014,-1.8941,-1.8941,-1.7824,-1.704,-1.704,-1.6938,-1.6864,-1.6864,-1.6864,-1.6634,-1.6082,-1.6037,-1.5821,-1.5312,-1.5298,-1.5298,-1.5298,-1.5298,-1.5298,-1.5298,-1.5298,-1.5298,-1.5298,-1.5298,-1.5298,-1.8843,-1.8987,-1.8867,-1.8338,-1.7808,-1.7183,-1.6379,-1.5394,-1.4534,-1.3987,-1.3469,-1.2944,-1.2432,-1.3192,-1.4084,-1.4574,-1.5742,-1.6967,-1.8049,-1.8422,-1.8686,-1.8963,-1.8987,-1.9095,-1.9399,-1.9652,-2.0037,-2.0586,-2.0875,-2.1019,-2.1036,-2.1272,-2.1067,-2.0237,-2.0478,-2.049,-2.0225,-2.049,-2.1119,-2.2072,-2.1908,-2.2208,-2.2888,-2.2418,-2.2757,-2.3754,-2.3602,-2.3657,-2.3809,-2.3663,-2.3445,-2.3159,-2.3169,-2.3225,-2.3325,-2.3564,-2.3738,-2.3847,-2.3847,-2.4323,-2.4783,-2.3961,-2.3909,-2.4096,-2.377,-2.3501,-2.3311,-2.3311,-2.3126,-2.2888,-2.2888,-2.2888,-2.2888,-2.2888,-2.2693,-2.2461,-2.2461,-2.1975,-2.1511,-2.1511,-2.1235,-2.0901,-2.0611,-2.0567,-2.0349,-1.9711,-1.9624,-1.9493,-1.9145,-1.8564,-1.8071,-1.7748,-1.7417,-1.72,-1.72,-1.72,-1.7052,-1.6733,-1.6721,-1.659,-1.6298,-1.63,-1.63,-1.63,-1.63,-1.63,-1.63,-1.63,-1.63,-1.6269,-1.5921,-1.5966,-1.8879,-1.8987,-1.8867,-1.8338,-1.7724,-1.6979,-1.603,-1.5217,-1.4457,-1.3655,-1.3409,-1.3204,-1.2782,-1.3385,-1.4185,-1.4881,-1.5696,-1.6715,-1.8025,-1.8205,-1.8398,-1.8927,-1.8987,-1.9218,-1.9748,-1.9916,-2.0358,-2.1332,-2.1512,-2.1572,-2.1572,-2.1969,-2.1765,-2.0815,-2.1187,-2.1211,-2.0791,-2.1199,-2.1849,-2.2757,-2.2371,-2.2402,-2.2726,-2.2371,-2.2463,-2.2909,-2.304,-2.3103,-2.3098,-2.3082,-2.2905,-2.262,-2.2977,-2.3165,-2.335,-2.3837,-2.4173,-2.4374,-2.4374,-2.4875,-2.5408,-2.4895,-2.4665,-2.4587,-2.4444,-2.4132,-2.3842,-2.3842,-2.3466,-2.3045,-2.3068,-2.2981,-2.288,-2.2902,-2.2888,-2.2888,-2.2888,-2.2533,-2.2193,-2.2193,-2.1772,-2.1365,-2.1235,-2.1206,-2.1003,-2.0378,-2.0175,-1.9914,-1.9377,-1.9188,-1.8927,-1.8448,-1.7925,-1.7606,-1.7606,-1.7606,-1.7545,-1.7432,-1.7417,-1.7359,-1.7214,-1.72,-1.72,-1.72,-1.72,-1.72,-1.72,-1.72,-1.72,-1.72,-1.6663,-1.6706,-1.8975,-1.8987,-1.8867,-1.8338,-1.7423,-1.6523,-1.5924,-1.4682,-1.3614,-1.3517,-1.3119,-1.277,-1.2721,-1.2782,-1.333,-1.4761,-1.5085,-1.5852,-1.7917,-1.8205,-1.8398,-1.8927,-1.8987,-1.9218,-1.9748,-2.0237,-2.0779,-2.1356,-2.1849,-2.2125,-2.2125,-2.2161,-2.1921,-2.1344,-2.138,-2.138,-2.1332,-2.138,-2.1699,-2.2247,-2.2216,-2.2216,-2.2247,-2.2216,-2.2463,-2.2909,-2.304,-2.3318,-2.3683,-2.328,-2.3389,-2.3812,-2.3763,-2.381,-2.396,-2.4512,-2.4817,-2.4922,-2.4922,-2.5316,-2.5849,-2.5766,-2.5558,-2.5186,-2.4572,-2.4383,-2.434,-2.434,-2.3922,-2.3483,-2.3578,-2.3236,-2.2818,-2.288,-2.2888,-2.2888,-2.2888,-2.2859,-2.2815,-2.2815,-2.2757,-2.2562,-2.2004,-2.1902,-2.167,-2.1017,-2.0451,-2.0074,-2.0016,-1.9478,-1.9087,-1.9029,-1.897,-1.8927,-1.8927,-1.8927,-1.8695,-1.8143,-1.8114,-1.7838,-1.7229,-1.72,-1.72,-1.72,-1.72,-1.72,-1.72,-1.72,-1.72,-1.72,-1.7142,-1.7125,-1.8434,-1.8518,-1.847,-1.8253,-1.7147,-1.5994,-1.5444,-1.4381,-1.3409,-1.3095,-1.2854,-1.2709,-1.2709,-1.2963,-1.3493,-1.4438,-1.4818,-1.5408,-1.6595,-1.7027,-1.7448,-1.7977,-1.8602,-1.9336,-2.0201,-2.065,-2.1099,-2.1542,-2.1768,-2.1886,-2.1886,-2.2104,-2.1945,-2.1416,-2.1716,-2.1728,-2.1404,-2.1716,-2.1993,-2.2197,-2.2197,-2.2197,-2.2197,-2.2197,-2.2309,-2.2494,-2.2543,-2.2671,-2.2811,-2.2648,-2.2685,-2.295,-2.317,-2.3505,-2.3951,-2.4528,-2.5025,-2.542,-2.5501,-2.5697,-2.5893,-2.5893,-2.582,-2.5646,-2.5378,-2.5105,-2.4884,-2.4884,-2.448,-2.4055,-2.4104,-2.3669,-2.3234,-2.3243,-2.304,-2.2826,-2.2826,-2.2857,-2.2888,-2.2888,-2.2888,-2.2815,-2.2577,-2.2533,-2.233,-2.1699,-2.1394,-2.109,-2.0683,-2.0407,-2.0103,-1.974,-1.9348,-1.9101,-1.9101,-1.9101,-1.8999,-1.8767,-1.8738,-1.8622,-1.8361,-1.8346,-1.8346,-1.8346,-1.8346,-1.8346,-1.8346,-1.8346,-1.8346,-1.8332,-1.7969,-1.7998,-1.7844,-1.794,-1.7951,-1.8144,-1.6991,-1.5648,-1.5121,-1.4225,-1.3348,-1.2818,-1.2709,-1.2709,-1.2709,-1.3011,-1.3493,0.0,-1.443,-1.4902,-1.591,-1.6212,-1.6608,-1.7315,-1.8129,-1.9099,-2.0233,-2.095,-2.1452,-2.1675,-2.1698,-2.1698,-2.1698,-2.1968,-2.1956,-2.1554,-2.1962,-2.2017,-2.1644,-2.2005,-2.2197,-2.2197,-2.2197,-2.2197,-2.2197,-2.2197,-2.2197,-2.2197,-2.2197,-2.2197,-2.2197,-2.2197,-2.2197,-2.2259,-2.2739,-2.3173,-2.3653,-2.4237,-2.4766,-2.5203,-2.5314,-2.5425,-2.555,-2.5605,-2.5729,-2.5839,-2.5893,-2.5679,-2.542,-2.542,-2.5031,-2.4593,-2.4394,-2.4048,-2.3769,-2.3769,-2.3502,-2.3215,-2.3051,-2.304,-2.3028,-2.29,-2.2857,-2.288,-2.2902,-2.2888,-2.2765,-2.2316,-2.2106,-2.183,-2.1351,-2.1119,-2.0843,-2.0407,-1.9783,-1.9319,-1.9116,-1.9101,-1.9101,-1.9101,-1.9101,-1.9101,-1.9101,-1.9101,-1.9101,-1.9101,-1.9101,-1.9101,-1.9101,-1.9101,-1.9101,-1.9087,-1.8666,-1.8695,-1.7363,-1.7314,-1.7373,-1.8036,-1.6991,-1.5648,-1.5121,-1.4225,-1.3348,-1.2818,-1.2709,-1.2709,-1.2709,-1.2692,-1.3059,-1.414,-1.3855,-1.4233,-1.6295,-1.6083,-1.6132,-1.7267,-1.763,-1.8339,-1.9684,-2.1087,-2.1831,-2.1698,-2.1698,-2.1698,-2.1698,-2.1843,-2.1894,-2.1894,-2.2092,-2.2197,-2.2185,-2.2197,-2.2197,-2.2197,-2.2197,-2.2197,-2.2197,-2.2197,-2.2197,-2.2197,-2.2197,-2.2197,-2.2197,-2.2197,-2.2197,-2.2259,-2.2739,-2.2975,-2.3165,-2.3653,-2.3917,-2.4021,-2.4021,-2.4323,-2.4751,-2.4935,-2.5314,-2.5729,-2.5866,-2.5893,-2.5879,-2.5879,-2.5551,-2.5034,-2.4382,-2.4287,-2.4387,-2.4387,-2.4387,-2.4216,-2.3612,-2.3483,-2.3359,-2.2887,-2.2809,-2.2818,-2.2902,-2.2888,-2.2888,-2.2888,-2.2374,-2.1989,-2.1989,-2.1409,-2.1003,-2.0988,-2.0451,-1.9827,-1.9159,-1.9101,-1.9101,-1.9101,-1.9101,-1.9101,-1.9101,-1.9101,-1.9101,-1.9101,-1.9101,-1.9101,-1.9101,-1.9101,-1.9101,-1.9101,-1.9087,-1.9087,-1.6284,-1.6478,-1.6646,-1.6584,-1.5878,-1.5057,-1.4622,-1.398,-1.3348,-1.2818,-1.2709,-1.2709,-1.2709,-1.2709,-1.3023,-1.4014,-1.4097,-1.4337,-1.5176,-1.6112,-1.6836,-1.7083,-1.8779,-2.017,-2.084,-2.1295,-2.1506,-2.136,-2.1371,-2.1371,-2.1371,-2.1474,-2.1663,-2.1894,-2.2092,-2.2197,-2.2197,-2.2197,-2.2197,-2.2197,-2.2197,-2.2197,-2.2197,-2.2197,-2.2197,-2.2197,-2.2197,-2.2197,-2.2197,-2.2197,-2.2197,-2.2228,-2.2371,-2.2635,-2.3005,-2.325,-2.3564,-2.3888,-2.3962,-2.4092,-2.4224,-2.4295,-2.4624,-2.5062,-2.5216,-2.5564,-2.5893,-2.5893,-2.578,-2.5637,-2.5413,-2.5099,-2.4801,-2.4801,-2.4538,-2.422,-2.4021,-2.4052,-2.3955,-2.3388,-2.3283,-2.3154,-2.2755,-2.2684,-2.2743,-2.2826,-2.2667,-2.256,-2.256,-2.2402,-2.212,-2.1585,-2.1468,-2.0959,-1.9885,-1.9362,-1.9101,-1.9101,-1.9101,-1.9101,-1.9101,-1.9101,-1.9101,-1.9101,-1.9101,-1.9101,-1.9101,-1.9101,-1.8969,-1.8688,-1.8364,-1.8206,-1.5233,-1.5565,-1.5712,-1.5761,-1.5288,-1.4675,-1.4038,-1.3658,-1.3262,-1.2734,-1.2627,-1.2644,-1.2692,-1.2662,-1.2878,-1.3681,-1.3703,-1.3935,-1.4877,-1.5856,-1.6784,-1.7629,-1.9404,-2.0703,-2.1001,-2.1252,-2.1336,-2.1221,-2.119,-2.119,-2.119,-2.1336,-2.1494,-2.1694,-2.1968,-2.2092,-2.2092,-2.2092,-2.2092,-2.2092,-2.2092,-2.2123,-2.2197,-2.2197,-2.2197,-2.2197,-2.2197,-2.2197,0.0,-2.2197,-2.2197,-2.2197,-2.2197,-2.2371,-2.2635,-2.2732,-2.2962,-2.3203,-2.328,-2.3429,-2.3607,-2.3653,-2.4137,-2.4738,-2.4935,-2.5425,-2.5893,-2.5893,-2.5893,-2.5893,-2.5893,-2.5612,-2.5358,-2.5358,-2.5075,-2.4787,-2.4561,-2.4555,-2.4461,-2.3871,-2.3767,-2.3592,-2.3035,-2.2935,-2.2887,-2.2741,-2.2712,-2.2712,-2.2712,-2.2766,-2.2608,-2.2138,-2.196,-2.1542,-2.0728,-2.0145,-1.9812,-1.9812,-1.9812,-1.9812,-1.9812,-1.9812,-1.9812,-1.9812,-1.9773,-1.9657,-1.9478,-1.9027,-1.8635,-1.835,-1.7948,-1.7747,0.0,-1.4568,-1.4578,-1.532,-1.5061,-1.4375,-1.3415,-1.3255,0.0,-1.2615,-1.2508,-1.2538,-1.2704,-1.2615,-1.268,-1.3286,-1.2941,-1.3283,-1.5255,-1.5555,-1.6412,-1.8741,-1.9709,-2.0269,-2.0454,-2.1027,-2.1336,-2.1221,-2.119,-2.119,-2.119,-2.1305,-2.1388,-2.1388,-2.1694,-2.1862,-2.1894,-2.1894,-2.1894,-2.1894,-2.1894,-2.1968,-2.2166,-2.2166,-2.2166,-2.2166,-2.2154,-2.2185,-2.2185,-2.2185,-2.2197,-2.2197,-2.2197,-2.2197,-2.2197,-2.2197,-2.2197,-2.2197,-2.2197,-2.2494,-2.2878,-2.304,-2.3771,-2.4624,-2.485,-2.5328,-2.5811,-2.5839,-2.5839,-2.5811,-2.577,-2.5811,-2.5866,-2.5839,-2.5866,-2.5739,-2.5163,-2.5063,-2.4906,-2.436,-2.4207,-2.4035,-2.3534,-2.3435,-2.3221,-2.2657,-2.258,-2.2589,-2.2569,-2.2592,-2.2615,-2.2592,-2.2041,-2.1676,-2.1676,-2.1247,-2.0988,-2.0988,-2.0988,-2.1003,-2.0961,-2.0961,-2.0941,-2.0926,-2.0801,-2.0487,-2.0041,-1.8863,-1.8238,-1.811,-1.7848,-1.7671,-1.2574,0.0,-1.3542,-1.3601,-1.3813,-1.386,0.0,-1.3217,-1.3082,-1.2597,-1.2455,-1.2567,-1.3067,-1.2757,-1.2819,-1.4006,-1.3845,-1.409,-1.5603,-1.7088,-1.8545,-1.9895,-2.0596,-2.0942,-2.1006,-2.1152,-2.1221,-2.119,-2.119,-2.119,-2.119,-2.1221,-2.1273,-2.1388,-2.1494,-2.16,-2.1761,-2.1761,-2.1761,-2.1761,-2.1761,-2.1761,-2.1824,-2.1824,-2.1824,-2.1824,-2.1937,-2.1956,-2.1968,-2.2123,-2.2197,-2.2197,-2.2197,-2.2197,-2.2197,-2.2197,-2.2197,-2.2197,-2.2197,-2.2278,-2.2432,-2.2805,-2.3203,-2.3564,-2.3946,-2.4509,-2.4992,-2.5174,-2.509,-2.4908,-2.4553,-2.502,-2.5536,-2.5258,-2.5481,-2.5742,-2.5711,-2.5683,-2.5513,-2.492,-2.4413,-2.3862,-2.3286,-2.28,-2.2442,-2.2308,-2.2385,-2.2415,-2.2311,-2.2463,-2.2555,-2.2463,-2.2403,-2.2363,-2.2363,-2.1427,-2.0843,-2.0843,-2.0926,-2.0837,-2.0472,-2.0458,-2.0365,-2.0158,-2.0035,-1.9757,-1.9336,-1.8702,-1.8354,-1.8332,-1.7949,-1.7777,-1.1119,-1.2184,-1.3094,-1.2977,-1.3305,-1.3446,-1.2606,-1.243,-1.2305,-1.1892,-1.192,-1.2171,-1.2812,-1.256,-1.2742,-1.4176,-1.4078,-1.4458,-1.6336,-1.8127,-1.9551,-2.032,-2.0879,-2.119,-2.119,-2.119,-2.119,-2.119,-2.119,-2.119,-2.119,-2.119,-2.1221,-2.1305,-2.1305,-2.138,-2.1549,-2.1549,-2.1549,-2.1549,-2.1549,-2.1624,-2.1698,-2.1698,-2.1698,-2.1698,-2.1781,-2.1812,-2.1812,-2.1999,-2.2061,-2.2061,-2.2154,-2.2197,-2.2197,-2.2197,-2.2197,-2.2197,-2.2197,-2.2197,-2.2247,-2.2494,-2.2775,-2.3083,-2.3386,-2.3666,-2.3972,-2.4436,-2.4624,-2.4652,-2.4381,-2.4723,-2.509,-2.4907,-2.4893,-2.4936,-2.5021,-2.5021,-2.5009,-2.4888,-2.4572,-2.4121,-2.3541,-2.3164,-2.2775,-2.2273,-2.2259,-2.22,-2.1871,-2.211,-2.2121,-2.1616,-2.1793,-2.1888,-2.1708,-2.1135,-2.0943,-2.1225,-2.1504,-2.1417,-2.0917,-2.0894,-2.0699,-2.033,-2.0011,-1.968,-1.936,-1.8654,-1.8293,-1.8248,-1.787,-1.7726,-1.0106,-1.145,-1.2762,-1.2601,-1.2891,-1.2875,-1.1691,-1.1418,-1.133,-1.1057,-1.126,-1.1692,-1.2359,-1.2314,-1.2663,-1.4158,-1.4351,-1.5051,-1.7164,-1.8788,-1.9923,-2.0354,-2.0879,-2.119,-2.119,-2.119,-2.119,-2.119,-2.119,-2.119,-2.119,-2.119,-2.119,-2.119,-2.119,-2.1253,-2.1368,-2.1368,-2.1368,-2.1368,-2.1368,-2.1474,-2.1635,-2.1635,-2.1635,-2.1624,-2.1667,-2.1667,-2.1667,-2.1812,-2.1874,-2.1906,-2.2073,-2.2135,-2.2135,-2.2166,-2.2154,-2.2166,-2.2197,-2.2197,-2.2197,-2.2197,-2.2463,-2.2818,-2.2932,-2.2884,-2.2927,-2.3547,-2.4063,-2.4423,-2.4337,-2.441,-2.4538,-2.4467,-2.4208,-2.3992,-2.3992,-2.3992,-2.4108,-2.4538,-2.4538,-2.4279,-2.3787,-2.3637,-2.3244,-2.2325,-2.2179,-2.2027,-2.1537,-2.1825,-2.1743,-2.0923,-2.1081,-2.1103,-2.074,-2.0749,-2.0981,-2.1468,-2.1935,-2.1959,-2.141,-2.1361,-2.108,-2.0585,-2.0149,-1.9828,-1.96,-1.8726,-1.8284,-1.8225,-1.7959,-1.7799,-1.0428,-1.1193,-1.1698,-1.1173,-1.1434,-1.165,-1.1123,-1.0987,-1.0992,-1.1,-1.1275,-1.1683,-1.2299,-1.2516,-1.3101,-1.4568,-1.6082,-1.724,-1.7685,-1.9104,-2.019,-2.037,-2.0879,-2.119,-2.119,-2.119,-2.119,-2.119,-2.119,-2.119,-2.119,-2.119,-2.119,-2.119,-2.119,-2.1221,-2.1221,-2.1221,-2.1221,-2.1221,-2.1221,-2.1253,-2.1296,-2.1296,-2.1296,-2.1296,-2.14,-2.1463,-2.1463,-2.1655,-2.173,-2.173,-2.1761,-2.1761,-2.1792,-2.1906,-2.1968,-2.1956,-2.2123,-2.2197,-2.2197,-2.2197,-2.2259,-2.2309,-2.2328,-2.234,-2.234,-2.2451,-2.2805,-2.3078,-2.2696,-2.3173,-2.3682,-2.3416,-2.3581,-2.3859,-2.3992,-2.3992,-2.4021,-2.4079,-2.3699,-2.3331,-2.3213,-2.2777,-2.2346,-2.2072,-2.2117,-2.2144,-2.1916,-2.2056,-2.2098,-2.1966,-2.1603,-2.1328,-2.1277,-2.0884,-2.0485,-2.0131,-2.0795,-2.0968,-2.0434,-2.0194,-1.9888,-1.9447,-1.9581,-1.948,-1.9103,-1.8965,-1.8865,-1.8851,-1.8799,-1.8785,-1.0031,-1.0365,-1.0552,-1.0502,-1.1313,-1.1998,-1.1367,-1.1164,-1.1091,-1.0978,-1.1176,-1.1649,-1.2451,-1.2603,-1.3164,-1.4897,-1.6712,-1.7862,-1.7668,-1.9021,-1.9992,-1.9834,-2.0522,-2.1094,-2.119,-2.119,-2.119,-2.119,-2.119,-2.119,-2.119,-2.119,-2.119,-2.119,-2.119,-2.119,-2.119,-2.119,-2.119,-2.119,-2.119,-2.119,-2.119,-2.119,-2.119,-2.119,-2.1285,-2.1273,-2.1305,-2.1474,-2.1537,-2.1549,-2.1655,-2.1698,-2.1698,-2.1761,-2.1781,-2.1859,-2.2194,-2.2385,-2.248,-2.248,-2.2555,-2.257,-2.2282,-2.2197,-2.2258,-2.2534,-2.2775,-2.2848,-2.2635,-2.2896,-2.3185,-2.3035,-2.2975,-2.2932,-2.3022,-2.3022,-2.3113,-2.3352,-2.3173,-2.3005,-2.3005,-2.2744,-2.2457,-2.2152,-2.2164,-2.2075,-2.1708,-2.1907,-2.1895,-2.1394,-2.1312,-2.1203,-2.0984,-2.0744,-2.0451,-2.0144,-2.0207,-2.0131,-1.9901,-1.9759,-1.9512,-1.9105,-1.9198,-1.9172,-1.8987,-1.8987,-1.8987,-1.8987,-1.8987,-1.8987,-0.9841,-0.9841,-0.9822,-1.033,-1.1298,-1.2043,-1.1598,-1.1351,-1.1211,-1.1172,-1.1421,-1.1869,-1.2632,-1.2972,-1.3645,-1.5234,-1.691,-1.7926,-1.7673,-1.8797,-1.954,-1.9264,-1.9942,-2.056,-2.0828,-2.0924,-2.0924,-2.0871,-2.0924,-2.0924,-2.086,-2.0924,-2.0999,-2.1126,-2.1169,-2.119,-2.119,-2.119,-2.119,-2.119,-2.119,-2.119,-2.119,-2.119,-2.119,-2.119,-2.119,-2.119,-2.1221,-2.1305,-2.1368,-2.1368,-2.1517,-2.1592,-2.1624,-2.1624,-2.1737,-2.1933,-2.2277,-2.2586,-2.2823,-2.2823,-2.292,-2.299,-2.2552,-2.242,-2.2516,-2.2943,-2.305,-2.3046,-2.3108,-2.301,-2.2911,-2.2911,-2.2548,-2.2197,-2.2197,-2.2197,-2.2309,-2.2678,-2.2726,-2.2726,-2.2726,-2.2726,-2.2616,-2.2247,-2.2197,-2.2041,-2.1644,-2.186,-2.1761,-2.1048,-2.1141,-2.108,-2.0644,-2.0598,-2.0559,-2.046,-1.9944,-1.9645,-1.9645,-1.9522,-1.9303,-1.9013,-1.8987,-1.8987,-1.8987,-1.8987,-1.8987,-1.8987,-1.8987,-1.8987,-1.0606,-1.0263,-0.9886,-1.0649,-1.0668,-1.0662,-1.1338,-1.1205,-1.1145,-1.1853,-1.2328,-1.263,-1.2685,-1.3976,-1.5144,-1.5618,-1.6873,-1.7835,-1.7957,-1.8496,-1.8916,-1.9025,-1.909,-1.9342,-1.9846,-2.0063,-2.0096,-1.9911,-2.0063,-2.0096,-1.9911,-2.0074,-2.0399,-2.0903,-2.1094,-2.119,-2.119,-2.119,-2.119,-2.119,-2.119,-2.119,-2.119,-2.119,-2.119,-2.119,-2.119,-2.119,-2.119,-2.1221,-2.1221,-2.1233,-2.1221,-2.1316,-2.142,-2.142,-2.1829,-2.2348,-2.2394,-2.2756,-2.3144,-2.3144,-2.3189,-2.3177,-2.3142,-2.313,-2.3142,-2.3177,-2.3333,-2.3508,-2.3685,-2.3357,-2.2983,-2.2983,-2.2578,-2.2197,-2.2197,-2.2197,-2.2228,-2.2247,-2.2259,-2.2259,-2.2259,-2.2259,-2.2259,-2.2197,-2.2197,-2.2173,-2.2137,-2.2168,-2.2156,-2.2089,-2.1662,-2.1169,-2.0646,-2.0581,-2.0603,-2.0596,-2.0081,-1.9775,-1.9775,-1.9305,-1.9013,-1.8987,-1.8987,-1.8987,-1.8987,-1.8987,-1.8987,-1.8987,-1.8987,-1.8987,-1.0312,-1.0116,-0.9831,-1.0395,-1.0787,-1.1191,-1.1752,-1.1945,-1.2239,-1.3056,-1.335,-1.3451,-1.3451,-1.4591,-1.5542,-1.5675,-1.6859,-1.7634,-1.7354,-1.807,-1.8533,-1.8408,-1.8667,-1.9011,-1.9276,-1.9375,-1.9375,-1.9309,-1.9375,-1.9375,-1.9309,-1.9375,-1.9671,-2.0204,-2.0399,-2.0667,-2.0999,-2.1126,-2.119,-2.119,-2.119,-2.119,-2.119,-2.119,-2.119,-2.119,-2.119,-2.119,-2.119,-2.119,-2.119,-2.119,-2.119,-2.1221,-2.1319,-2.1611,-2.1885,-2.2172,-2.2808,-2.3258,-2.3513,-2.3525,-2.3593,-2.3626,-2.3309,-2.3203,-2.3273,-2.3591,-2.3753,-2.3785,-2.3645,-2.355,-2.3505,-2.3505,-2.3348,-2.3119,-2.2782,-2.271,-2.2582,-2.2258,-2.2197,-2.2197,-2.2197,-2.2197,-2.2197,-2.2197,-2.2197,-2.2197,-2.2197,-2.2197,-2.2197,-2.2197,-2.2017,-2.1813,-2.162,-2.1596,-2.1584,-2.1584,-2.0779,-2.0298,-2.0298,-2.0105,-1.9841,-1.9519,-1.9507,-1.9324,-1.8987,-1.8987,-1.8987,-1.8987,-1.8987,-1.9194,-1.0155,-1.0098,-1.0015,-1.0548,-1.1099,-1.1654,-1.234,-1.2698,-1.3157,-1.4104,-1.4268,-1.4268,-1.4268,-1.5047,-1.5689,-1.5689,-1.6693,-1.7304,-1.6943,-1.7545,-1.791,-1.7672,-1.7969,-1.8307,-1.8576,-1.8643,-1.8677,-1.8576,-1.8643,-1.8677,-1.8576,-1.8643,-1.8944,-1.9474,-1.9835,-2.0204,-2.0635,-2.0967,-2.1126,-2.119,-2.119,-2.119,-2.119,-2.119,-2.119,-2.119,-2.119,-2.119,-2.119,-2.119,-2.119,-2.119,-2.119,-2.119,-2.1259,-2.1743,-2.1997,-2.225,-2.3109,-2.3605,-2.3873,-2.3861,-2.3956,-2.398,-2.3641,-2.3525,-2.3595,-2.3956,-2.412,-2.412,-2.3871,-2.3897,-2.398,-2.4013,-2.3914,-2.3697,-2.3336,-2.3264,-2.3156,-2.2794,-2.2558,-2.2498,-2.2698,-2.2558,-2.2438,-2.2438,-2.2438,-2.2378,-2.2209,-2.2197,-2.2197,-2.2197,-2.2197,-2.2197,-2.2197,-2.2197,-2.2197,-2.2197,-2.1512,-2.1043,-2.0875,-2.0694,-2.043,-2.0057,-2.0045,-1.9865,-1.9504,-1.9504,-1.9504,-1.9504,-1.9519,-1.9684,-1.0312,-1.0291,-1.0493,-1.1301,-1.1522,-1.1819,-1.302,-1.3305,-1.3653,-1.4864,-1.5111,-1.5111,-1.5111,-1.5423,-1.5698,-1.5698,-1.6376,-1.6908,-1.6908,-1.6908,-1.6908,-1.6908,-1.6908,-1.7107,-1.7638,-1.7867,-1.7901,-1.7706,-1.7867,-1.7901,-1.7706,-1.7867,-1.823,-1.8767,-1.9441,-1.9879,-2.0107,-2.0635,-2.0999,-2.119,-2.119,-2.119,-2.119,-2.119,-2.119,-2.119,-2.119,-2.119,-2.119,-2.119,-2.119,-2.119,-2.119,-2.119,-2.1259,-2.1743,-2.2249,-2.2765,-2.3235,-2.3775,-2.42,-2.42,-2.42,-2.42,-2.42,-2.42,-2.42,-2.42,-2.4345,-2.449,-2.449,-2.439,-2.4336,-2.4462,-2.4145,-2.3818,-2.3806,-2.3806,-2.3806,-2.3806,-2.3372,-2.3192,-2.371,-2.3372,-2.3023,-2.3023,-2.3023,-2.2799,-2.227,-2.2197,-2.2197,-2.2197,-2.2197,-2.2197,-2.2197,-2.2197,-2.2197,-2.2197,-2.2197,-2.1957,-2.144,-2.0904,-2.0598,-2.0593,-2.0593,-2.0593,-2.0581,-2.0581,-2.0581,-2.0581,-2.0615,-2.0586,-0.9951,-1.0282,-1.0781,-1.103,-1.1935,-1.292,-1.3589,-1.3937,-1.4497,-1.5707,-1.5922,-1.5863,-1.557,-1.5854,-1.6129,-1.6129,-1.6569,-1.6908,-1.6908,-1.6908,-1.6908,-1.6908,-1.6908,-1.6968,-1.7107,-1.7176,-1.721,-1.7141,-1.7201,-1.721,-1.7141,-1.7201,-1.7476,-1.8003,-1.8375,-1.8734,-1.9166,-1.9441,-1.9606,-1.9639,-1.9639,-2.0204,-2.119,-2.119,-2.119,-2.119,-2.119,-2.119,-2.119,-2.119,-2.119,-2.119,-2.119,-2.142,-2.1766,-2.2271,-2.2777,-2.3258,-2.3798,-2.4074,-2.42,-2.42,-2.42,-2.42,-2.42,-2.42,-2.42,-2.42,-2.4236,-2.4309,-2.4454,-2.4481,-2.4507,-2.4849,-2.4893,-2.4747,-2.4374,-2.429,-2.4194,-2.3866,-2.3673,-2.3613,-2.3782,-2.3673,-2.3565,-2.3565,-2.3565,-2.3372,-2.2811,-2.2426,-2.2197,-2.2197,-2.2197,-2.2197,-2.2197,-2.2197,-2.2197,-2.2197,-2.2197,-2.2125,-2.1969,-2.1801,-2.1536,-2.1175,-2.1163,-2.0983,-2.0581,-2.0581,-2.0581,-2.0581,-2.061,-2.0803,-0.996,-1.052,-1.121,-1.1546,-1.2468,-1.3525,-1.4405,-1.4928,-1.5478,-1.6367,-1.6422,-1.6239,-1.5982,-1.6147,-1.6288,-1.6288,-1.6652,-1.6908,-1.6908,-1.6908,-1.6908,-1.6908,-1.6908,-1.6908,-1.6908,-1.6908,-1.6908,-1.6908,-1.6908,-1.6908,-1.6908,-1.6908,-1.7038,-1.7373,-1.7706,-1.807,-1.8465,-1.8767,-1.8944,-1.9011,-1.9011,-1.9474,-2.0334,-2.0334,-2.0334,-2.0334,-2.0635,-2.0892,-2.1094,-2.1158,-2.119,-2.119,-2.119,-2.1385,-2.1709,-2.2409,-2.288,-2.3247,-2.3948,-2.42,-2.42,-2.42,-2.42,-2.42,-2.42,-2.42,-2.42,-2.42,-2.42,-2.4236,-2.4345,-2.4454,-2.4598,-2.5016,-2.5147,-2.5157,-2.4868,-2.4831,-2.4747,-2.4434,-2.4206,-2.4133,-2.435,-2.4206,-2.4073,-2.4073,-2.3926,-2.3685,-2.3372,-2.3047,-2.2739,-2.2534,-2.251,-2.2426,-2.2209,-2.2197,-2.2197,-2.2197,-2.2197,-2.2197,-2.2197,-2.2197,-2.2041,-2.1728,-2.1716,-2.156,-2.1247,-2.1247,-2.1139,-2.0935,-2.0935,-2.0983,-1.0098,-1.0833,-1.1697,-1.2496,-1.3093,-1.3855,-1.5349,-1.601,-1.6398,-1.6826,-1.6624,-1.6334,-1.6334,-1.6334,-1.6334,-1.6334,-1.667,-1.6908,-1.6908,-1.6908,-1.6908,-1.6908,-1.6908,-1.6908,-1.6908,-1.6908,-1.6908,-1.6908,-1.6908,-1.6908,-1.6908,-1.6908,-1.6908,-1.6908,-1.7373,-1.7706,-1.7901,-1.8365,-1.87,-1.8811,-1.8811,-1.8811,-1.8811,-1.8944,-1.9011,-1.9044,-1.9704,-2.0302,-2.0828,-2.1031,-2.1126,-2.1158,-2.119,-2.1247,-2.1443,-2.2374,-2.2776,-2.2983,-2.3879,-2.42,-2.42,-2.42,-2.42,-2.42,-2.42,-2.42,-2.42,-2.42,-2.42,-2.42,-2.42,-2.4345,-2.4562,-2.4945,-2.5052,-2.5111,-2.5241,-2.5276,-2.5276,-2.5312,-2.4927,-2.4747,-2.5228,-2.4915,-2.4556,-2.4556,-2.4157,-2.3866,-2.3866,-2.383,-2.3613,-2.3099,-2.3083,-2.2879,-2.2306,-2.2258,-2.2246,-2.2197,-2.2197,-2.2197,-2.2197,-2.2197,-2.2197,-2.2197,-2.2197,-2.2197,-2.2197,-2.2197,-2.1945,-2.1476,-2.1476,-2.1211,-0.9419,-1.0422,-1.1697,-1.2496,-1.3727,-1.4882,-1.5542,-1.601,-1.6398,-1.6826,-1.6835,-1.678,-1.678,-1.678,-1.678,-1.678,-1.6853,-1.6908,-1.6908,-1.6908,-1.6908,-1.6908,-1.6908,-1.6908,-1.6908,-1.6908,-1.6908,-1.6908,-1.6908,-1.6908,-1.6908,-1.6908,-1.6908,-1.6908,-1.7003,-1.7107,-1.7141,-1.7235,-1.7304,-1.7339,-1.7339,-1.7339,-1.7373,-1.8509,-1.9011,-1.9011,-1.9177,-1.954,-2.0042,-2.0258,-2.0592,-2.0967,-2.1126,-2.1684,-2.2408,-2.2638,-2.319,-2.3902,-2.412,-2.42,-2.42,-2.42,-2.42,-2.42,-2.42,-2.42,-2.42,-2.42,-2.42,-2.42,-2.42,-2.4236,-2.4345,-2.4562,-2.4742,-2.4921,-2.5123,-2.5147,-2.5182,-2.5276,-2.5216,-2.5168,-2.5288,-2.5216,-2.5131,-2.5131,-2.4687,-2.4362,-2.4362,-2.4013,-2.3758,-2.3649,-2.3637,-2.3421,-2.2859,-2.2843,-2.263,-2.2221,-2.2197,-2.2197,-2.2197,-2.2197,-2.2197,-2.2197,-2.2197,-2.2197,-2.2197,-2.2197,-2.2137,-2.2017,-2.2017,-2.1969,-0.9326,-1.023,-1.1424,-1.2663,-1.4038,-1.5203,-1.5597,-1.601,-1.6398,-1.6826,-1.6908,-1.6908,-1.6908,-1.6908,-1.6908,-1.6908,-1.6908,-1.6908,-1.6908,-1.6908,-1.6908,-1.6908,-1.6908,-1.6835,-1.6642,-1.6798,-1.6826,-1.6642,-1.6798,-1.6908,-1.6908,-1.6908,-1.6908,-1.6908,-1.6908,-1.6908,-1.6908,-1.6908,-1.6908,-1.6908,-1.6908,-1.6908,-1.6934,-1.7672,-1.8138,-1.8375,-1.8476,-1.8844,-1.9332,-1.9507,-1.9901,-2.0399,-2.0592,-2.1303,-2.2262,-2.2593,-2.3167,-2.3831,-2.4108,-2.42,-2.42,-2.42,-2.42,-2.42,-2.42,-2.42,-2.42,-2.42,-2.42,-2.42,-2.42,-2.42,-2.4236,-2.4345,-2.449,-2.4718,-2.4921,-2.4957,-2.5016,-2.5182,-2.5218,-2.5206,-2.5276,-2.5312,-2.5312,-2.5312,-2.5071,-2.4891,-2.4891,-2.4662,-2.441,-2.4157,-2.4133,-2.3917,-2.3445,-2.3396,-2.3276,-2.2999,-2.2987,-2.2867,-2.2582,-2.257,-2.245,-2.2197,-2.2197,-2.2197,-2.2197,-2.2197,-2.2065,-2.1813,-2.1813,-2.168,-0.925,-1.0113,-1.1188,-1.293,-1.4119,-1.4979,-1.5478,-1.5863,-1.6239,-1.6707,-1.6862,-1.6908,-1.6908,-1.6908,-1.6908,-1.6908,-1.6908,-1.6908,-1.6908,-1.6908,-1.6908,-1.6908,-1.6844,-1.6679,-1.6315,-1.6551,-1.6587,-1.6306,-1.6624,-1.6835,-1.6899,-1.6908,-1.6908,-1.6908,-1.6908,-1.6908,-1.6908,-1.6908,-1.6908,-1.6908,-1.6908,-1.6908,-1.6908,-1.6908,-1.7141,-1.7569,-1.774,-1.8104,-1.8633,-1.8777,-1.9144,-1.9639,-1.9921,-2.0599,-2.1554,-2.2172,-2.2702,-2.3187,-2.3641,-2.3849,-2.3934,-2.397,-2.4043,-2.4152,-2.42,-2.42,-2.42,-2.42,-2.42,-2.42,-2.42,-2.42,-2.42,-2.42,-2.4309,-2.449,-2.4718,-2.4754,-2.4825,-2.5016,-2.5087,-2.5147,-2.5276,-2.5312,-2.5312,-2.5312,-2.5228,-2.5168,-2.5168,-2.5168,-2.4999,-2.4532,-2.4568,-2.4446,-2.3974,-2.3926,-2.389,-2.3806,-2.3806,-2.3601,-2.3168,-2.3144,-2.2903,-2.2342,-2.2246,-2.2197,-2.2197,-2.2197,-2.1969,-2.1536,-2.1536,-2.1308,-0.845,-0.9792,-1.1531,-1.3231,-1.3785,-1.4123,-1.497,-1.5221,-1.5478,-1.6239,-1.667,-1.6908,-1.6908,-1.6908,-1.6908,-1.6908,-1.6908,-1.6908,-1.6908,-1.6908,-1.6908,-1.6908,-1.6606,-1.6343,-1.6321,-1.6037,-1.5982,-1.6294,-1.6367,-1.6517,-1.689,-1.6908,-1.6908,-1.6908,-1.6908,-1.6908,-1.6908,-1.6908,-1.6908,-1.6908,-1.6908,-1.6908,-1.6908,-1.6908,-1.6943,-1.7003,-1.7038,-1.7339,-1.7876,-1.8037,-1.8465,-1.8975,-1.9458,-2.0031,-2.0642,-2.1078,-2.1576,-2.2023,-2.2086,-2.2456,-2.2927,-2.3113,-2.3519,-2.397,-2.4164,-2.42,-2.42,-2.42,-2.42,-2.42,-2.42,-2.42,-2.42,-2.42,-2.4236,-2.4309,-2.449,-2.4526,-2.461,-2.479,-2.4992,-2.5147,-2.5276,-2.5312,-2.5312,-2.5312,-2.488,-2.4626,-2.4626,-2.4626,-2.4568,-2.4496,-2.4927,-2.4987,-2.4458,-2.4422,-2.423,-2.383,-2.3806,-2.377,-2.3697,-2.3697,-2.3445,-2.2883,-2.2426,-2.2197,-2.2197,-2.2197,-2.2149,-2.2089,-2.2089,-2.2053,-0.8988,-1.0186,-1.1465,-1.2725,-1.3376,-1.3865,-1.4514,-1.4876,-1.5267,-1.5845,-1.6285,-1.6642,-1.6862,-1.6908,-1.6908,-1.6908,-1.6908,-1.6835,-1.6606,-1.6771,-1.6734,-1.6276,-1.6276,-1.6105,-1.568,-1.567,-1.5762,-1.5955,-1.6184,-1.6486,-1.689,-1.6908,-1.6908,-1.6908,-1.6908,-1.6908,-1.6908,-1.6908,-1.6908,-1.6908,-1.6908,-1.6908,-1.6908,-1.6908,-1.6908,-1.6908,-1.6908,-1.7038,-1.7279,-1.7339,-1.7706,-1.8245,-1.8829,-1.954,-2.0298,-2.0797,-2.1335,-2.1794,-2.1794,-2.1956,-2.2231,-2.2306,-2.2531,-2.2756,-2.283,-2.2868,-2.2942,-2.325,-2.3446,-2.3604,-2.3934,-2.4127,-2.42,-2.42,-2.42,-2.4225,-2.4309,-2.4345,-2.4381,-2.461,-2.4778,-2.4957,-2.5016,-2.5111,-2.5182,-2.5182,-2.5049,-2.4963,-2.4963,-2.4963,-2.4963,-2.4963,-2.5168,-2.5216,-2.4987,-2.4963,-2.4867,-2.465,-2.4626,-2.4494,-2.4206,-2.4194,-2.3941,-2.3469,-2.2939,-2.2486,-2.2197,-2.2197,-2.2197,-2.2197,-2.2197,-2.2197,-0.9346,-1.0175,-1.0842,-1.1957,-1.2806,-1.3492,-1.4026,-1.4489,-1.4937,-1.5432,-1.579,-1.6129,-1.6523,-1.6771,-1.6908,-1.6908,-1.6908,-1.6807,-1.6471,-1.6716,-1.6679,-1.6074,-1.6184,-1.6004,-1.5322,-1.5423,-1.5542,-1.5542,-1.5835,-1.623,-1.6734,-1.6762,-1.6807,-1.6899,-1.6908,-1.6908,-1.6908,-1.6908,-1.6908,-1.6908,-1.6908,-1.6908,-1.6908,-1.6908,-1.6908,-1.6908,-1.6908,-1.6908,-1.6908,-1.6908,-1.7141,-1.7558,-1.8206,-1.8948,-1.968,-2.0339,-2.0825,-2.1145,-2.1145,-2.127,-2.1423,-2.1451,-2.1565,-2.1718,-2.1794,-2.1794,-2.1901,-2.2454,-2.2724,-2.2983,-2.3517,-2.3775,-2.3925,-2.4123,-2.4095,-2.4081,-2.4187,-2.42,-2.4273,-2.4454,-2.461,-2.4754,-2.4801,-2.4921,-2.5016,-2.5016,-2.4992,-2.4967,-2.4967,-2.5002,-2.5049,-2.5049,-2.5192,-2.5312,-2.5312,-2.5312,-2.5312,-2.5312,-2.5312,-2.5131,-2.4735,-2.4723,-2.4482,-2.4011,-2.3568,-2.3051,-2.239,-2.2258,-2.2197,-2.2197,-2.2197,-2.2197,-0.8812,-0.9177,-0.9503,-1.1153,-1.1972,-1.2618,-1.351,-1.3842,-1.4176,-1.4964,-1.5148,-1.5285,-1.568,-1.6386,-1.6908,-1.6908,-1.6908,-1.6899,-1.6881,-1.6899,-1.689,-1.6844,-1.6532,-1.6147,-1.5698,-1.534,-1.5129,-1.5129,-1.5157,-1.5505,-1.6279,-1.6315,-1.6523,-1.6899,-1.6908,-1.6908,-1.6908,-1.6908,-1.6908,-1.6908,-1.6908,-1.6908,-1.6908,-1.6908,-1.6908,-1.6908,-1.6908,-1.6908,-1.6908,-1.6908,-1.6908,-1.7016,-1.7816,-1.8137,-1.8285,-1.9097,-1.9402,-1.9411,-1.9411,-1.9805,-2.0313,-2.0508,-2.1001,-2.1538,-2.1728,-2.1794,-2.1897,-2.2304,-2.2439,-2.2532,-2.2956,-2.306,-2.3221,-2.387,-2.3801,-2.3737,-2.4109,-2.42,-2.4273,-2.4454,-2.449,-2.4574,-2.4754,-2.479,-2.4825,-2.4825,-2.4378,-2.4083,-2.4083,-2.4234,-2.4337,-2.4337,-2.4918,-2.5312,-2.5312,-2.5312,-2.5312,-2.5312,-2.5312,-2.53,-2.5264,-2.5264,-2.5023,-2.446,-2.4458,-2.3941,-2.2975,-2.2438,-2.2197,-2.2197,-2.2197,-2.2197,-0.8315,-0.8935,-0.9542,-1.0254,-1.1298,-1.2211,-1.2377,-1.3311,-1.4207,-1.4313,-1.4735,-1.5139,-1.5285,-1.5973,-1.6523,-1.6523,-1.6743,-1.6817,-1.656,-1.6743,-1.6716,-1.6184,-1.6239,-1.6056,-1.5377,-1.5184,-1.5102,-1.5102,-1.5102,-1.534,-1.589,-1.5909,-1.6101,-1.6514,-1.6523,-1.6652,-1.6908,-1.6908,-1.6908,-1.6908,-1.6908,-1.6908,-1.6908,-1.6908,-1.6908,-1.6908,-1.6908,-1.6908,-1.6908,-1.6908,-1.6908,-1.6991,-1.7807,-1.8091,-1.8182,-1.9008,-1.9301,-1.9301,-1.9301,-1.946,-1.9608,-1.9726,-1.9883,-2.0166,-2.0483,-2.0569,-2.0736,-2.1585,-2.1887,-2.2069,-2.2646,-2.2889,-2.3051,-2.3293,-2.3288,-2.324,-2.3385,-2.3842,-2.4236,-2.4309,-2.4309,-2.4345,-2.4381,-2.4538,-2.4715,-2.4993,-2.4753,-2.4613,-2.4931,-2.4767,-2.4614,-2.4614,-2.485,-2.4992,-2.4992,-2.4992,-2.5016,-2.5147,-2.5182,-2.5218,-2.5312,-2.5312,-2.5216,-2.5035,-2.4699,-2.4181,-2.3517,-2.3324,-2.324,-2.3228,-2.2859,-2.2702,-0.7792,-0.8517,-0.9314,-0.9648,-1.055,-1.1405,-1.1769,-1.269,-1.3557,-1.3798,-1.4284,-1.4735,-1.4873,-1.546,-1.5955,-1.6083,-1.6441,-1.6615,-1.6358,-1.6661,-1.6707,-1.6166,-1.634,-1.6248,-1.5579,-1.5505,-1.5395,-1.512,-1.5102,-1.5212,-1.5478,-1.5487,-1.5744,-1.627,-1.645,-1.6642,-1.6908,-1.6908,-1.6908,-1.6908,-1.6908,-1.6908,-1.6908,-1.6908,-1.6908,-1.6908,-1.6908,-1.6908,-1.6908,-1.6908,-1.6991,-1.7174,-1.7853,-1.8164,-1.8365,-1.9063,-1.9301,-1.9301,-1.9301,-1.9301,-1.9301,-1.9301,-1.9393,-1.9567,-1.9802,-1.9976,-2.0292,-2.1118,-2.1423,-2.1642,-2.2227,-2.2534,-2.2705,-2.2584,-2.2645,-2.2703,-2.2628,-2.342,-2.4116,-2.4021,-2.4184,-2.4322,-2.4223,-2.4309,-2.4497,-2.4809,-2.4699,-2.4726,-2.5016,-2.4844,-2.4682,-2.4682,-2.4754,-2.479,-2.479,-2.479,-2.4861,-2.4992,-2.4981,-2.5052,-2.5111,-2.5111,-2.5111,-2.5111,-2.4765,-2.4466,-2.4132,-2.3908,-2.3806,-2.3794,-2.3445,-2.3276,0.0,0.0,0.0,-0.9375,-0.9679,-1.0197,-1.1668,-1.1943,-1.221,-1.3384,-1.3751,-1.3983,-1.4414,-1.4818,-1.5212,-1.5588,-1.6019,-1.626,-1.626,-1.6633,-1.6872,-1.689,-1.689,-1.6743,-1.6358,-1.6288,-1.5982,-1.5184,-1.512,-1.5111,-1.5102,-1.5102,-1.5469,-1.6276,-1.6679,-1.6899,-1.6908,-1.6908,-1.6908,-1.6908,-1.6908,-1.6908,-1.6908,-1.6908,-1.6908,-1.6908,-1.6908,-1.6908,-1.6908,-1.6917,-1.7147,-1.7541,-1.7972,-1.8375,-1.876,-1.9155,-1.9301,-1.9301,-1.9301,-1.9301,-1.9301,-1.9301,-1.9586,-1.9893,-1.9902,-2.0186,-2.0622,-2.1016,-2.1126,-2.1218,-2.1568,-2.1926,-2.2057,-2.1729,-2.1899,-2.2082,-2.1824,-2.2903,-2.3845,-2.3623,-2.4071,-2.4438,-2.4171,-2.4152,-2.4164,-2.4175,-2.4164,-2.4164,-2.4212,-2.4357,-2.4454,-2.449,-2.4646,-2.479,-2.479,-2.479,-2.479,-2.4801,-2.4801,-2.479,-2.479,-2.479,-2.479,-2.479,-2.479,-2.479,-2.479,-2.4156,-2.3821,-2.3821,-2.3797,-2.3785,-0.7714,0.0,0.0,0.0,0.0,0.0,-1.0005,-1.0651,-1.147,-1.2238,-1.2704,-1.3204,-1.3928,-1.4396,-1.4708,-1.4818,-1.5414,-1.5863,-1.5863,-1.5955,-1.6138,-1.645,-1.6477,-1.6431,-1.6297,-1.6288,-1.6101,-1.556,-1.5524,-1.5404,-1.512,-1.5102,-1.5331,-1.5845,-1.6266,-1.6615,-1.6899,-1.6908,-1.6908,-1.6908,-1.6908,-1.6908,-1.6908,-1.6908,-1.6908,-1.6908,-1.6908,-1.6908,-1.6927,-1.7211,-1.7394,-1.7568,-1.8275,-1.8614,-1.876,-1.9155,-1.9301,-1.9301,-1.9301,-1.9301,-1.9301,-1.9301,-1.9586,-1.9939,-2.0264,-2.0631,-2.1034,-2.1403,-2.1522,-2.1476,-2.1328,-2.1108,-2.0945,-2.0866,-2.0921,-2.0974,-2.0892,-2.1588,-2.2261,-2.23,-2.2448,-2.2568,-2.2467,-2.283,-2.3271,-2.3789,-2.3444,-2.3468,-2.4434,-2.3891,-2.3593,-2.4007,-2.4236,-2.4381,-2.4381,-2.4381,-2.4418,-2.4574,-2.4562,-2.4646,-2.479,-2.479,-2.479,-2.479,-2.479,-2.479,-2.479,-2.4602,-2.4507,-2.4495,-2.4128,-2.3805,-0.8082,-0.8651,-0.9161,-0.8716,0.0,0.0,-0.9805,-1.0192,-1.0775,-1.1765,-1.2158,-1.2577,-1.3405,-1.3808,-1.4057,-1.4222,-1.4634,-1.5056,-1.5395,-1.5588,-1.578,-1.6028,-1.6211,-1.6288,-1.6288,-1.6434,-1.6395,-1.5982,-1.5955,-1.5698,-1.5129,-1.5258,-1.545,-1.568,-1.6101,-1.6505,-1.6899,-1.6908,-1.6908,-1.6908,-1.6908,-1.6908,-1.6908,-1.6908,-1.6908,-1.6908,-1.6908,-1.6908,-1.6945,-1.7523,-1.7761,-1.7816,-1.8467,-1.8815,-1.899,-1.9219,-1.9301,-1.9301,-1.9301,-1.9301,-1.9329,-1.9503,-1.9802,-2.0214,-2.0649,-2.1044,-2.142,-2.1623,-2.1568,-2.142,-2.1172,-2.0695,-2.0232,-2.0232,-2.0136,-2.0008,-2.0008,-2.0335,-2.0799,-2.1409,-2.1775,-2.1917,-2.1835,-2.208,-2.2466,-2.2847,-2.2589,-2.2601,-2.3399,-2.2929,-2.2644,-2.2979,-2.3128,-2.3202,-2.3202,-2.3446,-2.3677,-2.3861,-2.4116,-2.4345,-2.4526,-2.4538,-2.4538,-2.4538,-2.4538,-2.4538,-2.4538,-2.4718,-2.479,-2.479,-2.4472,-2.4026,-0.8505,-0.9054,-0.9649,-0.9564,-0.9354,0.0,-1.0251,-1.009,-1.018,-1.1555,-1.1756,-1.1931,-1.2788,-1.3086,-1.3323,-1.3726,-1.3855,-1.4157,-1.4928,-1.5331,-1.5579,-1.5615,-1.5955,-1.6169,-1.6248,-1.6569,-1.6642,-1.6306,-1.6288,-1.5982,-1.5212,-1.546,-1.5625,-1.5625,-1.6028,-1.6441,-1.6835,-1.689,-1.6908,-1.6908,-1.6908,-1.6908,-1.6908,-1.6908,-1.6908,-1.6908,-1.6908,-1.6936,-1.7037,-1.7807,-1.8091,-1.8127,-1.8605,-1.899,-1.9301,-1.9301,-1.9301,-1.9301,-1.9301,-1.9301,-1.9366,-1.9756,-2.0159,-2.0594,-2.0989,-2.1401,-2.1678,-2.1632,-2.1321,-2.1034,-2.0989,-2.0378,-1.982,-1.982,-1.9577,-1.9301,-1.9301,-1.9301,-1.9641,-2.0707,-2.1422,-2.1824,-2.1561,-2.1576,-2.1652,-2.1642,-2.1652,-2.1652,-2.1756,-2.168,-2.168,-2.1766,-2.1804,-2.1794,-2.1794,-2.2268,-2.2692,-2.2852,-2.3372,-2.374,-2.3934,-2.4007,-2.4043,-2.408,-2.4152,-2.42,-2.42,-2.4515,-2.4671,-2.4718,-2.4587,-2.4145,-0.952,-0.979,-0.9867,-0.926,-0.9747,0.0,-0.9139,-0.9305,-0.9761,-1.0157,-1.0224,-1.0573,-1.1755,-1.2261,-1.2627,-1.3039,-1.3447,-1.3941,-1.4522,-1.4689,-1.4854,-1.5175,-1.5285,-1.546,-1.578,-1.5881,-1.6037,-1.626,-1.6288,-1.6101,-1.5606,-1.5349,-1.5212,-1.5212,-1.5606,-1.601,-1.6398,-1.6743,-1.6908,-1.6908,-1.6908,-1.6908,-1.6908,-1.6908,-1.6908,-1.6908,-1.6908,-1.7092,-1.7422,-1.788,-1.8091,-1.8155,-1.8907,-1.9228,-1.9301,-1.9301,-1.9301,-1.9301,-1.9301,-1.9301,-1.9366,-1.9756,-2.0159,-2.0594,-2.0989,-2.1401,-2.1623,-2.1328,-2.0943,-2.0558,-2.0204,-1.9797,-1.9421,-1.9421,-1.9356,-1.9301,-1.9301,-1.9301,-1.9369,-1.9601,-1.9769,-1.986,-1.9814,-2.0187,-2.0586,-2.0731,-2.0624,-2.0779,-2.1461,-2.1078,-2.0962,-2.1499,-2.168,-2.1794,-2.1794,-2.1918,-2.1993,-2.2031,-2.2145,-2.222,-2.2258,-2.2729,-2.3075,-2.3224,-2.3861,-2.42,-2.42,-2.387,-2.3905,-2.4298,-2.3203,-2.2914,-1.0181,-1.043,-1.0608,-1.024,-1.0437,0.0,0.0,-0.9748,-0.9782,-1.0415,-1.0144,-1.0105,-1.1112,-1.152,-1.1836,-1.2227,-1.2753,-1.3177,-1.3366,-1.4034,-1.4558,-1.4781,-1.4983,-1.5184,-1.5377,-1.557,-1.578,-1.5991,-1.6202,-1.6138,-1.5707,-1.5505,-1.5487,-1.5698,-1.5698,-1.5982,-1.6606,-1.6807,-1.6908,-1.6908,-1.6908,-1.6908,-1.6908,-1.6908,-1.6908,-1.6908,-1.6908,-1.7128,-1.7523,-1.7917,-1.82,-1.8476,-1.9072,-1.9301,-1.9301,-1.9301,-1.9301,-1.9301,-1.9301,-1.9439,-1.9687,-2.0049,-2.0451,-2.0888,-2.1291,-2.1522,-2.1604,-2.1227,-2.0824,-2.0429,-1.9994,-1.9613,-1.9301,-1.9301,-1.9301,-1.9301,-1.9301,-1.9301,-1.9301,-1.9301,-1.9301,-1.9301,-1.9301,-1.9539,-1.9775,-1.9883,-1.9814,-1.9923,-2.0343,-2.0109,-2.0031,-2.0382,-2.0498,-2.0527,-2.0527,-2.0847,-2.1039,-2.1155,-2.1461,-2.169,-2.1794,-2.208,-2.2306,-2.2419,-2.2793,-2.3016,-2.3016,-2.2462,-2.2702,-2.3593,-2.2923,-2.237,-1.0696,-1.104,-1.1456,-1.1336,-1.1156,-1.102,0.0,0.0,0.0,-1.0899,-1.0409,-1.0066,-1.0733,-1.0897,-1.1039,-1.1451,-1.1958,-1.2269,-1.2156,-1.3257,-1.4099,-1.4099,-1.4476,-1.4781,-1.4854,-1.5157,-1.5404,-1.556,-1.5817,-1.589,-1.5698,-1.5689,-1.5808,-1.6074,-1.59,-1.6083,-1.667,-1.6826,-1.6908,-1.6908,-1.6908,-1.6908,-1.6908,-1.6908,-1.6908,-1.6908,-1.6991,-1.7248,-1.7651,-1.8064,-1.8429,-1.8861,-1.9173,-1.9301,-1.9301,-1.9301,-1.9301,-1.9301,-1.9301,-1.9577,-1.9957,-2.0393,-2.0842,-2.1291,-2.1586,-2.1696,-2.1586,-2.1135,-2.0769,-2.0411,-1.9893,-1.9558,-1.9301,-1.9301,-1.9301,-1.9301,-1.9301,-1.9301,-1.9301,-1.9301,-1.9301,-1.9301,-1.9301,-1.9301,-1.9301,-1.9301,-1.9301,-1.9301,-1.9301,-1.9301,-1.9301,-1.9301,-1.9301,-1.9301,-1.9301,-1.9736,-2.0079,-2.0265,-2.0769,-2.1155,-2.1298,-2.1451,-2.1614,-2.1728,-2.1794,-2.1794,-2.1794,-2.1356,-2.1712,-2.2767,-2.2483,-2.1721,-1.1217,-1.1613,-1.1971,-1.1439,-1.1765,-1.1858,-1.0542,0.0,-1.0925,-1.0354,0.0,-1.0206,-1.0642,0.0,0.0,-1.0743,-1.127,-1.1614,-1.1589,-1.2148,-1.2582,-1.2715,-1.3195,-1.3635,-1.3983,-1.4095,-1.4387,-1.5111,-1.4882,-1.5001,-1.5652,-1.5689,-1.5551,-1.5249,-1.589,-1.6111,-1.5835,-1.6541,-1.6908,-1.6908,-1.6908,-1.6908,-1.6908,-1.6908,-1.6908,-1.6927,-1.7275,-1.7669,-1.8045,-1.8485,-1.888,-1.9237,-1.9283,-1.9301,-1.9301,-1.9301,-1.9301,-1.9301,-1.9301,-1.9577,-1.9957,-2.0393,-2.0991,-2.1632,-2.1678,-2.1696,-2.1531,-2.0763,-2.0549,-2.0347,-1.9567,-1.9338,-1.9301,-1.9301,-1.9301,-1.9301,-1.9301,-1.9301,-1.9301,-1.9301,-1.9301,-1.9301,-1.9301,-1.9301,-1.9301,-1.9301,-1.9301,-1.9301,-1.9301,-1.9301,-1.9301,-1.9301,-1.9301,-1.9301,-1.9301,-1.9341,-1.942,-1.9411,-1.9499,-1.9569,-1.9569,-2.0265,-2.0924,-2.1538,-2.1728,-2.1794,-2.1794,-2.1742,-2.179,-2.1907,-2.0705,-2.028,-1.0817,-1.1308,-1.1756,-1.1068,-1.1501,-1.1847,-1.0853,-1.0731,-1.0827,-1.0798,0.0,0.0,0.0,0.0,0.0,0.0,-1.0608,-1.0704,-1.045,-1.0901,-1.1621,-1.2618,-1.2779,-1.3122,-1.3818,-1.37,-1.3782,-1.435,-1.424,-1.4396,-1.4974,-1.5441,-1.5615,-1.545,-1.601,-1.623,-1.6056,-1.6615,-1.6908,-1.6908,-1.6908,-1.6908,-1.6908,-1.6908,-1.6908,-1.6927,-1.7321,-1.7734,-1.8118,-1.8512,-1.8944,-1.9301,-1.9301,-1.9301,-1.9301,-1.9301,-1.9301,-1.9338,-1.9577,-1.9893,-2.0332,-2.0973,-2.1412,-2.1696,-2.1696,-2.1522,-2.13,-2.0952,-2.0695,-2.0438,-2.009,-2.0008,-2.0008,-2.0008,-2.0008,-2.0008,-2.0008,-2.0008,-2.0008,-2.0008,-2.0008,-2.0008,-2.0008,-1.9613,-1.9301,-1.9301,-1.9301,-1.9301,-1.9301,-1.9301,-1.9301,-1.9301,-1.9301,-1.9301,-1.9301,-1.9301,-1.9301,-1.9301,-1.9301,-1.9301,-1.9301,-1.9608,-1.9923,-2.0226,-2.0304,-2.0343,-2.0343,-2.0343,-2.0343,-2.0333,-2.0236,-2.0053,-1.0562,-1.1159,-1.1714,-1.0827,-1.1079,-1.1384,-1.0762,-1.0484,-1.0439,-1.0771,-1.0434,0.0,0.0,0.0,-0.9935,-0.9735,0.0,-0.9986,-0.9468,-0.9856,-1.0684,-1.2033,-1.2358,-1.276,-1.346,-1.3141,-1.314,-1.3653,-1.3488,-1.3689,-1.4469,-1.5157,-1.5533,-1.5533,-1.6147,-1.6376,-1.6147,-1.6652,-1.6908,-1.6908,-1.6908,-1.6908,-1.6908,-1.6908,-1.6963,-1.7092,-1.7495,-1.7908,-1.832,-1.8715,-1.9045,-1.9301,-1.9301,-1.9301,-1.9301,-1.9301,-1.9301,-1.9366,-1.9747,-2.0223,-2.0796,-2.1458,-2.1696,-2.1668,-2.1559,-2.1385,-2.1236,-2.1007,-2.0814,-2.0649,-2.0549,-2.0521,-2.0521,-2.0521,-2.0521,-2.0521,-2.0521,-2.0521,-2.0521,-2.0521,-2.0521,-2.0521,-2.0521,-2.0026,-1.9632,-1.9632,-1.9632,-1.9595,-1.9485,-1.9476,-1.943,-1.9311,-1.9301,-1.9301,-1.9301,-1.9301,-1.9301,-1.9301,-1.9301,-1.9301,-1.9301,-1.9301,-1.9301,-1.9301,-1.9301,-1.9301,-1.9301,-1.9301,-1.9301,-1.9301,-1.9883,-1.9844,-1.0823,-1.1521,-1.2264,-1.0938,-1.0616,-1.0475,-0.9801,-0.9829,-0.9945,-0.9699,-0.9841,-0.9924,-0.9677,-0.967,-0.9514,-0.8848,-0.9337,0.0,0.0,-0.9207,-0.9678,-1.0322,-1.1637,-1.2516,-1.2543,-1.219,-1.2264,-1.3059,-1.2399,-1.2696,-1.4394,-1.49,-1.512,-1.512,-1.6266,-1.6514,-1.5716,-1.6505,-1.6908,-1.6908,-1.6908,-1.6908,-1.6908,-1.6908,-1.711,-1.7495,-1.7917,-1.833,-1.8724,-1.9118,-1.9292,-1.9301,-1.9301,-1.9301,-1.9301,-1.9301,-1.9301,-1.9366,-1.9747,-2.0438,-2.1163,-2.1549,-2.1696,-2.1614,-2.1245,-2.1401,-2.1504,-2.0717,-2.0805,-2.0998,-2.0622,-2.0521,-2.0521,-2.0521,-2.0521,-2.0521,-2.0521,-2.0521,-2.0521,-2.0521,-2.0521,-2.0521,-2.0521,-2.0493,-2.0484,-2.0484,-2.0484,-2.0296,-1.9921,-1.9866,-1.971,-1.9347,-1.9301,-1.9301,-1.9301,-1.9301,-1.9301,-1.9301,-1.9301,-1.9301,-1.9301,-1.9301,-1.9301,-1.9301,-1.9301,-1.9301,-1.9301,-1.9301,-1.9301,-1.9301,-1.9341,-1.9301,-1.0491,-1.1139,-1.1621,-1.0223,-1.0377,-1.061,-0.957,-0.9764,-1.0112,-1.0023,-1.0132,-1.0298,-1.0454,-0.9778,-0.9266,-0.9355,-0.9338,-0.921,0.0,-0.9236,-0.9726,-1.0252,-1.1208,-1.1864,-1.1966,-1.1849,-1.2018,-1.2652,-1.2461,-1.2832,-1.4038,-1.4983,-1.5217,-1.4575,-1.5963,-1.6335,-1.5569,-1.6317,-1.676,-1.6908,-1.6908,-1.6908,-1.6917,-1.7183,-1.7367,-1.7532,-1.8219,-1.8586,-1.8742,-1.9136,-1.9301,-1.9301,-1.9301,-1.9301,-1.9301,-1.9301,-1.9476,-1.9774,-2.0475,-2.1071,-2.1504,-2.165,-2.1504,-2.1346,-2.144,-2.1202,-2.0946,-2.1202,-2.1218,-2.1145,-2.1248,-2.1275,-2.1275,-2.1275,-2.1275,-2.1275,-2.1275,-2.1275,-2.1275,-2.1275,-2.1275,-2.1275,-2.1275,-2.1275,-2.1101,-2.0594,-2.0521,-2.0466,-2.0296,-2.0278,-2.0223,-2.0118,-2.0108,-1.9998,-1.9701,-1.9467,-1.9301,-1.9301,-1.9301,-1.9301,-1.9301,-1.9301,-1.9301,-1.9301,-1.9301,-1.9301,-1.9301,-1.9301,-1.9301,-1.9301,-1.9301,-1.9301,-1.0455,-1.0943,-1.1297,-0.9961,-1.0128,-1.0342,-0.9256,-0.942,-0.9782,-0.9699,-0.966,-0.9869,-1.0587,-0.9693,-0.9007,-0.9453,-0.9135,-0.8754,0.0,-0.9133,-0.9705,-1.0185,-1.0861,-1.1404,-1.166,-1.1396,-1.1498,-1.2237,-1.2146,-1.2498,-1.3533,-1.4787,-1.5186,-1.4523,-1.5864,-1.6296,-1.568,-1.6278,-1.6682,-1.6795,-1.6874,-1.6908,-1.6917,-1.7312,-1.7578,-1.7761,-1.8421,-1.8788,-1.8944,-1.9122,-1.9222,-1.9301,-1.9222,-1.9222,-1.932,-1.9467,-1.9879,-2.0378,-2.0934,-2.1339,-2.1668,-2.1522,-2.1385,-2.1328,-2.1266,-2.1092,-2.0991,-2.1357,-2.1385,-2.1348,-2.1623,-2.1696,-2.1696,-2.1696,-2.1696,-2.1696,-2.1696,-2.1696,-2.1696,-2.1696,-2.1696,-2.1696,-2.1696,-2.1696,-2.1513,-2.0991,-2.0909,-2.0897,-2.075,-2.0723,-2.0677,-2.0539,-2.0521,-2.042,-2.0122,-1.9888,-1.9677,-1.9531,-1.9522,-1.9457,-1.9311,-1.9301,-1.9301,-1.9301,-1.9301,-1.9301,-1.9301,-1.9301,-1.9301,-1.9301,-1.9301,-1.9301]},{"header":{"parameterUnit":"m.s-1","parameterCategory":1,"la1":30.6,"la2":29.2853,"lo1":-89.7004,"lo2":-87.6739,"dy":0.0162,"dx":0.0183,"nx":112,"ny":82,"refTime":"2026-02-25T12:00:00:Z","depth":0,"parameterNumber":3,"parameterNumberName":"V-component_of_WINDS"},"data":[0.0,0.0,0.0,0.0,0.0,0.0,0.0,0.0,0.0,0.0,0.0,0.0,0.0,0.0,0.0,0.0,0.0,0.0,0.0,0.0,0.0,0.0,0.0,0.0,0.0,0.0,0.0,0.0,0.0,0.0,0.0,0.0,0.0,0.0,0.0,0.0,0.0,0.0,0.0,0.0,0.0,0.0,0.0,0.0,0.0,0.0,0.0,0.0,0.0,0.0,0.0,0.0,0.0,0.0,0.0,0.0,0.0,0.0,0.0,0.0,0.0,0.0,0.0,0.0,0.0,0.0,0.0,0.0,0.0,0.0,0.0,0.0,0.0,0.0,0.0,0.0,0.0,0.0,0.0,0.0,0.0,0.0,0.0,0.0,0.0,0.0,0.0,0.0,0.0,0.0,0.6767,0.7976,0.8997,0.9762,1.016,0.9645,0.9178,0.8921,0.0,0.0,0.0,0.0,0.0,0.0,0.0,0.0,0.0,0.0,0.0,0.0,0.0,0.0,0.0,0.0,0.0,0.0,0.0,0.0,0.0,0.0,0.0,0.0,0.0,0.0,0.0,0.0,0.0,0.0,0.0,0.0,0.0,0.0,0.0,0.0,0.0,0.0,0.0,0.0,0.0,0.0,0.0,0.0,0.0,0.0,0.0,0.0,0.0,0.0,0.0,0.0,0.0,0.0,0.0,0.0,0.0,0.0,0.0,0.0,0.0,0.0,0.0,0.0,0.0,0.0,0.0,0.0,0.0,0.0,0.0,0.0,0.0,0.0,0.0,0.0,0.0,0.0,0.0,0.0,0.0,0.0,0.0,0.0,0.0,0.0,0.0,0.0,0.0,0.0,0.0,0.0,0.0,0.0,0.0,0.0,0.0,0.0,0.0,0.0,0.0,0.0,0.0,0.0,0.7014,0.8876,0.9639,1.0173,1.0571,1.0058,0.9478,0.8941,0.0,0.0,0.0,0.0,0.0,0.0,0.0,0.0,0.0,0.0,0.0,0.0,0.0,0.0,0.0,0.0,0.0,0.0,0.0,0.0,0.0,0.0,0.0,0.0,0.0,0.0,0.0,0.0,0.0,0.0,0.0,0.0,0.0,0.0,0.0,0.0,0.0,0.0,0.0,0.0,0.0,0.0,0.0,0.0,0.0,0.0,0.0,0.0,0.0,0.0,0.0,0.0,0.0,0.0,0.0,0.0,0.0,0.0,0.0,0.0,0.0,0.0,0.0,0.0,0.0,0.0,0.0,0.0,0.0,0.0,0.0,0.0,0.0,0.0,0.0,0.0,0.0,0.0,0.0,0.0,0.0,0.0,0.0,0.0,0.0,0.0,0.0,0.0,0.0,0.0,0.0,0.0,0.0,0.0,0.0,0.0,0.0,0.0,0.0,0.0,0.0,0.0,0.0,0.6878,0.7736,0.9256,0.9627,0.9944,1.0336,0.9823,0.9314,0.8931,0.7499,0.0,0.0,0.0,0.0,0.0,0.0,0.0,0.0,0.0,0.0,0.0,0.0,0.0,0.0,0.0,0.0,0.0,0.0,0.0,0.0,0.0,0.0,0.0,0.0,0.0,0.0,0.0,0.0,0.0,0.0,0.0,0.0,0.0,0.0,0.0,0.0,0.0,0.0,0.0,0.0,0.0,0.0,0.0,0.0,0.0,0.0,0.0,0.0,0.0,0.0,0.0,0.0,0.0,0.0,0.0,0.0,0.0,0.0,0.0,0.0,0.0,0.0,0.0,0.0,0.0,0.0,0.0,0.0,0.0,0.0,0.0,0.0,0.0,0.0,0.0,0.0,0.0,0.0,0.0,0.0,0.0,0.0,0.0,0.0,0.0,0.0,0.0,0.0,0.0,0.0,0.0,0.0,0.0,0.0,0.0,0.0,0.0,0.0,0.0,0.0,0.0,0.0,0.7911,0.8332,0.9444,0.9564,0.9736,1.0135,0.9632,0.9189,0.8941,0.7283,0.0,0.0,0.0,0.0,0.0,0.0,0.0,0.0,0.0,0.0,0.0,0.0,0.0,0.0,0.0,0.0,0.0,0.0,0.0,0.0,0.0,0.0,0.0,0.0,0.0,0.0,0.0,0.0,0.0,0.0,0.0,0.0,0.0,0.0,0.0,0.0,0.0,0.0,0.0,0.0,0.0,0.0,0.0,0.0,0.0,0.0,0.0,0.0,0.0,0.0,0.0,0.0,0.0,0.0,0.0,0.0,0.0,0.0,0.0,0.0,0.0,0.0,0.0,0.0,0.0,0.0,0.0,0.0,0.0,0.0,0.0,0.0,0.0,0.0,0.0,0.0,0.0,0.0,0.0,0.0,0.0,0.0,0.0,0.0,0.0,0.0,0.0,0.0,0.0,0.0,0.0,0.0,0.0,0.0,0.0,0.0,0.0,0.0,0.0,0.0,0.0,0.0,0.7911,0.839,0.9652,0.9776,0.9944,1.0349,0.9893,0.9397,0.9022,0.7359,0.0,0.0,0.0,0.0,0.0,0.0,0.0,0.0,0.0,0.0,0.0,0.0,0.0,0.0,0.0,0.0,0.0,0.0,0.0,0.0,0.0,0.0,0.0,0.0,0.0,0.0,0.0,0.0,0.0,0.0,0.0,0.0,0.0,0.0,0.0,0.0,0.0,0.0,0.0,0.0,0.0,0.0,0.0,0.0,0.0,0.0,0.0,0.0,0.0,0.0,0.0,0.0,0.0,0.0,0.0,0.0,0.0,0.0,0.0,0.0,0.0,0.0,0.0,0.0,0.0,0.0,0.0,0.0,0.0,0.0,0.0,0.0,0.0,0.0,0.0,0.0,0.0,0.0,0.0,0.0,0.0,0.0,0.0,0.0,0.0,0.0,0.0,0.0,0.0,0.0,0.0,0.0,0.0,0.0,0.0,0.0,0.0,0.0,0.0,0.0,0.0,0.0,0.8291,0.8826,0.965,0.9736,0.9918,1.0362,0.9835,0.9375,0.9143,0.0,0.0,0.0,0.0,0.0,0.0,0.0,0.0,0.0,0.0,0.0,0.0,0.0,0.0,0.0,0.0,0.0,0.0,0.0,0.0,0.0,0.0,0.0,0.0,0.0,0.0,0.0,0.0,0.0,0.0,0.0,0.0,0.0,0.0,0.0,0.0,0.0,0.0,0.0,0.0,0.0,0.0,0.0,0.0,0.0,0.0,0.0,0.0,0.0,0.0,0.0,0.0,0.0,0.0,0.0,0.0,0.0,0.0,0.0,0.0,0.0,0.0,0.0,0.0,0.0,0.0,0.0,0.0,0.0,0.0,0.0,0.0,0.0,0.0,0.0,0.0,0.0,0.0,0.0,0.0,0.0,0.0,0.0,0.0,0.0,0.0,0.0,0.0,0.0,0.0,0.0,0.0,0.0,0.0,0.0,0.0,0.0,0.0,0.0,0.0,0.0,0.0,0.7801,0.852,0.9034,0.9403,0.9439,0.9542,0.9742,0.9037,0.8647,0.8806,0.0,0.0,0.0,0.0,0.0,0.0,0.0,0.0,0.0,0.0,0.0,0.0,0.0,0.0,0.0,0.0,0.0,0.0,0.0,0.0,0.0,0.0,0.0,0.0,0.0,0.0,0.0,0.0,0.0,0.0,0.0,0.0,0.0,0.0,0.0,0.0,0.0,0.0,0.0,0.0,0.0,0.0,0.0,0.0,0.0,0.0,0.0,0.0,0.0,0.0,0.0,0.0,0.0,0.0,0.0,0.0,0.0,0.0,0.0,0.0,0.0,0.0,0.0,0.0,0.0,0.0,0.0,0.0,0.0,0.0,0.0,0.0,0.0,0.0,0.0,0.0,0.0,0.0,0.0,0.0,0.0,0.0,0.0,0.0,0.0,0.0,0.0,0.0,0.0,0.0,0.0,0.0,0.0,0.0,0.0,0.0,0.0,0.0,0.0,0.0,0.0,0.0,0.7789,0.8519,0.8899,0.8899,0.8899,0.8759,0.8423,0.7416,0.714,0.0,0.0,0.0,0.0,0.0,0.0,0.0,0.0,0.0,0.0,0.0,0.0,0.0,0.0,0.0,0.0,0.0,0.0,0.0,0.0,0.0,0.0,0.0,0.0,0.0,0.0,0.0,0.0,0.0,0.0,0.0,0.0,0.0,0.0,0.0,0.0,0.0,0.0,0.0,0.0,0.0,0.0,0.0,0.0,0.0,0.0,0.0,0.0,0.0,0.0,0.0,0.0,0.0,0.0,0.0,0.0,0.0,0.0,0.0,0.0,0.0,0.0,0.0,0.0,0.0,0.0,0.0,0.0,0.0,0.0,0.0,0.0,0.0,0.0,0.0,0.0,0.0,0.0,0.0,0.0,0.0,0.0,0.0,0.0,0.0,0.0,0.0,0.0,0.0,0.0,0.0,0.0,0.0,0.0,0.0,0.0,0.0,0.0,0.0,0.0,0.0,0.0,0.0,0.7402,0.8079,0.8481,0.8481,0.8481,0.8506,0.8607,0.7541,0.7251,0.8153,0.0,0.0,0.0,0.0,0.0,0.0,0.0,0.0,0.0,0.0,0.0,0.0,0.0,0.0,0.0,0.0,0.0,0.0,0.0,0.0,0.0,0.0,0.0,0.0,0.0,0.0,0.0,0.0,0.0,0.0,0.0,0.0,0.0,0.0,0.0,0.0,0.0,0.0,0.0,0.0,0.0,0.0,0.0,0.0,0.0,0.0,0.0,0.0,0.0,0.0,0.0,0.0,0.0,0.0,0.0,0.0,0.0,0.0,0.0,0.0,0.0,0.0,0.0,0.0,0.0,0.0,0.0,0.0,0.0,0.0,0.0,0.0,0.0,0.0,0.0,0.0,0.0,0.0,0.0,0.0,0.0,0.0,0.0,0.0,0.0,0.0,0.0,0.0,0.0,0.0,0.0,0.0,0.0,0.0,0.0,0.0,0.0,0.0,0.0,0.0,0.0,0.0,0.7237,0.7885,0.82,0.7964,0.7939,0.7832,0.7564,0.6681,0.64,0.7031,0.0,0.0,0.0,0.0,0.0,0.0,0.0,0.0,0.0,0.0,0.0,0.0,0.0,0.0,0.0,0.0,0.0,0.0,0.0,0.0,0.0,0.0,0.0,0.0,0.0,0.0,0.0,0.0,0.0,0.0,0.0,0.0,0.0,0.0,0.0,0.0,0.0,0.0,0.0,0.0,0.0,0.0,0.0,0.0,0.0,0.0,0.0,0.0,0.0,0.0,0.0,0.0,0.0,0.0,0.0,0.0,0.0,0.0,0.0,0.0,0.0,0.0,0.0,0.0,0.0,0.0,0.0,0.0,0.0,0.0,0.0,0.0,0.0,0.0,0.0,0.0,0.0,0.0,0.0,0.0,0.0,0.0,0.0,0.0,0.0,0.0,0.0,0.0,0.0,0.0,0.0,0.0,0.0,0.0,0.0,0.0,0.0,0.0,0.0,0.0,0.0,0.0,0.7163,0.776,0.7937,0.7381,0.7331,0.6915,0.5888,0.5356,0.5113,0.5193,0.0,0.0,0.0,0.0,0.0,0.0,0.0,0.0,0.0,0.0,0.0,0.0,0.0,0.0,0.0,0.0,0.0,0.0,0.0,0.0,0.0,0.0,0.0,0.0,0.0,0.0,0.0,0.0,0.0,0.0,0.0,0.0,0.0,0.0,0.0,0.0,0.0,0.0,0.0,0.0,0.0,0.0,0.0,0.0,0.0,0.0,0.0,0.0,0.0,0.0,0.0,0.0,0.0,0.0,0.0,0.0,0.0,0.0,0.0,0.0,0.7832,0.7381,0.0,0.0,0.0,0.0,0.0,0.0,0.0,0.0,0.0,0.0,0.0,0.0,0.0,0.0,0.0,0.0,0.0,0.0,0.0,0.0,0.0,0.0,0.0,0.0,0.0,0.0,0.0,0.0,0.0,0.0,0.0,0.0,0.0,0.0,0.0,0.0,0.0,0.0,0.0,0.0,0.6655,0.6842,0.6912,0.6787,0.6774,0.6499,0.5858,0.5695,0.5501,0.5213,0.4807,0.0,0.0,0.0,0.0,0.0,0.0,0.0,0.0,0.0,0.0,0.0,0.0,0.0,0.0,0.0,0.0,0.0,0.0,0.0,0.0,0.0,0.0,0.0,0.0,0.0,0.0,0.0,0.0,0.0,0.0,0.0,0.0,0.0,0.0,0.0,0.0,0.0,0.0,0.0,0.0,0.0,0.0,0.0,0.0,0.0,0.0,0.0,0.0,0.0,0.0,0.0,0.0,0.0,0.0,0.0,0.0,0.0,0.0,0.0,0.8833,0.8607,0.0,0.0,0.0,0.0,0.0,0.0,0.0,0.0,0.0,0.0,0.0,0.0,0.0,0.0,0.0,0.0,0.0,0.0,0.0,0.0,0.0,0.0,0.0,0.0,0.0,0.0,0.0,0.0,0.0,0.0,0.0,0.0,0.0,0.0,0.0,0.0,0.0,0.0,0.0,0.0,0.65,0.6564,0.6599,0.6599,0.6599,0.6382,0.5845,0.5808,0.5607,0.5176,0.4894,0.0,0.0,0.0,0.0,0.0,0.0,0.0,0.0,0.0,0.0,0.0,0.0,0.0,0.0,0.0,0.0,0.0,0.0,0.0,0.0,0.0,0.0,0.0,0.0,0.0,0.0,0.0,0.0,0.0,0.0,0.0,0.0,0.0,0.0,0.0,0.0,0.0,0.0,0.0,0.0,0.0,0.0,0.0,0.0,0.0,0.0,0.0,0.0,0.0,0.0,0.0,0.0,0.0,1.087,1.1211,1.1304,1.086,1.1162,1.1948,1.0083,1.0151,1.1433,0.9611,0.0,0.0,0.0,0.0,0.0,0.0,0.0,0.0,0.0,0.0,0.0,0.0,0.0,0.0,0.0,0.0,0.0,0.0,0.0,0.0,0.0,0.0,0.8309,0.7711,0.7949,0.7922,0.6528,0.0,0.0,0.0,0.0,0.0,0.0,0.0,0.0,0.0,0.0,0.0,0.6647,0.6698,0.6737,0.6737,0.6737,0.6486,0.5858,0.5888,0.5699,0.5119,0.5183,0.5012,0.0,0.0,0.0,0.0,0.0,0.0,0.0,0.0,0.0,0.0,0.0,0.0,0.0,0.0,0.0,0.0,0.0,0.0,0.0,0.0,0.0,0.0,0.0,0.0,0.0,0.0,0.0,0.0,0.0,0.0,0.0,0.0,0.8199,0.9477,0.0,0.0,0.0,0.0,0.0,0.0,0.0,0.0,0.0,0.0,0.0,0.0,0.0,1.0686,1.085,1.192,1.2453,1.2481,1.2524,1.2539,1.2554,1.2251,1.2333,1.2623,1.1653,0.0,1.1713,1.0142,0.0,0.0,0.0,0.0,0.0,0.0,0.0,0.0,0.0,0.0,0.0,0.0,0.0,0.0,0.0,0.0,0.0,0.0,0.0,0.0,0.0,0.0,0.8941,0.8397,0.8291,0.8248,0.8022,0.7197,0.6637,0.7103,0.6445,0.5923,0.0,0.0,0.0,0.0,0.0,0.0,0.7222,0.7294,0.7294,0.7294,0.7294,0.689,0.5875,0.6231,0.6064,0.5073,0.5502,0.5344,0.4362,0.4442,0.0,0.0,0.0,0.0,0.0,0.0,0.0,0.0,0.0,0.0,0.0,0.0,0.0,0.0,0.0,0.0,0.0,0.0,0.0,0.0,0.0,0.0,0.0,0.0,0.0,0.0,0.0,0.0,0.0,0.7903,0.8501,0.9351,0.8986,0.8799,0.0,0.0,0.0,0.0,0.0,0.0,0.0,0.0,0.0,1.1076,1.1728,1.2148,1.2324,1.35,1.3922,1.3579,1.3936,1.3977,1.3816,1.3688,1.3704,1.3816,1.381,1.3651,1.3269,1.1428,1.1149,1.1757,0.0,0.0,0.0,0.0,1.0468,1.0328,1.1148,1.1134,1.069,1.0189,0.0,0.0,0.0,0.0,0.0,0.0,0.0,1.0148,0.9877,1.02,1.0465,0.9932,0.9717,0.9654,0.9654,0.8777,0.7985,0.7914,0.7771,0.742,0.6682,0.6831,0.0,0.0,0.0,0.7141,0.7369,0.7691,0.7901,0.7901,0.7603,0.7206,0.6737,0.6637,0.6407,0.5926,0.5901,0.5696,0.5216,0.4753,0.4515,0.0,0.0,0.0,0.0,0.0,0.0,0.0,0.0,0.0,0.0,0.0,0.0,0.0,0.0,0.0,0.0,0.0,0.0,0.0,0.0,0.0,0.0,0.0,0.0,0.0,0.0,0.0,0.0,0.8781,0.9124,0.9563,1.0023,1.0101,0.0,0.0,0.0,0.0,0.0,0.0,1.179,1.1937,1.2305,1.2983,1.3474,1.3771,1.3856,1.4799,1.4959,1.4362,1.4641,1.4635,1.4406,1.4406,1.4472,1.4611,1.4943,1.4977,1.4681,1.2847,1.251,1.3042,1.1731,1.1214,1.1264,1.1844,1.1807,1.1606,1.2677,1.2657,1.2056,1.1402,1.1084,1.0729,0.9682,0.0,0.0,0.0,0.0,1.1178,1.0949,1.1214,1.1436,1.1015,1.073,1.0522,1.0494,0.9981,0.9315,0.8625,0.8724,0.8498,0.7247,0.7375,0.0,0.6566,0.7112,0.7628,0.7628,0.8024,0.8298,0.8298,0.7901,0.7566,0.7418,0.7041,0.6749,0.6611,0.6267,0.6023,0.5883,0.522,0.4896,0.4964,0.0,0.0,0.0,0.0,0.0,0.0,0.0,0.0,0.0,0.0,0.0,0.0,0.0,0.0,0.0,0.0,0.0,0.0,0.0,0.0,0.0,0.0,0.0,0.0,0.0,0.0,0.0,0.0,0.0,1.0962,1.1902,0.0,0.0,0.0,0.0,1.2863,1.2377,1.2208,1.2443,1.2692,1.2969,1.3266,1.5015,1.5766,1.5393,1.564,1.5519,1.5036,1.4235,1.386,1.3844,1.3844,1.4132,1.4559,1.4092,1.4485,1.5356,1.4158,1.334,1.2771,1.2113,1.1822,1.184,1.2499,1.274,1.2727,1.286,1.2888,1.2834,1.2797,1.2724,1.2558,1.1918,1.1704,0.0,0.0,1.2269,1.1997,1.2609,1.1954,1.1117,1.1023,1.0506,1.0021,0.9956,1.0294,1.0306,0.9265,0.8674,0.8311,0.8236,0.0,0.8225,0.8185,0.8223,0.825,0.825,0.8286,0.8298,0.8298,0.8273,0.8024,0.7443,0.7381,0.7131,0.6637,0.6582,0.634,0.582,0.5826,0.5357,0.4367,0.5046,0.0,0.0,0.0,0.0,0.0,0.0,0.0,0.0,0.0,0.0,0.0,0.0,0.0,0.0,0.0,0.0,0.0,0.0,0.0,0.0,0.0,0.0,0.0,0.0,0.0,0.0,0.0,0.0,1.3008,1.3123,0.0,1.2111,1.2633,1.3163,1.3558,1.3685,1.3961,1.4467,1.4738,1.4934,1.5019,1.5519,1.5778,1.5813,1.6107,1.595,1.5361,1.5049,1.4676,1.4297,1.4297,1.4415,1.4598,1.4825,1.4899,1.4886,1.448,1.4415,1.451,1.4297,1.4189,1.4198,1.4458,1.4289,1.3967,1.3984,1.3778,1.3425,1.3032,1.2622,1.2316,1.2487,1.2524,1.2639,1.3272,1.3285,1.3181,1.3409,1.3113,1.2709,1.2677,1.1908,1.1143,1.1071,1.0627,1.0234,1.0144,0.9968,0.9617,0.8938,0.8812,0.8699,0.8349,0.8598,0.8812,0.8812,0.8812,0.895,0.929,0.8713,0.8361,0.8487,0.7826,0.7319,0.7128,0.679,0.6511,0.6319,0.5717,0.5203,0.4827,0.4422,0.4016,0.0,0.0,0.0,0.0,0.0,0.0,0.0,0.0,0.0,0.0,0.0,0.0,0.0,0.0,0.0,0.0,0.0,0.0,0.0,0.0,0.0,0.0,0.0,0.0,0.0,1.304,1.3828,1.4041,1.4804,1.479,1.3441,1.415,1.4768,1.4953,1.5272,1.5586,1.5913,1.6293,1.6381,1.6147,1.6268,1.6368,1.6395,1.6569,1.6381,1.5787,1.5591,1.5291,1.4899,1.4899,1.5003,1.5225,1.5617,1.567,1.5474,1.5474,1.5604,1.5748,1.5375,1.5204,1.5212,1.5421,1.5238,1.4872,1.4663,1.438,1.3958,1.3399,1.2938,1.2688,1.3082,1.3203,1.3294,1.3687,1.3804,1.3804,1.3804,1.3568,1.3363,1.3346,1.2559,1.1778,1.1513,1.0861,1.0351,1.0448,1.0596,1.0545,1.0031,0.9767,0.9579,0.9428,0.939,0.9365,0.9365,0.9214,0.9239,0.9592,0.8989,0.8724,0.9075,0.8411,0.7814,0.7418,0.7066,0.679,0.6611,0.5959,0.552,0.5343,0.475,0.4462,0.4508,0.0,0.0,0.0,0.0,0.0,0.0,0.0,0.0,0.0,0.0,0.0,0.0,0.0,0.0,0.0,0.0,0.0,0.0,0.0,0.0,0.0,0.0,0.0,1.2575,1.4372,1.5388,1.411,1.6991,1.7976,1.5226,1.6898,1.7859,1.7161,1.7101,1.6964,1.6652,1.7202,1.7177,1.6454,1.7304,1.7585,1.7225,1.7075,1.6826,1.6441,1.584,1.5539,1.5539,1.5513,1.5826,1.6388,1.6375,1.6663,1.7146,1.7146,1.6833,1.6245,1.5108,1.4663,1.4733,1.5317,1.5539,1.5434,1.4851,1.4642,1.455,1.4027,1.3857,1.3857,1.3831,1.3831,1.3817,1.3788,1.3804,1.3804,1.3804,1.3373,1.2912,1.2862,1.2359,1.1774,1.1177,1.1035,1.0828,1.0173,1.0423,1.0908,1.1462,1.1096,1.0933,1.1515,1.0673,0.0,0.9931,0.9453,0.9138,0.9151,0.9138,0.9138,0.9151,0.9138,0.8637,0.7493,0.7406,0.7156,0.6624,0.6586,0.6319,0.5783,0.6094,0.6263,0.629,0.0,0.0,0.0,0.0,0.0,0.0,0.0,0.0,0.0,0.0,0.0,0.0,0.0,0.0,0.0,0.0,0.0,0.0,0.0,0.0,0.0,1.4485,1.5516,1.5535,1.6653,1.7438,1.7354,1.7901,1.7793,1.6479,1.6873,1.7266,1.7448,1.719,1.7162,1.7449,1.764,1.7497,1.6997,1.705,1.7337,1.7839,1.7624,1.7544,1.763,1.7016,1.6728,1.6702,1.5866,1.5826,1.6395,1.5931,1.5826,1.5957,1.5957,1.5866,1.5787,1.6284,1.6245,1.597,1.6532,1.648,1.6062,1.5461,1.5251,1.5225,1.5068,1.5029,1.4938,1.4507,1.4393,1.4302,1.3909,1.3804,1.3804,1.3804,1.3674,1.3556,1.3523,1.3066,1.255,1.2288,1.1895,1.1503,1.1206,1.1263,1.1274,1.0996,1.1159,1.1412,1.1578,1.1324,1.0973,1.0545,1.0018,0.983,1.0219,0.9918,0.983,1.0231,0.9905,0.9215,0.8125,0.7641,0.7156,0.6624,0.6219,0.577,0.523,0.5305,0.5552,0.0,0.0,0.0,0.0,0.0,0.0,0.0,0.0,0.0,0.0,0.0,0.0,0.0,0.0,0.0,0.0,0.0,0.0,0.0,0.0,0.0,0.0,1.591,1.7046,1.7759,1.8281,1.8646,1.8725,1.8865,1.8691,1.8025,1.7901,1.7968,1.8142,1.8032,1.8062,1.8283,1.8452,1.8369,1.7939,1.7755,1.7935,1.8427,1.8046,1.7962,1.8087,1.7486,1.7199,1.7173,1.6506,1.6402,1.6715,1.6362,1.6205,1.6205,1.6205,1.6075,1.5931,0.0,0.0,0.0,0.0,1.7003,1.665,1.6075,1.5866,1.5846,1.5578,1.5487,1.5421,1.5082,1.4977,1.4859,1.4302,1.4145,1.4092,1.387,1.3804,1.3804,1.3804,1.353,1.32,1.2857,1.2515,1.2144,1.1806,1.1928,0.0,1.1273,1.1406,1.1691,1.1902,1.1738,1.155,1.1435,1.072,1.0356,1.0669,1.0219,1.0031,1.0344,1.0081,0.0,0.0,0.0,0.7751,0.6966,0.642,0.0,0.0,0.0,0.0,0.0,0.0,0.0,0.0,0.5698,0.5157,0.0,0.0,0.0,0.0,0.0,0.0,0.0,0.0,0.0,0.0,0.0,0.0,0.0,0.0,0.0,0.0,1.7395,1.8576,1.9317,1.9472,1.9371,1.8959,1.9697,2.0058,1.9546,1.9509,1.9413,1.9147,1.9344,1.9384,1.9134,1.9443,0.0,0.0,0.0,1.8911,1.8911,1.8427,1.8192,1.8179,1.7591,1.7329,1.7382,1.7264,1.7238,1.7303,1.7225,1.7199,1.7199,1.7199,1.6911,1.648,1.6415,1.6428,1.6545,1.7016,1.7199,1.7133,1.665,0.0,0.0,1.5866,1.5683,1.567,1.5617,1.5591,1.5492,1.4859,1.4689,1.4585,1.4118,1.3948,1.3896,1.3896,1.3844,1.366,1.3095,1.2977,1.2776,1.2111,1.2419,1.2584,1.1904,1.1746,1.1857,1.2269,1.1983,1.187,1.2282,1.1515,1.0924,1.0924,1.0498,0.0,1.012,1.0107,0.9818,0.915,0.905,0.855,0.7543,0.705,0.7025,0.7493,0.7733,0.8067,0.8482,0.8602,0.8378,0.7868,0.7383,0.6555,0.0,0.0,0.0,0.0,0.0,0.0,0.0,0.0,0.0,0.0,0.0,0.0,0.0,0.0,0.0,1.7562,1.8499,1.9333,2.0011,2.0564,2.0581,1.9703,1.9781,1.9942,2.0044,2.0193,2.0361,2.0506,2.0563,2.0351,1.9841,1.9836,1.9605,1.908,1.8966,1.8911,1.8911,1.8806,1.8754,1.8741,1.8192,0.0,1.8545,1.7617,1.7473,1.7904,1.7408,1.7199,1.7199,1.7199,1.7133,1.7003,1.6558,1.6663,1.7055,1.716,1.7199,1.7186,1.7081,1.7042,1.7029,1.6911,1.6872,1.6781,1.6349,1.6219,0.0,1.5487,1.5317,1.5291,1.5204,1.4825,1.4459,1.4459,1.4118,1.3732,1.3506,1.3463,1.3278,1.2662,1.2633,1.2527,1.1904,1.214,1.23,1.1971,1.2198,1.2287,1.1959,1.2142,1.2314,1.2314,1.2224,1.1953,1.1476,1.138,1.073,0.9272,0.872,0.8361,0.8137,0.8024,0.8012,0.8125,0.8177,0.8249,0.8329,0.8363,0.8372,0.8352,0.7771,0.717,0.0,0.0,0.0,0.0,0.0,0.0,0.0,0.0,0.0,0.0,0.0,1.5116,1.644,0.0,1.8192,1.953,2.0071,2.0551,2.1211,2.147,2.1347,2.0627,2.084,2.1102,2.1242,2.1141,2.1143,2.138,2.1341,2.1069,2.0531,2.0657,2.0491,1.9917,1.9546,1.9355,1.9355,1.878,1.8506,1.8493,1.7917,1.7787,1.8035,1.746,1.7356,1.763,1.7329,1.7199,1.7199,1.7199,1.7199,1.7173,1.6898,1.6963,1.7199,1.7199,1.7199,1.7199,1.7199,1.7199,1.7199,1.7199,1.7199,1.7146,1.6872,1.6794,1.6676,1.6101,1.5944,1.5866,1.5578,1.5283,1.4964,1.4663,1.4406,1.4114,1.3777,1.3695,1.3617,1.3314,1.3246,1.3064,1.245,1.2564,1.2607,1.2214,1.2386,1.2447,1.2136,1.1875,1.17,1.17,1.1458,1.1293,1.1249,1.153,1.1199,1.002,0.9476,0.9047,0.8712,0.8437,0.8298,0.8298,0.8298,0.8446,0.8755,0.8721,0.8882,0.9251,0.8902,0.837,0.0,0.0,0.0,0.0,0.0,0.0,0.0,1.3679,1.4206,1.5683,1.6437,1.7131,1.8207,1.91,2.0042,2.1119,2.1411,2.1689,2.2228,2.2114,2.1858,2.1513,2.1944,2.221,2.221,2.1987,2.1949,2.2259,2.2106,2.1865,2.1518,2.1643,2.1482,2.0923,2.0327,1.9965,1.9799,1.8885,1.8375,1.8244,1.7761,1.7525,1.7525,1.7525,1.7525,1.7525,1.7525,1.7525,1.7525,1.7525,1.7473,1.7369,1.7369,1.7369,1.7369,1.7369,1.7434,1.7512,1.7408,1.7369,1.7356,1.7238,1.7199,1.7199,1.7199,1.7199,1.7107,1.6676,1.6565,1.6441,1.5957,1.5748,1.5539,1.5055,1.4768,1.448,1.4053,1.387,1.3804,1.3804,1.3804,1.3647,1.3163,1.3072,1.2927,1.2472,1.2504,1.2564,1.25,1.1703,1.1134,1.1134,1.0628,1.0438,1.0752,1.1175,1.1226,1.0788,1.044,1.0072,0.9641,0.9212,0.8974,0.8962,0.8962,0.9199,0.9678,0.9629,0.9869,1.0352,1.0286,0.9729,1.6348,1.5162,1.4517,1.5408,1.4855,1.4852,0.0,1.7145,1.6437,1.8439,1.8901,1.8994,1.9148,2.0227,2.1119,2.1273,2.1797,2.2212,2.2289,2.2267,2.2236,2.2178,2.203,2.192,2.1862,2.235,2.2917,2.3547,2.3302,2.3179,2.3302,2.2628,2.2049,2.1688,2.1137,2.053,1.9812,1.9682,1.9342,1.8819,1.8741,1.8715,1.8715,1.8715,1.8715,1.8715,1.8715,1.8715,1.8715,1.8715,1.8427,1.7996,1.7996,1.7996,1.7996,1.7996,1.8296,1.8649,1.8166,1.7996,1.7904,1.7369,1.7199,1.7199,1.7199,1.7199,1.7186,1.7133,1.7107,1.7094,1.7029,1.665,1.6271,1.6205,1.5369,1.4572,1.4507,1.4145,1.3804,1.3804,1.3804,1.3778,1.3713,1.37,1.333,1.221,1.2514,1.2839,1.2839,1.2722,1.2644,1.2644,1.2121,1.1572,1.1103,1.0637,1.0534,1.0943,1.0918,1.1071,1.1478,1.1439,1.1385,1.1313,1.1313,1.1353,1.1416,1.1416,1.1471,1.1593,1.1593,1.0924,1.8269,1.7591,1.7006,1.6362,1.6377,1.6793,1.7853,1.7715,1.7838,1.9517,1.9888,2.0119,2.0888,2.118,2.155,2.2351,2.2686,2.3009,2.3409,2.3117,2.2732,2.2351,2.221,2.2286,2.2629,2.2738,2.3156,2.4027,2.3603,2.3348,2.3486,2.2942,2.2434,2.1926,2.127,2.0654,2.0038,1.9611,1.9215,1.8911,1.8911,1.8911,1.8911,1.8911,1.8911,1.8911,1.8911,1.8911,1.8911,1.8911,1.8767,1.8571,1.8571,1.878,1.9015,1.8336,1.844,1.8872,1.8649,1.8571,1.8532,1.827,1.8192,1.8127,1.7813,1.7721,1.7643,1.7303,1.7199,1.7199,1.7199,1.7029,1.6781,1.6467,1.6009,1.5539,1.5199,1.4663,1.4275,1.4275,1.4014,1.3804,1.3804,1.3804,1.3634,1.3118,1.2933,1.2823,1.2776,1.2476,1.2267,1.2267,1.2032,1.1785,1.1539,1.1308,1.114,1.1009,1.1332,1.1474,1.1341,1.1635,1.1784,1.1755,1.1755,1.1784,1.1829,1.1784,1.1784,1.1859,1.1829,1.1514,1.9224,1.8993,1.8685,1.7376,1.7792,1.8469,1.8361,1.8715,1.9345,2.0364,2.0718,2.1042,2.1642,2.1658,2.1889,2.2855,2.3179,2.3533,2.421,2.3563,2.284,2.2347,2.1981,2.2012,2.2671,2.2773,2.3142,2.3974,2.367,2.3458,2.3508,2.3201,2.2791,2.2263,2.1537,2.0992,2.0631,1.9967,1.9568,1.9441,1.9418,1.9405,1.9405,1.9405,1.9405,1.9405,1.9405,1.9405,1.9405,1.9405,1.9303,1.9159,1.9159,1.942,1.9708,1.8872,1.8924,1.9368,1.9211,1.9159,1.9133,1.8963,1.8911,1.8832,1.844,1.8218,1.8009,1.7565,1.7329,1.7199,1.7199,1.7199,1.7094,1.6702,1.6506,1.6271,1.584,1.5265,1.4846,1.4846,1.452,1.4223,1.4053,1.4027,1.3975,1.3831,1.3389,1.3068,1.3006,1.2484,1.2041,1.1871,1.1859,1.1859,1.1859,1.189,1.1737,1.1295,1.1685,1.1724,1.1282,1.1811,1.209,1.2088,1.2229,1.2322,1.237,1.2322,1.2337,1.2429,1.22,1.209,1.8606,1.8238,1.8391,1.9039,1.924,1.9595,2.0872,2.1196,2.1227,2.1257,2.1797,2.1858,2.0597,2.1411,2.227,2.2317,2.2871,2.3533,2.421,2.3163,2.2317,2.2305,2.115,2.061,2.1304,2.2226,2.296,2.3297,2.3624,2.3797,2.3797,2.3458,2.315,2.2889,2.2165,2.1779,2.1742,2.1199,2.0908,2.0848,2.0709,2.066,2.066,2.066,2.066,2.066,2.066,2.066,2.066,2.066,2.0308,1.9773,1.9773,1.9786,1.9799,1.9773,2.0137,2.0543,1.9969,1.9773,1.9682,1.9094,1.8911,1.8911,1.8885,1.8506,1.81,1.8074,1.7643,1.7199,1.7199,1.7199,1.7199,1.7186,1.6781,1.6388,1.6395,1.5892,1.5461,1.5461,1.5466,1.5251,1.4681,1.4589,1.4406,1.3883,1.3778,1.3778,1.3762,1.3239,1.2651,1.2058,1.1993,1.1993,1.1993,1.2007,1.1993,1.1967,1.198,1.198,1.1967,1.2544,1.2839,1.2771,1.3288,1.3546,1.3546,1.3546,1.3609,1.3739,1.3134,1.2839,1.9469,1.9592,1.9763,2.0441,2.0949,2.1288,2.1304,2.1642,2.1843,2.1381,2.1473,2.1504,2.1042,2.1334,2.1781,2.2228,2.2855,2.3533,2.421,2.3533,2.2963,2.2963,2.2182,2.1535,2.1319,2.1612,2.2217,2.3225,2.3198,2.3434,2.4099,2.3803,2.3588,2.3501,2.2957,2.2457,2.2067,2.1544,2.1169,2.0961,2.0923,2.0886,2.0825,2.0825,2.0775,2.0699,2.0699,2.0699,2.0699,2.0699,2.0594,2.0399,2.0399,2.0399,2.0399,2.0399,2.0517,2.0673,2.0465,2.0399,2.036,2.0151,2.0085,2.002,1.9616,1.9368,1.9146,1.8741,1.8479,1.8244,1.7891,1.78,1.7695,1.7303,1.7055,1.6924,1.6924,1.6493,1.6107,1.6107,1.5761,1.5434,1.5225,1.5204,1.5008,1.4419,1.404,1.3804,1.3804,1.3621,1.3409,1.3213,1.2834,1.2598,1.2598,1.2229,1.2007,1.2007,1.2374,1.2598,1.2598,1.3189,1.3487,1.3467,1.365,1.3741,1.3741,1.3741,1.3758,1.3804,1.3595,1.35,2.004,2.0456,2.0872,2.1797,2.2166,2.232,2.2347,2.2317,2.212,2.1442,2.1304,2.115,2.0657,2.0782,2.1242,2.2151,2.2655,2.3255,2.4179,2.3717,2.3302,2.3302,2.2701,2.2135,2.1704,2.1658,2.2012,2.2871,2.3178,2.3574,2.4084,2.3925,2.3797,2.3797,2.3246,2.2867,2.2686,2.2063,2.1602,2.135,2.1302,2.1301,2.1329,2.1279,2.1178,2.1064,2.1064,2.0921,2.0699,2.0699,2.0737,2.0775,2.0712,2.0737,2.0775,2.0712,2.0699,2.0699,2.0699,2.0699,2.0699,2.0699,2.0699,2.0633,2.0242,1.9969,1.9721,1.9342,1.9068,1.8819,1.8479,1.8388,1.8244,1.7656,1.7525,1.746,1.7251,1.6924,1.6676,1.6676,1.6362,1.6049,1.584,1.563,1.5375,1.4977,1.4428,1.4027,1.3831,1.3804,1.3804,1.3804,1.3451,1.3229,1.3229,1.2873,1.2557,1.2348,1.269,1.281,1.2598,1.3147,1.3477,1.3477,1.37,1.3804,1.3804,1.3804,1.3804,1.3791,1.3582,1.3477,2.0428,2.0919,2.172,2.3025,2.284,2.2671,2.3917,2.3163,2.2012,2.1334,2.1165,2.0734,1.9441,1.9765,2.0674,2.1951,2.2224,2.2767,2.4071,2.3733,2.3348,2.3348,2.2778,2.2397,2.2351,2.2378,2.2397,2.2351,2.3533,2.4126,2.3839,2.3839,2.3839,2.3839,2.3135,2.3046,2.3595,2.2762,2.2226,2.202,2.1864,2.1917,2.2103,2.1923,2.1822,2.1746,2.1719,2.1351,2.0776,2.0751,2.0801,2.0901,2.0737,2.0775,2.0863,2.0737,2.0699,2.0699,2.0699,2.0699,2.0699,2.0699,2.0699,2.0699,2.0699,2.0308,1.9852,1.9852,1.9433,1.8989,1.8963,1.895,1.8819,1.827,1.8114,1.7944,1.7369,1.7212,1.7199,1.7199,1.7199,1.7042,1.6519,1.5931,1.5558,1.5558,1.5029,1.4459,1.3909,1.3817,1.3804,1.3804,1.3804,1.3804,1.3804,1.3804,1.3556,1.298,1.2954,1.269,1.2125,1.2651,1.2954,1.2954,1.3517,1.3804,1.3804,1.3804,1.3804,1.3791,1.3216,1.2954,2.2135,2.2655,2.2978,2.384,2.3533,2.2994,2.284,2.1781,2.061,1.995,1.9362,1.873,1.7884,1.8731,1.9672,2.0011,2.1319,2.2578,2.344,2.384,2.4056,2.4056,2.3902,2.3594,2.3086,2.3502,2.3579,2.3086,2.3363,2.3738,2.4147,2.4177,2.4177,2.4177,2.376,2.3566,2.3595,2.3031,2.2595,2.2301,2.2161,2.2135,2.2241,2.1645,2.1801,2.2472,2.2047,2.1742,2.1584,2.1495,2.1232,2.0901,2.0737,2.0712,2.0737,2.0699,2.0699,2.0699,2.0699,2.0699,2.0699,2.0699,2.0699,2.0699,2.0699,2.0607,2.0465,2.0465,2.036,2.0137,1.9682,1.9577,1.942,1.8845,1.8388,1.8061,1.7904,1.7512,1.7199,1.7199,1.7199,1.716,1.7016,1.6532,1.6166,1.6166,1.5662,1.5055,1.4472,1.4053,1.3804,1.3804,1.3804,1.3804,1.3804,1.3804,1.3739,1.3582,1.3582,1.3487,1.3343,1.349,1.3582,1.3582,1.3726,1.3804,1.3804,1.3804,1.3804,1.3804,1.3647,1.3582,2.2978,2.3517,2.3763,2.384,2.3363,2.2748,2.2397,2.1257,2.0119,1.9441,1.8978,1.8376,1.7377,1.8361,1.9487,2.0088,2.1365,2.2624,2.3594,2.4071,2.4302,2.4302,2.4302,2.4148,2.3779,2.4087,2.4271,2.4194,2.3917,2.404,2.4697,2.4748,2.4902,2.521,2.4581,2.4197,2.4131,2.4007,2.3843,2.3629,2.3661,2.3669,2.3657,2.3345,2.3416,2.3739,2.3358,2.2742,2.2028,2.1874,2.1503,2.101,2.0873,2.0873,2.0923,2.0848,2.0812,2.08,2.08,2.0907,2.1014,2.0791,2.0699,2.0699,2.0699,2.0699,2.0699,2.0699,2.0699,2.0633,2.0281,2.0203,2.0046,1.9433,1.9068,1.8767,1.8506,1.8192,1.7878,1.7643,1.7382,1.7199,1.7199,1.695,1.6741,1.6741,1.6258,1.5761,1.5421,1.465,1.4158,1.4158,1.3948,1.3804,1.3804,1.3804,1.3804,1.3804,1.3804,1.3804,1.3804,1.3804,1.3804,1.3804,1.3804,1.3804,1.3804,1.3804,1.3804,1.3804,1.3804,1.3804,2.3409,2.3871,2.4148,2.3471,2.2794,2.2289,2.2197,2.1057,1.9856,1.9271,1.9009,1.8485,1.7177,1.8084,1.9424,2.0687,2.1612,2.2624,2.3979,2.4235,2.4302,2.4302,2.4302,2.4302,2.4302,2.4379,2.4666,2.525,2.4835,2.4841,2.5389,2.5435,2.5703,2.6226,2.5339,2.4865,2.4865,2.5151,2.5288,2.5287,2.5499,2.5564,2.5483,2.5636,2.5477,2.5129,2.4913,2.392,2.2449,2.2175,2.1801,2.1433,2.1204,2.1177,2.1276,2.1153,2.1067,2.1018,2.1018,2.1312,2.1564,2.0908,2.0751,2.0779,2.0725,2.0699,2.0699,2.0699,2.0699,2.0699,2.0699,2.0699,2.0581,2.0035,1.9865,1.9669,1.9133,1.8963,1.8767,1.8296,1.7787,1.7408,1.7329,1.7316,1.729,1.7212,1.6794,1.6506,1.6506,1.5461,1.4733,1.4733,1.4302,1.4027,1.4027,1.4027,1.3988,1.3922,1.3909,1.387,1.3804,1.3804,1.3804,1.3804,1.3804,1.3804,1.3804,1.3804,1.3804,1.3804,1.3804,1.3804,2.3979,2.421,2.4148,2.3471,2.2794,2.2151,2.1596,1.9962,1.853,1.8407,1.7515,1.6485,1.5685,1.6654,1.7807,1.8606,2.0285,2.1951,2.3286,2.3948,2.4302,2.4302,2.4302,2.4302,2.4302,2.4789,2.5158,2.5281,2.5764,2.6057,2.6127,2.618,2.598,2.5518,2.5314,2.5194,2.5194,2.5275,2.5421,2.5701,2.564,2.5708,2.5885,2.5321,2.538,2.587,2.5228,2.4563,2.3877,2.3123,2.2761,2.2627,2.199,2.1752,2.1777,2.1752,2.174,2.1714,2.1714,2.21,2.2379,2.1116,2.1001,2.1276,2.0818,2.0699,2.0699,2.0699,2.0699,2.0699,2.0699,2.0699,2.0673,2.0581,2.0164,1.9773,1.9669,1.9251,1.8872,1.878,1.8675,1.8466,1.8022,1.7944,1.7774,1.7277,1.712,1.7055,1.7055,1.6049,1.5343,1.5343,1.5251,1.5218,1.5218,1.5218,1.4977,1.448,1.4472,1.4245,1.3817,1.3804,1.3804,1.3804,1.3804,1.3804,1.3804,1.3804,1.3804,1.3804,1.3804,1.3804,2.4117,2.4302,2.4148,2.3471,2.2794,2.2043,2.1011,1.9748,1.8561,1.7823,1.7162,1.6531,1.5841,1.6809,1.7946,1.8654,2.0195,2.1766,2.3102,2.3579,2.3917,2.4271,2.4302,2.4441,2.4773,2.5096,2.5588,2.6349,2.6718,2.6903,2.6865,2.7226,2.6965,2.5903,2.6211,2.6226,2.5887,2.6226,2.6551,2.6835,2.6994,2.7001,2.6917,2.6776,2.6822,2.6967,2.6502,2.5874,2.5145,2.4664,2.4278,2.3929,2.3372,2.3124,2.3022,2.2806,2.2625,2.2482,2.2482,2.2831,2.3111,2.2101,2.1956,2.2128,2.1877,2.1534,2.1221,2.1221,2.096,2.0699,2.0699,2.0699,2.0699,2.0699,2.0478,2.0268,2.0268,1.9786,1.9368,1.9368,1.912,1.8819,1.8558,1.8519,1.8323,1.7748,1.7669,1.7552,1.7238,1.6715,1.6271,1.6016,1.5683,1.5487,1.5487,1.5487,1.5388,1.51,1.5055,1.4938,1.4707,1.4676,1.4676,1.4676,1.4676,1.4676,1.4676,1.4676,1.4676,1.4681,1.4367,1.4376,2.4164,2.4302,2.4148,2.3471,2.2686,2.1781,2.0564,1.9564,1.8546,1.7438,1.7085,1.6824,1.6286,1.7055,1.8115,1.9132,2.0181,2.1442,2.3071,2.3302,2.3548,2.4225,2.4302,2.4543,2.5219,2.5435,2.6057,2.7303,2.7534,2.7611,2.7611,2.8119,2.7857,2.6641,2.7119,2.7149,2.6611,2.7134,2.7592,2.7915,2.825,2.8226,2.794,2.825,2.8177,2.779,2.758,2.699,2.6165,2.5919,2.5606,2.5232,2.4694,2.441,2.4233,2.3837,2.3497,2.3231,2.3231,2.3554,2.3901,2.3419,2.3152,2.2978,2.2844,2.2405,2.1943,2.1943,2.1456,2.0933,2.0907,2.0829,2.0737,2.0712,2.0699,2.0699,2.0699,2.0334,1.9982,1.9982,1.9603,1.9237,1.912,1.9094,1.8911,1.8349,1.8166,1.7931,1.7447,1.7277,1.7042,1.6611,1.614,1.5853,1.5853,1.5853,1.5833,1.5696,1.5683,1.563,1.55,1.5487,1.5487,1.5487,1.5487,1.5487,1.5487,1.5487,1.5487,1.5487,1.5003,1.5042,2.4287,2.4302,2.4148,2.3471,2.2351,2.1196,2.0474,1.8792,1.7347,1.7224,1.6717,1.6271,1.621,1.6286,1.7023,1.8978,1.9395,2.0381,2.2932,2.3302,2.3548,2.4225,2.4302,2.4543,2.5219,2.5903,2.6595,2.7334,2.7965,2.8319,2.8319,2.8365,2.8057,2.7319,2.7365,2.7365,2.7303,2.7365,2.7711,2.8348,2.8372,2.8372,2.8348,2.8372,2.8177,2.779,2.758,2.7242,2.6769,2.6083,2.609,2.6445,2.5483,2.5036,2.4866,2.4405,2.4123,2.4014,2.4014,2.4394,2.4854,2.4828,2.4254,2.3538,2.2964,2.2738,2.2698,2.2698,2.2259,2.1755,2.1652,2.1245,2.0863,2.0737,2.0699,2.0699,2.0699,2.0673,2.0633,2.0633,2.0581,2.036,1.9812,1.9721,1.9512,1.8924,1.8414,1.8074,1.8022,1.7539,1.7186,1.7133,1.7081,1.7042,1.7042,1.7042,1.6833,1.6336,1.631,1.6062,1.5513,1.5487,1.5487,1.5487,1.5487,1.5487,1.5487,1.5487,1.5487,1.5487,1.5434,1.5453,2.3594,2.3702,2.364,2.3363,2.1997,2.0518,1.9857,1.8407,1.7085,1.6686,1.6379,1.6194,1.6194,1.6517,1.7193,1.8438,1.9008,1.9811,2.1288,2.1843,2.2332,2.3009,2.381,2.4748,2.5857,2.667,2.7434,2.8202,2.8497,2.8652,2.8652,2.8484,2.8088,2.7411,2.7796,2.7811,2.7396,2.7796,2.815,2.8411,2.8411,2.8411,2.8411,2.8411,2.8299,2.8152,2.8088,2.7934,2.7795,2.7474,2.7519,2.7655,2.7009,2.651,2.6081,2.5566,2.5135,2.4763,2.468,2.4815,2.5005,2.5005,2.4771,2.4444,2.4188,2.3823,2.346,2.346,2.2978,2.2431,2.2379,2.1928,2.1478,2.1439,2.1112,2.0825,2.0825,2.0762,2.0699,2.0699,2.0699,2.0633,2.0373,2.0334,2.0151,1.9538,1.9264,1.8989,1.8623,1.8375,1.81,1.7774,1.7421,1.7199,1.7199,1.7199,1.7107,1.6898,1.6872,1.6767,1.6532,1.6519,1.6519,1.6519,1.6519,1.6519,1.6519,1.6519,1.6519,1.6506,1.6179,1.6205,2.289,2.3013,2.3079,2.3275,2.1797,2.0119,1.9441,1.8207,1.7009,1.6332,1.6194,1.6194,1.6194,1.6578,1.7193,0.0,1.8469,1.9116,2.041,2.0844,2.1353,2.2212,2.3361,2.4611,2.5956,2.7179,2.8148,2.8763,2.8794,2.8794,2.8794,2.8565,2.8229,2.7774,2.8174,2.8181,2.7703,2.8165,2.8411,2.8411,2.8411,2.8411,2.8411,2.8411,2.8411,2.8411,2.8411,2.8411,2.8411,2.8411,2.8411,2.8363,2.7955,2.7494,2.703,2.6508,2.6041,2.5646,2.5536,2.5425,2.5328,2.5272,2.5174,2.5061,2.5005,2.4636,2.4229,2.4229,2.3702,2.3085,2.2898,2.2524,2.2165,2.2165,2.1821,2.1413,2.1215,2.1112,2.1009,2.0801,2.0762,2.0737,2.0712,2.0699,2.0543,2.0137,1.9904,1.9656,1.9224,1.9015,1.8767,1.8375,1.7813,1.7395,1.7212,1.7199,1.7199,1.7199,1.7199,1.7199,1.7199,1.7199,1.7199,1.7199,1.7199,1.7199,1.7199,1.7199,1.7199,1.7186,1.6807,1.6833,2.2324,2.2362,2.2539,2.3137,2.1797,2.0119,1.9441,1.8207,1.7009,1.6332,1.6194,1.6194,1.6194,1.6208,1.664,1.7976,1.7654,1.8176,2.0903,2.0771,2.0881,2.2151,2.308,2.4062,2.5195,2.7296,2.8645,2.8794,2.8794,2.8794,2.8794,2.866,2.8597,2.8597,2.8468,2.8411,2.8396,2.8411,2.8411,2.8411,2.8411,2.8411,2.8411,2.8411,2.8411,2.8411,2.8411,2.8411,2.8411,2.8411,2.8411,2.8363,2.7955,2.7685,2.7424,2.703,2.6797,2.6678,2.6678,2.6428,2.6082,2.5934,2.5591,2.5174,2.5033,2.5005,2.4991,2.4991,2.446,2.3756,2.3138,2.2897,2.2791,2.2791,2.2791,2.2631,2.2018,2.1898,2.1688,2.1018,2.0901,2.0863,2.0712,2.0699,2.0699,2.0699,2.019,1.9799,1.9799,1.9277,1.8911,1.8898,1.8414,1.7852,1.7251,1.7199,1.7199,1.7199,1.7199,1.7199,1.7199,1.7199,1.7199,1.7199,1.7199,1.7199,1.7199,1.7199,1.7199,1.7199,1.7186,1.7186,2.0936,2.1329,2.1644,2.1322,2.046,1.949,1.8715,1.7853,1.7009,1.6332,1.6194,1.6194,1.6194,1.6194,1.6668,1.8099,1.8084,1.8392,1.9867,2.1093,2.199,2.2465,2.4807,2.6767,2.7656,2.8389,2.8865,2.8998,2.9014,2.9014,2.9014,2.8889,2.8748,2.8597,2.8468,2.8411,2.8411,2.8411,2.8411,2.8411,2.8411,2.8411,2.8411,2.8411,2.8411,2.8411,2.8411,2.8411,2.8411,2.8411,2.8411,2.8387,2.825,2.8014,2.766,2.7403,2.7108,2.6823,2.673,2.664,2.6493,2.6455,2.6176,2.5783,2.566,2.5342,2.5005,2.5005,2.4841,2.4596,2.4434,2.4027,2.369,2.369,2.3286,2.2883,2.2696,2.2577,2.2338,2.1714,2.1569,2.145,2.0989,2.0923,2.0886,2.0825,2.068,2.0537,2.0537,2.0304,2.0005,1.9693,1.9415,1.8872,1.7904,1.7434,1.7199,1.7199,1.7199,1.7199,1.7199,1.7199,1.7199,1.7199,1.7199,1.7199,1.7199,1.7199,1.7344,1.7618,1.7928,1.8088,1.9897,2.0331,2.0662,2.0402,1.9879,1.9168,1.813,1.756,1.7051,1.6373,1.6234,1.622,1.6208,1.6207,1.6632,1.7789,1.7698,1.8037,1.9653,2.0994,2.2324,2.3716,2.5926,2.7661,2.8511,2.8786,2.8967,2.9075,2.9098,2.9098,2.9098,2.8967,2.885,2.8724,2.8565,2.8468,2.8468,2.8468,2.8468,2.8468,2.8468,2.8444,2.8411,2.8411,2.8411,2.8411,2.8411,2.8411,0.0,2.8411,2.8411,2.8411,2.8411,2.825,2.8014,2.7885,2.767,2.7469,2.7378,2.7251,2.7097,2.703,2.6573,2.6068,2.5934,2.5481,2.5005,2.5005,2.5005,2.5005,2.5005,2.4734,2.4435,2.4435,2.4109,2.3676,2.346,2.3353,2.3111,2.2456,2.2309,2.2097,2.1434,2.1341,2.1249,2.0976,2.0949,2.0949,2.0949,2.0861,2.0716,2.0419,2.0123,1.9653,1.8952,1.8258,1.7839,1.7839,1.7839,1.7839,1.7839,1.7839,1.7839,1.7839,1.7882,1.7777,1.7539,1.7512,1.7646,1.7914,1.8344,1.8539,0.0,1.9421,1.9657,2.0101,1.9807,1.9077,1.7722,1.7353,0.0,1.644,1.6301,1.6303,1.6297,1.6292,1.6563,1.7354,1.6904,1.7429,2.0199,2.0878,2.2333,2.5735,2.6575,2.7205,2.8088,2.8612,2.8967,2.9075,2.9098,2.9098,2.9098,2.899,2.8904,2.8904,2.8724,2.8621,2.8597,2.8597,2.8597,2.8597,2.8597,2.8565,2.8436,2.8436,2.8436,2.8436,2.842,2.8396,2.8396,2.8396,2.8411,2.8411,2.8411,2.8411,2.8411,2.8411,2.8411,2.8411,2.8411,2.8152,2.7815,2.758,2.6927,2.6176,2.6015,2.555,2.509,2.5061,2.5061,2.509,2.5104,2.509,2.5033,2.5061,2.5033,2.4856,2.4299,2.415,2.3947,2.3218,2.3123,2.2908,2.2187,2.2093,2.1892,2.1267,2.1149,2.1111,2.1046,2.1021,2.0997,2.1021,2.0553,2.0257,2.0257,1.9426,1.8898,1.8898,1.8898,1.8911,1.8957,1.8957,1.8979,1.8966,1.9103,1.8897,1.8284,1.8255,1.8278,1.8349,1.8685,1.8826,1.821,0.0,1.8985,1.8339,1.8498,1.856,0.0,1.7381,1.7165,1.6454,1.6342,1.6526,1.7029,1.6701,1.6973,1.8841,1.8498,1.8827,2.1231,2.3412,2.5467,2.7383,2.8153,2.8626,2.8846,2.898,2.9075,2.9098,2.9098,2.9098,2.9098,2.9075,2.9013,2.8904,2.885,2.8795,2.8747,2.8747,2.8747,2.8747,2.8747,2.8747,2.87,2.87,2.87,2.87,2.8589,2.8549,2.8565,2.8444,2.8411,2.8411,2.8411,2.8411,2.8411,2.8411,2.8411,2.8411,2.8411,2.8323,2.8201,2.785,2.7469,2.7108,2.6771,2.6283,2.5824,2.5729,2.5756,2.5906,2.6215,2.5852,2.5425,2.5647,2.5425,2.5077,2.4829,2.4801,2.4584,2.396,2.42,2.4335,2.3696,2.3922,2.3857,2.285,2.2582,2.222,2.1404,2.1131,2.1033,2.1131,2.0937,2.0808,2.0808,1.9721,1.9057,1.9057,1.8966,1.9093,1.9512,1.9499,1.9624,1.9809,1.9905,2.0017,2.0154,2.0454,2.0609,2.0629,2.1015,2.1186,1.7925,1.8496,1.8919,1.8405,1.8482,1.8549,1.8045,1.7547,1.7133,1.6827,1.6712,1.6868,1.7513,1.7407,1.7781,1.9467,1.9466,2.0083,2.2485,2.495,2.6909,2.7968,2.8672,2.9098,2.9098,2.9098,2.9098,2.9098,2.9098,2.9098,2.9098,2.9098,2.9075,2.899,2.899,2.8959,2.8858,2.8858,2.8858,2.8858,2.8858,2.8826,2.8794,2.8794,2.8794,2.8794,2.8708,2.8684,2.8684,2.8541,2.8493,2.8493,2.842,2.8411,2.8411,2.8411,2.8411,2.8411,2.8411,2.8411,2.8348,2.8152,2.7875,2.757,2.7261,2.7045,2.68,2.6377,2.6176,2.6149,2.6375,2.6109,2.5811,2.5961,2.5947,2.5878,2.5797,2.5797,2.5617,2.5106,2.5279,2.5307,2.4699,2.484,2.4801,2.4095,2.3922,2.3548,2.2648,2.2304,2.2073,2.1996,2.1793,2.1698,2.1851,2.1181,2.0626,2.0363,2.0097,2.0191,2.0735,2.0758,2.0926,2.1284,2.0995,2.1012,2.136,2.1412,2.1466,2.1555,2.192,2.2087,1.8091,1.8639,1.9191,1.8993,1.8845,1.869,1.8396,1.7666,1.7117,1.7272,1.7257,1.7416,1.8025,1.8386,1.8952,2.0033,2.059,2.1697,2.4007,2.6039,2.7484,2.8015,2.8672,2.9098,2.9098,2.9098,2.9098,2.9098,2.9098,2.9098,2.9098,2.9098,2.9098,2.9098,2.9098,2.9052,2.8943,2.8943,2.8943,2.8943,2.8943,2.8889,2.8842,2.8842,2.8842,2.8826,2.8818,2.8818,2.8818,2.8684,2.8636,2.8612,2.8508,2.846,2.846,2.8436,2.842,2.8436,2.8411,2.8411,2.8411,2.8411,2.8177,2.7865,2.7695,2.776,2.775,2.7148,2.6666,2.6363,2.6443,2.6349,2.6256,2.6295,2.6534,2.6704,2.6704,2.6704,2.6599,2.6256,2.6256,2.615,2.5621,2.5627,2.559,2.5233,2.5179,2.4897,2.4183,2.3817,2.3521,2.3238,2.2856,2.2729,2.3035,2.2843,2.2549,2.2086,2.165,2.1626,2.217,2.2217,2.2457,2.2912,2.2279,2.2069,2.235,2.2072,2.1984,2.2109,2.2376,2.2528,1.8717,1.9338,1.9517,1.8099,1.8166,1.8376,1.7715,1.7455,1.7337,1.7308,1.7827,1.8471,1.912,1.9885,2.0763,2.1907,2.3454,2.4909,2.6096,2.7347,2.811,2.8101,2.8672,2.9098,2.9098,2.9098,2.9098,2.9098,2.9098,2.9098,2.9098,2.9098,2.9098,2.9098,2.9098,2.9075,2.9075,2.9075,2.9075,2.9075,2.9075,2.9052,2.9045,2.9045,2.9045,2.9045,2.892,2.8873,2.8873,2.8803,2.8771,2.8771,2.8747,2.8747,2.8723,2.8612,2.8565,2.8549,2.8444,2.8411,2.8411,2.8411,2.8363,2.8299,2.8259,2.8275,2.8275,2.8162,2.785,2.7625,2.7965,2.7494,2.7004,2.7236,2.7067,2.6849,2.6704,2.6704,2.6678,2.6625,2.6964,2.7257,2.7179,2.757,2.7595,2.6657,2.6417,2.5985,2.5046,2.4766,2.465,2.4611,2.4045,2.3688,2.3734,2.3194,2.3001,2.3312,2.2694,2.2535,2.2995,2.3231,2.3545,2.3961,2.3649,2.3631,2.3962,2.3896,2.3876,2.3912,2.3953,2.3989,1.8378,1.8796,1.8938,1.8563,1.911,1.9723,1.9688,1.9287,1.8923,1.8966,1.9212,1.9727,2.0773,2.1342,2.2348,2.4429,2.5919,2.6987,2.7534,2.8068,2.8419,2.8458,2.8905,2.9167,2.9098,2.9098,2.9098,2.9098,2.9098,2.9098,2.9098,2.9098,2.9098,2.9098,2.9098,2.9098,2.9098,2.9098,2.9098,2.9098,2.9098,2.9098,2.9098,2.9098,2.9098,2.9098,2.9029,2.9013,2.899,2.8889,2.8842,2.8858,2.8803,2.8794,2.8794,2.8747,2.8708,2.8746,2.9055,2.9106,2.9033,2.9033,2.8999,2.8889,2.8519,2.8411,2.8488,2.8842,2.8377,2.784,2.8014,2.7775,2.7509,2.7635,2.7685,2.7695,2.762,2.762,2.7545,2.7342,2.7494,2.766,2.766,2.79,2.7981,2.7725,2.7616,2.7261,2.6451,2.6108,2.5863,2.5723,2.5231,2.4991,2.5175,2.4942,2.4373,2.3378,2.3246,2.3312,2.3508,2.3653,2.3882,2.4234,2.4135,2.4156,2.4302,2.4302,2.4302,2.4302,2.4302,2.4302,1.8459,1.8459,1.8424,1.9326,2.002,2.0651,2.1417,2.0906,2.0382,2.0847,2.098,2.1357,2.2385,2.3045,2.4302,2.6927,2.8005,2.8619,2.8982,2.9014,2.9038,2.9174,2.9426,2.9499,2.9335,2.9266,2.9266,2.9328,2.9266,2.9266,2.9312,2.9266,2.9236,2.9144,2.9137,2.9098,2.9098,2.9098,2.9098,2.9098,2.9098,2.9098,2.9098,2.9098,2.9098,2.9098,2.9098,2.9098,2.9075,2.899,2.8943,2.8943,2.8881,2.885,2.8826,2.8826,2.8912,2.9106,2.963,2.9837,2.9878,2.9878,2.9803,2.9626,2.9126,2.8956,2.9079,2.9564,2.9108,2.846,2.841,2.8288,2.8167,2.8167,2.8284,2.8411,2.8411,2.8411,2.8299,2.8005,2.794,2.794,2.794,2.794,2.8054,2.8348,2.8411,2.8211,2.7703,2.7359,2.7113,2.688,2.6459,2.6207,2.6304,2.6364,2.5673,2.3956,2.4033,2.4152,2.4152,2.4,2.4051,2.4281,2.4302,2.4302,2.4302,2.4302,2.4302,2.4302,2.4302,2.4302,1.9843,1.9252,1.8545,1.9975,1.9854,1.9791,2.1268,2.0963,2.0796,2.2233,2.3064,2.3567,2.3671,2.5214,2.7112,2.899,2.9522,2.9978,3.0791,3.063,3.0419,3.0373,3.0402,3.0288,2.9984,2.9815,2.9793,2.9941,2.9815,2.9793,2.9941,2.9832,2.9611,2.9305,2.9167,2.9098,2.9098,2.9098,2.9098,2.9098,2.9098,2.9098,2.9098,2.9098,2.9098,2.9098,2.9098,2.9098,2.9098,2.9075,2.9075,2.9091,2.9075,2.9006,2.8881,2.8881,2.9233,2.9724,2.9786,3.0198,3.0713,3.0713,3.0703,3.0688,3.0641,3.0625,3.0641,3.0688,3.0545,3.0361,3.0248,2.9761,2.9285,2.9285,2.8833,2.8411,2.8411,2.8411,2.8387,2.8348,2.8363,2.8363,2.8363,2.8363,2.8363,2.8411,2.8411,2.8381,2.8334,2.831,2.8295,2.8273,2.7664,2.7034,2.6426,2.6402,2.6311,2.6068,2.5529,2.5198,2.5198,2.4599,2.4281,2.4302,2.4302,2.4302,2.4302,2.4302,2.4302,2.4302,2.4302,2.4302,1.9292,1.8976,1.8441,1.9447,2.0234,2.0992,2.2044,2.2406,2.2957,2.4491,2.5042,2.5232,2.5232,2.7014,2.8699,2.9403,3.0181,3.0932,3.147,3.1064,3.0767,3.0865,3.0686,3.0497,3.033,3.0267,3.0267,3.0309,3.0267,3.0267,3.0309,3.0267,3.0075,2.9744,2.9611,2.9448,2.9236,2.9144,2.9098,2.9098,2.9098,2.9098,2.9098,2.9098,2.9098,2.9098,2.9098,2.9098,2.9098,2.9098,2.9098,2.9098,2.9098,2.9075,2.9076,2.9541,2.9848,3.017,3.1036,3.1432,3.1559,3.1575,3.1524,3.1353,3.0931,3.0791,3.0885,3.1306,3.1379,3.1208,3.0675,3.0279,3.0017,3.0017,2.9817,2.9525,2.9095,2.9002,2.8904,2.8488,2.8411,2.8411,2.8411,2.8411,2.8411,2.8411,2.8411,2.8411,2.8411,2.8411,2.8411,2.8411,2.8181,2.7919,2.7673,2.7642,2.7626,2.7626,2.6595,2.598,2.598,2.5733,2.5395,2.4927,2.4912,2.4733,2.4302,2.4302,2.4302,2.4302,2.4302,2.4512,1.8999,1.8941,1.8786,1.9786,2.082,2.1918,2.3147,2.3819,2.4681,2.6456,2.6833,2.6833,2.6833,2.8299,2.9506,2.9506,3.0585,3.1542,3.1781,3.1408,3.1179,3.1315,3.1123,3.0925,3.0764,3.0723,3.0703,3.0764,3.0723,3.0703,3.0764,3.0723,3.0539,3.0204,2.9968,2.9744,2.947,2.9259,2.9144,2.9098,2.9098,2.9098,2.9098,2.9098,2.9098,2.9098,2.9098,2.9098,2.9098,2.9098,2.9098,2.9098,2.9098,2.9098,2.9193,2.9927,3.0346,3.0694,3.188,3.2341,3.241,3.2468,3.2374,3.2186,3.1732,3.1575,3.1669,3.2154,3.2227,3.2081,3.1535,3.1073,3.0762,3.0735,3.054,3.0263,2.9802,2.971,2.9571,2.911,2.8873,2.8796,2.8987,2.8873,2.8719,2.8719,2.8719,2.8642,2.8427,2.8411,2.8411,2.8411,2.8411,2.8411,2.8411,2.8411,2.8411,2.8411,2.7534,2.6934,2.6718,2.6488,2.6149,2.5672,2.5656,2.5426,2.4964,2.4964,2.4964,2.4964,2.4927,2.5195,1.9292,1.9303,1.9682,2.1199,2.1613,2.2229,2.4488,2.5023,2.5678,2.7954,2.842,2.842,2.842,2.9006,2.9523,2.9523,3.08,3.18,3.18,3.18,3.18,3.18,3.18,3.1671,3.1334,3.1181,3.1162,3.1295,3.1181,3.1162,3.1295,3.1181,3.0948,3.0625,3.0225,2.9962,2.981,2.947,2.9236,2.9098,2.9098,2.9098,2.9098,2.9098,2.9098,2.9098,2.9098,2.9098,2.9098,2.9098,2.9098,2.9098,2.9098,2.9098,2.9193,2.9927,3.0622,3.1334,3.2054,3.2724,3.3309,3.3309,3.3309,3.3309,3.3309,3.3309,3.3309,3.3309,3.3203,3.3096,3.3096,3.2367,3.1573,3.1451,3.0905,3.0417,3.0402,3.0402,3.0402,3.0402,2.9848,2.9617,3.0279,2.9848,2.9402,2.9402,2.9402,2.9181,2.8504,2.8411,2.8411,2.8411,2.8411,2.8411,2.8411,2.8411,2.8411,2.8411,2.8411,2.8104,2.7442,2.6696,2.6364,2.6418,2.6418,2.6418,2.6402,2.6402,2.6402,2.6402,2.6327,2.6349,1.8666,1.9286,2.017,2.0636,2.2388,2.4298,2.5491,2.6212,2.7264,2.9541,3.0024,2.9834,2.9282,2.9817,3.0334,3.0334,3.1162,3.18,3.18,3.18,3.18,3.18,3.18,3.1746,3.1671,3.1634,3.1615,3.1653,3.1598,3.1615,3.1653,3.1598,3.1447,3.1103,3.0885,3.0645,3.0377,3.0225,3.0118,3.0097,3.0097,2.9744,2.9098,2.9098,2.9098,2.9098,2.9098,2.9098,2.9098,2.9098,2.9098,2.9098,2.9098,2.9414,2.9959,3.0654,3.1349,3.2086,3.2756,3.3135,3.3309,3.3309,3.3309,3.3309,3.3309,3.3309,3.3309,3.3309,3.3282,3.3229,3.3123,3.2859,3.2596,3.2311,3.2006,3.1674,3.1197,3.1089,3.0966,3.0479,3.0233,3.0156,3.0371,3.0233,3.0094,3.0094,3.0094,2.9848,2.9196,2.8704,2.8411,2.8411,2.8411,2.8411,2.8411,2.8411,2.8411,2.8411,2.8411,2.8319,2.8119,2.7904,2.7565,2.7103,2.7088,2.6857,2.6402,2.6402,2.6402,2.6402,2.638,2.6626,1.8683,1.9734,2.1027,2.16,2.3388,2.5436,2.7092,2.8075,2.911,3.0782,3.0886,3.0541,3.0058,3.0368,3.0714,3.0714,3.1317,3.18,3.18,3.18,3.18,3.18,3.18,3.18,3.18,3.18,3.18,3.18,3.18,3.18,3.18,3.18,3.1709,3.1504,3.1295,3.1064,3.0808,3.0625,3.0539,3.0497,3.0497,3.0204,2.9655,2.9655,2.9655,2.9655,2.947,2.9289,2.9167,2.9121,2.9098,2.9098,2.9098,2.9367,2.988,3.0844,3.1492,3.1997,3.2961,3.3309,3.3309,3.3309,3.3309,3.3309,3.3309,3.3309,3.3309,3.3309,3.3309,3.3282,3.3203,3.3123,3.3016,3.2676,3.2551,3.2345,3.1901,3.1782,3.1674,3.1274,3.0982,3.0889,3.1166,3.0982,3.0812,3.0812,3.0555,3.0248,2.9848,2.9433,2.9104,2.8842,2.8812,2.8704,2.8427,2.8411,2.8411,2.8411,2.8411,2.8411,2.8411,2.8411,2.8211,2.7811,2.7796,2.7596,2.7196,2.7196,2.7057,2.6795,2.6795,2.6857,1.8941,2.032,2.194,2.344,2.456,2.6057,2.8868,3.011,3.0921,3.1645,3.1265,3.08,3.08,3.08,3.08,3.08,3.1351,3.18,3.18,3.18,3.18,3.18,3.18,3.18,3.18,3.18,3.18,3.18,3.18,3.18,3.18,3.18,3.18,3.18,3.1504,3.1295,3.1162,3.0868,3.0666,3.0621,3.0621,3.0621,3.0621,3.0539,3.0497,3.0477,3.0054,2.9677,2.9335,2.9213,2.9144,2.9121,2.9098,2.9177,2.9446,3.0725,3.1277,3.1561,3.2866,3.3309,3.3309,3.3309,3.3309,3.3309,3.3309,3.3309,3.3309,3.3309,3.3309,3.3309,3.3309,3.3203,3.3043,3.273,3.2648,3.2578,3.2453,3.2425,3.2425,3.2398,3.1905,3.1674,3.229,3.189,3.1501,3.1501,3.092,3.0479,3.0479,3.0432,3.0156,2.9566,2.9479,2.9218,2.855,2.8488,2.8473,2.8411,2.8411,2.8411,2.8411,2.8411,2.8411,2.8411,2.8411,2.8411,2.8411,2.8411,2.8088,2.7488,2.7488,2.7149,1.7621,1.9499,2.194,2.344,2.5749,2.7989,2.923,3.011,3.0921,3.1645,3.1662,3.1558,3.1558,3.1558,3.1558,3.1558,3.1696,3.18,3.18,3.18,3.18,3.18,3.18,3.18,3.18,3.18,3.18,3.18,3.18,3.18,3.18,3.18,3.18,3.18,3.1727,3.1671,3.1653,3.1579,3.1542,3.1523,3.1523,3.1523,3.1504,3.0804,3.0497,3.0497,3.0393,3.0161,2.9853,2.9683,2.9477,2.9259,2.9144,2.9777,3.0772,3.1088,3.1918,3.2898,3.3198,3.3309,3.3309,3.3309,3.3309,3.3309,3.3309,3.3309,3.3309,3.3309,3.3309,3.3309,3.3309,3.3282,3.3203,3.3043,3.2908,3.2773,3.2594,3.2551,3.2523,3.2425,3.2275,3.2213,3.2367,3.2275,3.2167,3.2167,3.1597,3.1182,3.1182,3.0735,3.034,3.0202,3.0186,2.991,2.9258,2.9171,2.8965,2.8442,2.8411,2.8411,2.8411,2.8411,2.8411,2.8411,2.8411,2.8411,2.8411,2.8411,2.8334,2.8181,2.8181,2.8119,1.7494,1.9291,2.1599,2.3815,2.6402,2.8592,2.9334,3.011,3.0921,3.1645,3.18,3.18,3.18,3.18,3.18,3.18,3.18,3.18,3.18,3.18,3.18,3.18,3.18,3.1662,3.13,3.1593,3.1645,3.13,3.1593,3.18,3.18,3.18,3.18,3.18,3.18,3.18,3.18,3.18,3.18,3.18,3.18,3.18,3.1764,3.1315,3.1024,3.0885,3.0825,3.0601,3.0272,3.0182,2.9924,2.9611,2.9477,3.0003,3.0854,3.1097,3.1887,3.2876,3.3182,3.3309,3.3309,3.3309,3.3309,3.3309,3.3309,3.3309,3.3309,3.3309,3.3309,3.3309,3.3309,3.3309,3.3282,3.3203,3.3096,3.2951,3.2773,3.2746,3.2676,3.2523,3.2496,3.248,3.2425,3.2398,3.2398,3.2398,3.209,3.1859,3.1859,3.1567,3.1243,3.092,3.0889,3.0612,2.994,2.9879,2.9725,2.9371,2.9356,2.9202,2.8904,2.8889,2.8735,2.8411,2.8411,2.8411,2.8411,2.8411,2.8242,2.7919,2.7919,2.775,1.7489,1.9221,2.1435,2.4447,2.6624,2.8246,2.911,2.9834,3.0541,3.142,3.1714,3.18,3.18,3.18,3.18,3.18,3.18,3.18,3.18,3.18,3.18,3.18,3.1679,3.1369,3.0766,3.1127,3.1196,3.0748,3.1265,3.1662,3.1783,3.18,3.18,3.18,3.18,3.18,3.18,3.18,3.18,3.18,3.18,3.18,3.18,3.18,3.1653,3.1372,3.1276,3.1044,3.0707,3.0642,3.0414,3.0097,3.0098,3.0396,3.0854,3.1446,3.2123,3.2809,3.3374,3.3513,3.3477,3.345,3.3398,3.3319,3.3309,3.3309,3.3309,3.3309,3.3309,3.3309,3.3309,3.3309,3.3309,3.3309,3.3229,3.3096,3.2951,3.2924,3.287,3.2676,3.2621,3.2551,3.2425,3.2398,3.2398,3.2398,3.229,3.2213,3.2213,3.2213,3.1997,3.147,3.1516,3.1289,3.0617,3.0555,3.0509,3.0402,3.0402,3.014,2.9587,2.9556,2.9248,2.8596,2.8473,2.8411,2.8411,2.8411,2.8119,2.7565,2.7565,2.7272,1.6233,1.886,2.227,2.5282,2.6271,2.6843,2.8229,2.8627,2.911,3.0541,3.1351,3.18,3.18,3.18,3.18,3.18,3.18,3.18,3.18,3.18,3.18,3.18,3.1231,3.0817,3.0696,3.0162,3.0058,3.0644,3.0782,3.1145,3.1765,3.18,3.18,3.18,3.18,3.18,3.18,3.18,3.18,3.18,3.18,3.18,3.18,3.18,3.1781,3.1727,3.1709,3.1523,3.1198,3.1083,3.0808,3.0589,3.1139,3.1748,3.2401,3.3166,3.3867,3.4486,3.4585,3.4415,3.4151,3.4025,3.3745,3.345,3.3335,3.3309,3.3309,3.3309,3.3309,3.3309,3.3309,3.3309,3.3309,3.3309,3.3282,3.3229,3.3096,3.3069,3.3032,3.2897,3.2718,3.2551,3.2425,3.2398,3.2398,3.2398,3.1917,3.152,3.152,3.152,3.1516,3.1424,3.1905,3.1982,3.1305,3.1259,3.1012,3.0432,3.0402,3.0356,3.0263,3.0263,2.994,2.9289,2.8704,2.8411,2.8411,2.8411,2.835,2.8273,2.8273,2.8227,1.745,1.9777,2.226,2.4379,2.5559,2.6493,2.7587,2.8125,2.8713,2.9799,3.0627,3.13,3.1714,3.18,3.18,3.18,3.18,3.1662,3.1231,3.1541,3.1472,3.061,3.061,3.0369,2.9489,2.9472,2.9644,3.0006,3.0437,3.1007,3.1765,3.18,3.18,3.18,3.18,3.18,3.18,3.18,3.18,3.18,3.18,3.18,3.18,3.18,3.18,3.18,3.18,3.1709,3.1578,3.1523,3.1295,3.1052,3.1728,3.2281,3.2802,3.3526,3.4227,3.4793,3.4793,3.4714,3.4561,3.4513,3.4366,3.4218,3.4168,3.4143,3.4093,3.3908,3.3797,3.371,3.3477,3.3361,3.3309,3.3309,3.3309,3.3266,3.3229,3.3203,3.3176,3.3032,3.2881,3.2746,3.2676,3.2578,3.2523,3.2523,3.2206,3.1951,3.1951,3.1951,3.1951,3.1951,3.2213,3.2275,3.1982,3.1951,3.1828,3.1551,3.152,3.1351,3.0982,3.0966,3.0643,2.9971,2.9294,2.8781,2.8411,2.8411,2.8411,2.8411,2.8411,2.8411,1.8342,2.0024,2.1394,2.3215,2.4667,2.5917,2.6872,2.7467,2.8092,2.9023,2.9696,3.0334,3.1076,3.1541,3.18,3.18,3.18,3.161,3.1059,3.1438,3.1369,3.0231,3.0437,3.0179,2.8816,2.9006,2.923,2.923,2.9782,3.0524,3.1472,3.1524,3.161,3.1783,3.18,3.18,3.18,3.18,3.18,3.18,3.18,3.18,3.18,3.18,3.18,3.18,3.18,3.18,3.18,3.18,3.1653,3.1513,3.2426,3.2903,3.3244,3.4102,3.4745,3.5191,3.5191,3.5138,3.5045,3.5005,3.4934,3.484,3.4793,3.4793,3.4794,3.4742,3.466,3.4559,3.4459,3.4352,3.4248,3.4133,3.3937,3.3683,3.3367,3.3309,3.3256,3.3123,3.3032,3.2924,3.2912,3.2773,3.2676,3.2676,3.2423,3.2245,3.2245,3.2218,3.2206,3.2206,3.2317,3.2398,3.2398,3.2398,3.2398,3.2398,3.2398,3.2167,3.1659,3.1643,3.1336,3.0663,3.0166,2.9504,2.8658,2.8488,2.8411,2.8411,2.8411,2.8411,1.7627,1.8558,1.9377,2.2309,2.3624,2.4566,2.5952,2.6241,2.6661,2.8144,2.8489,2.8747,2.9489,3.0817,3.18,3.18,3.18,3.1783,3.1748,3.1783,3.1765,3.1679,3.1093,3.0368,2.9523,2.8851,2.8454,2.8454,2.8506,2.9161,3.0697,3.0766,3.1076,3.1783,3.18,3.18,3.18,3.18,3.18,3.18,3.18,3.18,3.18,3.18,3.18,3.18,3.18,3.18,3.18,3.18,3.18,3.1919,3.3419,3.4022,3.4209,3.5635,3.6203,3.622,3.622,3.6006,3.5722,3.5611,3.5299,3.4975,3.4857,3.4793,3.4958,3.5694,3.5909,3.6059,3.6738,3.6903,3.6802,3.6408,3.5704,3.4781,3.3567,3.3309,3.3256,3.3123,3.3096,3.3058,3.2924,3.2897,3.287,3.287,3.2278,3.1815,3.1815,3.1725,3.1646,3.1646,3.211,3.2398,3.2398,3.2398,3.2398,3.2398,3.2398,3.2382,3.2336,3.2336,3.2028,3.1378,3.1305,3.0643,2.9341,2.8719,2.8411,2.8411,2.8411,2.8411,1.6631,1.8068,1.951,2.0509,2.2476,2.416,2.4097,2.5571,2.6932,2.6919,2.7713,2.8472,2.8747,3.0041,3.1076,3.1076,3.1489,3.1627,3.1145,3.1489,3.1438,3.0437,3.0541,3.0196,2.892,2.8558,2.8403,2.8403,2.8403,2.8851,2.9886,2.992,3.0282,3.1058,3.1076,3.1317,3.18,3.18,3.18,3.18,3.18,3.18,3.18,3.18,3.18,3.18,3.18,3.18,3.18,3.18,3.18,3.1955,3.349,3.4113,3.4286,3.5749,3.6301,3.6301,3.6301,3.6216,3.6114,3.6049,3.5963,3.5917,3.6389,3.6542,3.665,3.7199,3.7249,3.7187,3.7227,3.717,3.707,3.6918,3.6644,3.6304,3.5838,3.4448,3.3282,3.3229,3.3229,3.3203,3.3176,3.3085,3.3173,3.3623,3.2998,3.2663,3.3084,3.2718,3.2442,3.2442,3.2606,3.2718,3.2718,3.2718,3.2676,3.2551,3.2523,3.2496,3.2398,3.2398,3.2275,3.2044,3.1613,3.0951,3.0033,2.9787,2.9679,2.9664,2.9258,2.9058,1.5757,1.7272,1.8991,1.9458,2.1103,2.275,2.3223,2.4639,2.5905,2.6087,2.6935,2.7713,2.7971,2.9075,3.0006,3.0248,3.092,3.1248,3.0765,3.1334,3.142,3.0403,3.0731,3.0558,2.9299,2.9161,2.8954,2.8437,2.8403,2.861,2.911,2.9127,2.961,3.0679,3.0938,3.13,3.18,3.18,3.18,3.18,3.18,3.18,3.18,3.18,3.18,3.18,3.18,3.18,3.18,3.18,3.1955,3.23,3.3576,3.4251,3.4631,3.5852,3.6301,3.6301,3.6301,3.6301,3.6301,3.6301,3.6473,3.6801,3.734,3.7668,3.7964,3.8494,3.8549,3.8448,3.8497,3.816,3.7694,3.7402,3.7045,3.6688,3.639,3.5301,3.4281,3.3989,3.3826,3.363,3.334,3.3229,3.3334,3.3758,3.3379,3.3188,3.3654,3.3271,3.2978,3.2978,3.2924,3.2897,3.2897,3.2897,3.2843,3.2718,3.2703,3.2648,3.2578,3.2578,3.2578,3.2578,3.2129,3.167,3.1237,3.0669,3.0402,3.0386,2.994,2.9725,0.0,0.0,0.0,1.9222,1.9573,2.0341,2.3339,2.3376,2.3392,2.5643,2.6068,2.6299,2.7109,2.7868,2.861,2.9317,3.0127,3.0662,3.0662,3.1282,3.1731,3.1765,3.1765,3.1489,3.0765,3.0714,3.0058,2.8558,2.8437,2.842,2.8403,2.8403,2.9092,3.061,3.1369,3.1783,3.18,3.18,3.18,3.18,3.18,3.18,3.18,3.18,3.18,3.18,3.18,3.18,3.18,3.1817,3.2248,3.299,3.38,3.4559,3.5283,3.6025,3.6301,3.6301,3.6301,3.6301,3.6301,3.6301,3.6835,3.7512,3.753,3.8065,3.8784,3.9526,3.9733,3.9905,4.067,3.9966,3.8887,3.8018,3.6992,3.5947,3.5096,3.5778,3.6284,3.5354,3.486,3.434,3.3499,3.3319,3.3335,3.3351,3.3335,3.3335,3.3324,3.3219,3.3123,3.3096,3.3005,3.2897,3.2897,3.2897,3.2897,3.2912,3.2912,3.2897,3.2897,3.2897,3.2897,3.2897,3.2897,3.2897,3.2897,3.1268,3.0489,3.0489,3.0458,3.0443,1.586,0.0,0.0,0.0,0.0,0.0,2.0066,2.1075,2.2389,2.3509,2.4147,2.4899,2.6195,2.7075,2.7661,2.7868,2.8989,2.9834,2.9834,3.0006,3.0351,3.0938,3.0989,3.0903,3.0731,3.0714,3.0282,2.9265,2.9196,2.8972,2.8437,2.8403,2.8834,2.9799,3.0593,3.1248,3.1783,3.18,3.18,3.18,3.18,3.18,3.18,3.18,3.18,3.18,3.18,3.18,3.1834,3.2369,3.2714,3.3041,3.4369,3.5007,3.5283,3.6025,3.6301,3.6301,3.6301,3.6301,3.6301,3.6301,3.6835,3.7599,3.8112,3.8801,3.956,4.0359,4.0584,4.0498,4.0112,3.9388,3.8677,3.8431,3.8134,3.7837,3.7593,3.7581,3.7049,3.5258,3.4816,3.4669,3.4431,3.4168,3.4177,3.4533,3.4272,3.4066,3.4176,3.3962,3.3694,3.3424,3.3282,3.3176,3.3176,3.3176,3.315,3.3058,3.3043,3.3005,3.2897,3.2897,3.2897,3.2897,3.2897,3.2897,3.2897,3.2427,3.2229,3.2213,3.1658,3.1094,1.6897,1.7837,1.8783,1.7871,0.0,0.0,1.9882,2.0387,2.1319,2.3028,2.3419,2.3905,2.5411,2.6038,2.6437,2.6747,2.7523,2.8316,2.8954,2.9317,2.9679,3.0144,3.0489,3.0714,3.0714,3.099,3.0834,3.0058,3.0006,2.9523,2.8454,2.8696,2.9058,2.9489,3.0282,3.1041,3.1783,3.18,3.18,3.18,3.18,3.18,3.18,3.18,3.18,3.18,3.18,3.18,3.1869,3.2955,3.3404,3.3507,3.4731,3.5387,3.5714,3.6146,3.6301,3.6301,3.6301,3.6301,3.6353,3.668,3.734,3.8116,3.8836,3.9577,4.0284,4.0774,4.067,4.0284,3.9819,3.8922,3.8151,3.8151,3.787,3.7629,3.7629,3.7453,3.6951,3.5807,3.5447,3.5245,3.4859,3.4658,3.4595,3.493,3.4702,3.4554,3.4609,3.4478,3.4292,3.4068,3.3968,3.3917,3.3917,3.3797,3.3658,3.3529,3.3346,3.3203,3.3069,3.3085,3.3085,3.3085,3.3085,3.3085,3.3085,3.2951,3.2897,3.2897,3.2476,3.2102,1.8188,1.877,1.9784,1.9608,1.9232,0.0,2.1077,2.046,2.0306,2.3112,2.3011,2.292,2.4566,2.4873,2.5123,2.5883,2.6057,2.6626,2.8075,2.8834,2.9299,2.9368,3.0006,3.049,3.0558,3.1162,3.13,3.0748,3.0714,3.0058,2.861,2.9075,2.9386,2.9386,3.0144,3.092,3.1662,3.1765,3.18,3.18,3.18,3.18,3.18,3.18,3.18,3.18,3.18,3.1852,3.2041,3.349,3.4113,3.4182,3.499,3.5714,3.6301,3.6301,3.6301,3.6301,3.6301,3.6301,3.6422,3.7254,3.8013,3.8732,3.9474,4.025,4.0877,4.0791,4.0204,3.956,3.9474,3.8427,3.7374,3.7374,3.6818,3.6301,3.6301,3.6301,3.6363,3.6599,3.6367,3.5876,3.5098,3.4951,3.4904,3.4887,3.4904,3.4904,3.4816,3.4864,3.4864,3.4833,3.4809,3.4793,3.4793,3.4537,3.4284,3.4201,3.3848,3.3591,3.3477,3.3424,3.3398,3.3372,3.3319,3.3309,3.3309,3.298,3.2888,3.2951,3.2926,3.3156,2.0128,2.041,2.0286,1.9039,2.004,0.0,1.8686,1.8974,1.9794,2.0317,2.0284,2.0807,2.2946,2.3805,2.4452,2.525,2.5831,2.6498,2.7384,2.7627,2.7937,2.8541,2.8747,2.9075,2.9679,2.9868,3.0162,3.0662,3.0714,3.0282,2.9351,2.8868,2.861,2.861,2.9351,3.011,3.0921,3.1489,3.18,3.18,3.18,3.18,3.18,3.18,3.18,3.18,3.18,3.2145,3.2766,3.3716,3.4113,3.4234,3.5559,3.6163,3.6301,3.6301,3.6301,3.6301,3.6301,3.6301,3.6422,3.7254,3.8013,3.8732,3.9474,4.025,4.0774,4.0112,3.9388,3.8663,3.8099,3.7232,3.6525,3.6525,3.6404,3.6301,3.6301,3.6301,3.6331,3.6384,3.6315,3.6199,3.6023,3.5771,3.5566,3.5459,3.5543,3.5453,3.5021,3.5253,3.5322,3.4998,3.4864,3.4793,3.4793,3.4738,3.469,3.4666,3.4593,3.4545,3.4521,3.4259,3.405,3.3949,3.3529,3.3309,3.3309,3.2704,3.2678,3.3214,3.3061,3.3262,2.1587,2.1684,2.175,2.0995,2.1399,0.0,0.0,1.9931,2.0002,2.1062,2.0346,2.0103,2.2045,2.2671,2.3167,2.3932,2.4629,2.5178,2.5608,2.6603,2.7453,2.7799,2.8178,2.8558,2.892,2.9282,2.9679,3.0075,3.0472,3.0351,2.9541,2.9161,2.9127,2.9523,2.9523,3.0058,3.1231,3.161,3.18,3.18,3.18,3.18,3.18,3.18,3.18,3.18,3.18,3.2214,3.2955,3.3785,3.432,3.4749,3.587,3.6301,3.6301,3.6301,3.6301,3.6301,3.6301,3.6559,3.7025,3.7806,3.8565,3.9284,4.0043,4.0584,4.0739,3.9922,3.9163,3.8422,3.7702,3.6887,3.6301,3.6301,3.6301,3.6301,3.6301,3.6301,3.6301,3.6301,3.6301,3.6301,3.6301,3.6174,3.6045,3.5963,3.6023,3.5941,3.5683,3.5815,3.5859,3.5661,3.5594,3.5554,3.5554,3.5391,3.5276,3.5207,3.5021,3.488,3.4793,3.4658,3.4513,3.444,3.4193,3.4043,3.4043,3.338,3.3265,3.3694,3.3587,3.3958,2.3135,2.3146,2.3488,2.3177,2.2874,2.2657,0.0,0.0,0.0,2.2347,2.1108,2.0188,2.1645,2.1738,2.1841,2.2596,2.328,2.3757,2.3793,2.5467,2.6657,2.6657,2.7297,2.7799,2.7937,2.8506,2.8972,2.9265,2.9748,2.9886,2.9523,2.9506,2.973,3.0231,2.9903,3.0248,3.1351,3.1645,3.18,3.18,3.18,3.18,3.18,3.18,3.18,3.18,3.1955,3.2438,3.3197,3.3973,3.4752,3.5473,3.6059,3.6301,3.6301,3.6301,3.6301,3.6301,3.6301,3.6818,3.7633,3.8353,3.9198,4.0043,4.0705,4.0912,4.0705,3.975,3.906,3.8387,3.7512,3.6784,3.6301,3.6301,3.6301,3.6301,3.6301,3.6301,3.6301,3.6301,3.6301,3.6301,3.6301,3.6301,3.6301,3.6301,3.6301,3.6301,3.6301,3.6301,3.6301,3.6301,3.6301,3.6301,3.6301,3.6067,3.5854,3.5727,3.5436,3.5207,3.5098,3.5005,3.4927,3.4857,3.4793,3.4793,3.4793,3.426,3.4082,3.4234,3.4211,3.4677,2.5493,2.5336,2.4888,2.3453,2.4054,2.4313,2.1674,0.0,2.24,2.1287,0.0,2.0925,2.182,0.0,0.0,2.1967,2.2665,2.3105,2.3117,2.3841,2.4365,2.4296,2.4948,2.5643,2.6299,2.6439,2.7057,2.842,2.7989,2.8213,2.9437,2.9506,2.9248,2.8678,2.9886,3.03,2.9782,3.111,3.18,3.18,3.18,3.18,3.18,3.18,3.18,3.1834,3.249,3.3231,3.4027,3.4766,3.5508,3.618,3.6266,3.6301,3.6301,3.6301,3.6301,3.6301,3.6301,3.6818,3.7633,3.8353,3.9583,4.0791,4.0877,4.0912,4.0601,3.9152,3.8646,3.8267,3.6801,3.637,3.6301,3.6301,3.6301,3.6301,3.6301,3.6301,3.6301,3.6301,3.6301,3.6301,3.6301,3.6301,3.6301,3.6301,3.6301,3.6301,3.6301,3.6301,3.6301,3.6301,3.6301,3.6301,3.6301,3.628,3.6237,3.622,3.6195,3.6135,3.6135,3.5727,3.5345,3.4975,3.4857,3.4793,3.4793,3.471,3.4703,3.4721,3.4544,3.4862,2.6194,2.6241,2.6173,2.5153,2.5237,2.512,2.3407,2.2753,2.2447,2.2201,0.0,0.0,0.0,0.0,0.0,0.0,2.1511,2.1529,2.1132,2.1627,2.2685,2.4434,2.4483,2.481,2.5988,2.5697,2.5919,2.6988,2.6782,2.7075,2.8161,2.9041,2.9368,2.9058,3.011,3.0524,3.0196,3.1248,3.18,3.18,3.18,3.18,3.18,3.18,3.18,3.1834,3.2576,3.3352,3.4165,3.4907,3.5628,3.6301,3.6301,3.6301,3.6301,3.6301,3.6301,3.637,3.6818,3.7512,3.8341,3.9549,4.0377,4.0912,4.0912,4.0584,4.006,3.9405,3.8922,3.8439,3.7784,3.7629,3.7629,3.7629,3.7629,3.7629,3.7629,3.7629,3.7629,3.7629,3.7629,3.7629,3.7629,3.6887,3.6301,3.6301,3.6301,3.6301,3.6301,3.6301,3.6301,3.6301,3.6301,3.6301,3.6301,3.6301,3.6301,3.6301,3.6301,3.6301,3.6301,3.6114,3.5941,3.5749,3.5705,3.5683,3.5683,3.5683,3.5683,3.5666,3.5316,3.5443,2.7159,2.7363,2.7512,2.6465,2.6021,2.5569,2.4605,2.3617,2.2974,2.323,2.2568,0.0,0.0,0.0,2.1185,2.0997,0.0,2.0532,1.985,2.0096,2.1255,2.368,2.3931,2.4316,2.5382,2.4844,2.4778,2.5744,2.5434,2.5814,2.7213,2.8506,2.9213,2.9213,3.0368,3.08,3.0368,3.1317,3.18,3.18,3.18,3.18,3.18,3.18,3.1903,3.2145,3.2904,3.368,3.4456,3.5197,3.5818,3.6301,3.6301,3.6301,3.6301,3.6301,3.6301,3.6422,3.7236,3.8134,3.9112,4.0463,4.0912,4.086,4.0653,4.0325,3.9939,3.9508,3.9146,3.8836,3.8646,3.8594,3.8594,3.8594,3.8594,3.8594,3.8594,3.8594,3.8594,3.8594,3.8594,3.8594,3.8594,3.7663,3.6922,3.6922,3.6922,3.6853,3.6646,3.6628,3.6542,3.6318,3.6301,3.6301,3.6301,3.6301,3.6301,3.6301,3.6301,3.6301,3.6301,3.6301,3.6301,3.6301,3.6301,3.6301,3.6301,3.6301,3.6301,3.6301,3.5963,3.5985,2.9045,2.9154,2.8892,2.6736,2.6192,2.5764,2.4183,2.4404,2.4693,2.393,2.4357,2.4639,2.3875,2.299,2.2144,2.1492,2.1156,0.0,0.0,1.98,2.0009,2.0759,2.2655,2.3915,2.3967,2.3292,2.3496,2.502,2.3756,2.4195,2.7142,2.8023,2.8437,2.8437,3.0593,3.1058,2.9558,3.1041,3.18,3.18,3.18,3.18,3.18,3.18,3.2179,3.2904,3.3697,3.4473,3.5214,3.5956,3.6284,3.6301,3.6301,3.6301,3.6301,3.6301,3.6301,3.6422,3.7236,3.8439,3.9802,4.0636,4.0912,4.0756,3.9957,4.025,4.0549,3.9065,3.9129,3.9491,3.8784,3.8594,3.8594,3.8594,3.8594,3.8594,3.8594,3.8594,3.8594,3.8594,3.8594,3.8594,3.8594,3.8543,3.8525,3.8525,3.8525,3.8272,3.7564,3.7461,3.7167,3.6387,3.6301,3.6301,3.6301,3.6301,3.6301,3.6301,3.6301,3.6301,3.6301,3.6301,3.6301,3.6301,3.6301,3.6301,3.6301,3.6301,3.6301,3.6301,3.628,3.6301,3.0905,3.1238,3.1082,2.8868,2.8127,2.7371,2.526,2.5353,2.5426,2.3902,2.4765,2.533,2.3759,2.2966,2.2439,2.2106,2.154,2.087,0.0,1.9808,1.9942,2.0619,2.2237,2.3284,2.3232,2.3007,2.3271,2.424,2.3811,2.4389,2.6402,2.8178,2.8695,2.7775,3.0422,3.1131,2.9592,3.1096,3.1856,3.18,3.18,3.18,3.1817,3.2317,3.2662,3.2972,3.4266,3.4956,3.5249,3.599,3.6301,3.6301,3.6301,3.6301,3.6301,3.6301,3.6628,3.7288,3.8508,3.9629,4.0549,4.0825,4.0549,4.0146,4.0429,3.998,3.9497,3.998,3.9905,3.9767,4.0066,4.0118,4.0118,4.0118,4.0118,4.0118,4.0118,4.0118,4.0118,4.0118,4.0118,4.0118,4.0118,4.0118,3.979,3.8732,3.8594,3.8491,3.8272,3.8237,3.8134,3.7836,3.7818,3.7611,3.715,3.6611,3.6301,3.6301,3.6301,3.6301,3.6301,3.6301,3.6301,3.6301,3.6301,3.6301,3.6301,3.6301,3.6301,3.6301,3.6301,3.6301,3.1823,3.2236,3.2238,3.032,2.9625,2.8805,2.6413,2.6418,2.6515,2.5022,2.5413,2.5877,2.5402,2.4142,2.3237,2.3397,2.2261,2.0939,0.0,1.9641,1.9953,2.0653,2.1843,2.2686,2.2884,2.2427,2.2506,2.3444,2.3271,2.388,2.5653,2.7884,2.8712,2.7824,3.0474,3.1305,3.0041,3.1271,3.1875,3.1838,3.1818,3.18,3.1817,3.2559,3.3059,3.3404,3.4645,3.5335,3.5628,3.6153,3.6343,3.6301,3.6343,3.6343,3.6335,3.6611,3.7387,3.8427,3.937,4.0239,4.086,4.0584,4.0325,4.0112,4.0101,3.9773,3.9583,4.0273,4.0325,4.0256,4.0774,4.0912,4.0912,4.0912,4.0912,4.0912,4.0912,4.0912,4.0912,4.0912,4.0912,4.0912,4.0912,4.0912,4.0567,3.9583,3.9428,3.9301,3.9026,3.8974,3.8888,3.8629,3.8594,3.8405,3.7944,3.7404,3.7008,3.6732,3.6715,3.6594,3.6318,3.6301,3.6301,3.6301,3.6301,3.6301,3.6301,3.6301,3.6301,3.6301,3.6301,3.6301]}]]